﻿<?xml version="1.0" encoding="utf-8"?><gpx creator="Garmin Desktop App" version="1.1" xsi:schemaLocation="http://www.topografix.com/GPX/1/1 http://www.topografix.com/GPX/1/1/gpx.xsd http://www.garmin.com/xmlschemas/WaypointExtension/v1 http://www8.garmin.com/xmlschemas/WaypointExtensionv1.xsd http://www.garmin.com/xmlschemas/TrackPointExtension/v1 http://www.garmin.com/xmlschemas/TrackPointExtensionv1.xsd http://www.garmin.com/xmlschemas/GpxExtensions/v3 http://www8.garmin.com/xmlschemas/GpxExtensionsv3.xsd http://www.garmin.com/xmlschemas/ActivityExtension/v1 http://www8.garmin.com/xmlschemas/ActivityExtensionv1.xsd http://www.garmin.com/xmlschemas/AdventuresExtensions/v1 http://www8.garmin.com/xmlschemas/AdventuresExtensionv1.xsd http://www.garmin.com/xmlschemas/PressureExtension/v1 http://www.garmin.com/xmlschemas/PressureExtensionv1.xsd http://www.garmin.com/xmlschemas/TripExtensions/v1 http://www.garmin.com/xmlschemas/TripExtensionsv1.xsd http://www.garmin.com/xmlschemas/TripMetaDataExtensions/v1 http://www.garmin.com/xmlschemas/TripMetaDataExtensionsv1.xsd http://www.garmin.com/xmlschemas/ViaPointTransportationModeExtensions/v1 http://www.garmin.com/xmlschemas/ViaPointTransportationModeExtensionsv1.xsd http://www.garmin.com/xmlschemas/CreationTimeExtension/v1 http://www.garmin.com/xmlschemas/CreationTimeExtensionsv1.xsd http://www.garmin.com/xmlschemas/AccelerationExtension/v1 http://www.garmin.com/xmlschemas/AccelerationExtensionv1.xsd http://www.garmin.com/xmlschemas/PowerExtension/v1 http://www.garmin.com/xmlschemas/PowerExtensionv1.xsd http://www.garmin.com/xmlschemas/VideoExtension/v1 http://www.garmin.com/xmlschemas/VideoExtensionv1.xsd" xmlns="http://www.topografix.com/GPX/1/1" xmlns:xsi="http://www.w3.org/2001/XMLSchema-instance" xmlns:wptx1="http://www.garmin.com/xmlschemas/WaypointExtension/v1" xmlns:gpxtrx="http://www.garmin.com/xmlschemas/GpxExtensions/v3" xmlns:gpxtpx="http://www.garmin.com/xmlschemas/TrackPointExtension/v1" xmlns:gpxx="http://www.garmin.com/xmlschemas/GpxExtensions/v3" xmlns:trp="http://www.garmin.com/xmlschemas/TripExtensions/v1" xmlns:adv="http://www.garmin.com/xmlschemas/AdventuresExtensions/v1" xmlns:prs="http://www.garmin.com/xmlschemas/PressureExtension/v1" xmlns:tmd="http://www.garmin.com/xmlschemas/TripMetaDataExtensions/v1" xmlns:vptm="http://www.garmin.com/xmlschemas/ViaPointTransportationModeExtensions/v1" xmlns:ctx="http://www.garmin.com/xmlschemas/CreationTimeExtension/v1" xmlns:gpxacc="http://www.garmin.com/xmlschemas/AccelerationExtension/v1" xmlns:gpxpx="http://www.garmin.com/xmlschemas/PowerExtension/v1" xmlns:vidx1="http://www.garmin.com/xmlschemas/VideoExtension/v1">

  <metadata>
    <link href="http://www.garmin.com">
      <text>Garmin International</text>
    </link>
    <time>2019-03-12T17:20:24Z</time>
    <bounds maxlat="46.426104130223393" maxlon="11.772720292210579" minlat="46.405902737751603" minlon="11.698824428021908" />
  </metadata>

  <trk>
    <name>val-san-nicolo2019-03-08</name>
    <extensions>
      <gpxx:TrackExtension>
        <gpxx:DisplayColor>Yellow</gpxx:DisplayColor>
      </gpxx:TrackExtension>
    </extensions>
    <trkseg>
      <trkpt lat="46.426086695864797" lon="11.698855273425579">
        <ele>1363.29</ele>
        <time>2019-03-08T07:48:21Z</time>
      </trkpt>
      <trkpt lat="46.425960464403033" lon="11.698898356407881">
        <ele>1363.77</ele>
        <time>2019-03-08T07:48:32Z</time>
      </trkpt>
      <trkpt lat="46.42583523876965" lon="11.698940433561802">
        <ele>1364.73</ele>
        <time>2019-03-08T07:48:43Z</time>
      </trkpt>
      <trkpt lat="46.425709426403046" lon="11.69897940941155">
        <ele>1365.6900000000001</ele>
        <time>2019-03-08T07:48:54Z</time>
      </trkpt>
      <trkpt lat="46.425584619864821" lon="11.699022576212883">
        <ele>1366.6500000000001</ele>
        <time>2019-03-08T07:49:05Z</time>
      </trkpt>
      <trkpt lat="46.425450593233109" lon="11.699054511263967">
        <ele>1367.1300000000001</ele>
        <time>2019-03-08T07:49:17Z</time>
      </trkpt>
      <trkpt lat="46.425348753109574" lon="11.699085524305701">
        <ele>1368.5699999999999</ele>
        <time>2019-03-08T07:49:27Z</time>
      </trkpt>
      <trkpt lat="46.425237525254488" lon="11.699136318638921">
        <ele>1370.02</ele>
        <time>2019-03-08T07:49:38Z</time>
      </trkpt>
      <trkpt lat="46.425118669867516" lon="11.699215192347765">
        <ele>1370.98</ele>
        <time>2019-03-08T07:49:50Z</time>
      </trkpt>
      <trkpt lat="46.424998221918941" lon="11.699281996116042">
        <ele>1371.9400000000001</ele>
        <time>2019-03-08T07:50:02Z</time>
      </trkpt>
      <trkpt lat="46.42487701959908" lon="11.699314098805189">
        <ele>1372.9000000000001</ele>
        <time>2019-03-08T07:50:12Z</time>
      </trkpt>
      <trkpt lat="46.424838462844491" lon="11.699320636689663">
        <ele>1373.3800000000001</ele>
        <time>2019-03-08T07:50:15Z</time>
      </trkpt>
      <trkpt lat="46.424747267737985" lon="11.699455669149756">
        <ele>1373.8599999999999</ele>
        <time>2019-03-08T07:50:28Z</time>
      </trkpt>
      <trkpt lat="46.424734946340322" lon="11.699459357187152">
        <ele>1373.8599999999999</ele>
        <time>2019-03-08T07:50:29Z</time>
      </trkpt>
      <trkpt lat="46.424720697104931" lon="11.699465308338404">
        <ele>1373.8599999999999</ele>
        <time>2019-03-08T07:50:30Z</time>
      </trkpt>
      <trkpt lat="46.42459656111896" lon="11.699522221460938">
        <ele>1373.8599999999999</ele>
        <time>2019-03-08T07:50:41Z</time>
      </trkpt>
      <trkpt lat="46.424498241394758" lon="11.699592880904675">
        <ele>1374.8199999999999</ele>
        <time>2019-03-08T07:50:52Z</time>
      </trkpt>
      <trkpt lat="46.424378296360373" lon="11.699675526469946">
        <ele>1376.26</ele>
        <time>2019-03-08T07:51:04Z</time>
      </trkpt>
      <trkpt lat="46.424267906695604" lon="11.699746269732714">
        <ele>1378.1900000000001</ele>
        <time>2019-03-08T07:51:15Z</time>
      </trkpt>
      <trkpt lat="46.424146620556712" lon="11.699818186461926">
        <ele>1379.1500000000001</ele>
        <time>2019-03-08T07:51:27Z</time>
      </trkpt>
      <trkpt lat="46.424063807353377" lon="11.699875686317682">
        <ele>1380.5899999999999</ele>
        <time>2019-03-08T07:51:36Z</time>
      </trkpt>
      <trkpt lat="46.423912849277258" lon="11.699964450672269">
        <ele>1381.0699999999999</ele>
        <time>2019-03-08T07:51:49Z</time>
      </trkpt>
      <trkpt lat="46.423761723563075" lon="11.700051035732031">
        <ele>1382.99</ele>
        <time>2019-03-08T07:52:03Z</time>
      </trkpt>
      <trkpt lat="46.423643790185452" lon="11.700110044330359">
        <ele>1383.47</ele>
        <time>2019-03-08T07:52:14Z</time>
      </trkpt>
      <trkpt lat="46.423573801293969" lon="11.700143236666918">
        <ele>1382.99</ele>
        <time>2019-03-08T07:52:21Z</time>
      </trkpt>
      <trkpt lat="46.423438098281622" lon="11.700240131467581">
        <ele>1383.96</ele>
        <time>2019-03-08T07:52:33Z</time>
      </trkpt>
      <trkpt lat="46.423334665596485" lon="11.700324201956391">
        <ele>1382.99</ele>
        <time>2019-03-08T07:52:43Z</time>
      </trkpt>
      <trkpt lat="46.42321907915175" lon="11.700408440083265">
        <ele>1382.99</ele>
        <time>2019-03-08T07:52:54Z</time>
      </trkpt>
      <trkpt lat="46.423115143552423" lon="11.700491169467568">
        <ele>1384.4400000000001</ele>
        <time>2019-03-08T07:53:04Z</time>
      </trkpt>
      <trkpt lat="46.423000814393163" lon="11.700586387887597">
        <ele>1384.4400000000001</ele>
        <time>2019-03-08T07:53:15Z</time>
      </trkpt>
      <trkpt lat="46.422862010076642" lon="11.700685461983085">
        <ele>1383.96</ele>
        <time>2019-03-08T07:53:28Z</time>
      </trkpt>
      <trkpt lat="46.422745920717716" lon="11.700779339298606">
        <ele>1383.47</ele>
        <time>2019-03-08T07:53:40Z</time>
      </trkpt>
      <trkpt lat="46.422640476375818" lon="11.700886292383075">
        <ele>1382.03</ele>
        <time>2019-03-08T07:53:51Z</time>
      </trkpt>
      <trkpt lat="46.422625472769141" lon="11.700915293768048">
        <ele>1382.03</ele>
        <time>2019-03-08T07:53:53Z</time>
      </trkpt>
      <trkpt lat="46.422616168856621" lon="11.700925854966044">
        <ele>1382.51</ele>
        <time>2019-03-08T07:53:54Z</time>
      </trkpt>
      <trkpt lat="46.42256042920053" lon="11.701006656512618">
        <ele>1382.51</ele>
        <time>2019-03-08T07:54:01Z</time>
      </trkpt>
      <trkpt lat="46.422553136944771" lon="11.701020821928978">
        <ele>1382.51</ele>
        <time>2019-03-08T07:54:02Z</time>
      </trkpt>
      <trkpt lat="46.42248566262424" lon="11.701130457222462">
        <ele>1382.99</ele>
        <time>2019-03-08T07:54:11Z</time>
      </trkpt>
      <trkpt lat="46.422462025657296" lon="11.701189549639821">
        <ele>1383.47</ele>
        <time>2019-03-08T07:54:15Z</time>
      </trkpt>
      <trkpt lat="46.422453643754125" lon="11.70121293514967">
        <ele>1383.96</ele>
        <time>2019-03-08T07:54:17Z</time>
      </trkpt>
      <trkpt lat="46.422421373426914" lon="11.701259203255177">
        <ele>1384.4400000000001</ele>
        <time>2019-03-08T07:54:22Z</time>
      </trkpt>
      <trkpt lat="46.422354318201542" lon="11.701323408633471">
        <ele>1385.4000000000001</ele>
        <time>2019-03-08T07:54:31Z</time>
      </trkpt>
      <trkpt lat="46.422314839437604" lon="11.701416280120611">
        <ele>1385.4000000000001</ele>
        <time>2019-03-08T07:54:38Z</time>
      </trkpt>
      <trkpt lat="46.422313833609223" lon="11.701430613175035">
        <ele>1385.4000000000001</ele>
        <time>2019-03-08T07:54:39Z</time>
      </trkpt>
      <trkpt lat="46.422309558838606" lon="11.701445616781712">
        <ele>1385.8800000000001</ele>
        <time>2019-03-08T07:54:40Z</time>
      </trkpt>
      <trkpt lat="46.422245102003217" lon="11.701590120792389">
        <ele>1386.3599999999999</ele>
        <time>2019-03-08T07:54:50Z</time>
      </trkpt>
      <trkpt lat="46.422166815027595" lon="11.701739486306906">
        <ele>1387.3199999999999</ele>
        <time>2019-03-08T07:55:02Z</time>
      </trkpt>
      <trkpt lat="46.422135382890701" lon="11.701788688078523">
        <ele>1387.3199999999999</ele>
        <time>2019-03-08T07:55:06Z</time>
      </trkpt>
      <trkpt lat="46.422126078978181" lon="11.701799836009741">
        <ele>1387.3199999999999</ele>
        <time>2019-03-08T07:55:07Z</time>
      </trkpt>
      <trkpt lat="46.422117361798882" lon="11.701815845444798">
        <ele>1386.8399999999999</ele>
        <time>2019-03-08T07:55:08Z</time>
      </trkpt>
      <trkpt lat="46.422034045681357" lon="11.701941573992372">
        <ele>1388.76</ele>
        <time>2019-03-08T07:55:20Z</time>
      </trkpt>
      <trkpt lat="46.421967912465334" lon="11.702082809060812">
        <ele>1390.6800000000001</ele>
        <time>2019-03-08T07:55:32Z</time>
      </trkpt>
      <trkpt lat="46.421898510307074" lon="11.702207699418068">
        <ele>1392.6099999999999</ele>
        <time>2019-03-08T07:55:41Z</time>
      </trkpt>
      <trkpt lat="46.421893397346139" lon="11.702220104634762">
        <ele>1392.6099999999999</ele>
        <time>2019-03-08T07:55:42Z</time>
      </trkpt>
      <trkpt lat="46.421880489215255" lon="11.702247429639101">
        <ele>1392.6099999999999</ele>
        <time>2019-03-08T07:55:44Z</time>
      </trkpt>
      <trkpt lat="46.421842267736793" lon="11.702293111011386">
        <ele>1392.6099999999999</ele>
        <time>2019-03-08T07:55:48Z</time>
      </trkpt>
      <trkpt lat="46.421834388747811" lon="11.702306270599365">
        <ele>1392.1300000000001</ele>
        <time>2019-03-08T07:55:49Z</time>
      </trkpt>
      <trkpt lat="46.421828018501401" lon="11.702317837625742">
        <ele>1392.6099999999999</ele>
        <time>2019-03-08T07:55:50Z</time>
      </trkpt>
      <trkpt lat="46.421819552779198" lon="11.702330997213721">
        <ele>1392.6099999999999</ele>
        <time>2019-03-08T07:55:51Z</time>
      </trkpt>
      <trkpt lat="46.421813685446978" lon="11.702344575896859">
        <ele>1392.6099999999999</ele>
        <time>2019-03-08T07:55:52Z</time>
      </trkpt>
      <trkpt lat="46.421755347400904" lon="11.702463515102863">
        <ele>1393.5699999999999</ele>
        <time>2019-03-08T07:56:02Z</time>
      </trkpt>
      <trkpt lat="46.421681838110089" lon="11.702592428773642">
        <ele>1395.97</ele>
        <time>2019-03-08T07:56:13Z</time>
      </trkpt>
      <trkpt lat="46.421627774834633" lon="11.702702734619379">
        <ele>1396.9300000000001</ele>
        <time>2019-03-08T07:56:21Z</time>
      </trkpt>
      <trkpt lat="46.421618051826954" lon="11.702716816216707">
        <ele>1396.9300000000001</ele>
        <time>2019-03-08T07:56:22Z</time>
      </trkpt>
      <trkpt lat="46.421543620526791" lon="11.702832570299506">
        <ele>1397.4100000000001</ele>
        <time>2019-03-08T07:56:32Z</time>
      </trkpt>
      <trkpt lat="46.421465501189232" lon="11.70296517200768">
        <ele>1398.8599999999999</ele>
        <time>2019-03-08T07:56:43Z</time>
      </trkpt>
      <trkpt lat="46.421426022425294" lon="11.703026443719864">
        <ele>1399.3399999999999</ele>
        <time>2019-03-08T07:56:49Z</time>
      </trkpt>
      <trkpt lat="46.421420238912106" lon="11.703041028231382">
        <ele>1399.3399999999999</ele>
        <time>2019-03-08T07:56:50Z</time>
      </trkpt>
      <trkpt lat="46.421412946656346" lon="11.703053768724203">
        <ele>1399.8199999999999</ele>
        <time>2019-03-08T07:56:51Z</time>
      </trkpt>
      <trkpt lat="46.421343795955181" lon="11.703173713758588">
        <ele>1400.3</ele>
        <time>2019-03-08T07:57:01Z</time>
      </trkpt>
      <trkpt lat="46.421245392411947" lon="11.703301286324859">
        <ele>1401.74</ele>
        <time>2019-03-08T07:57:13Z</time>
      </trkpt>
      <trkpt lat="46.421157885342836" lon="11.70339809730649">
        <ele>1403.6600000000001</ele>
        <time>2019-03-08T07:57:23Z</time>
      </trkpt>
      <trkpt lat="46.421128967776895" lon="11.703448388725519">
        <ele>1403.6600000000001</ele>
        <time>2019-03-08T07:57:27Z</time>
      </trkpt>
      <trkpt lat="46.421128381043673" lon="11.703462470322847">
        <ele>1404.1400000000001</ele>
        <time>2019-03-08T07:57:28Z</time>
      </trkpt>
      <trkpt lat="46.421125782653689" lon="11.703478647395968">
        <ele>1404.1400000000001</ele>
        <time>2019-03-08T07:57:29Z</time>
      </trkpt>
      <trkpt lat="46.421124022454023" lon="11.703496836125851">
        <ele>1404.6199999999999</ele>
        <time>2019-03-08T07:57:30Z</time>
      </trkpt>
      <trkpt lat="46.421118741855025" lon="11.703514438122511">
        <ele>1404.6199999999999</ele>
        <time>2019-03-08T07:57:31Z</time>
      </trkpt>
      <trkpt lat="46.421114802360535" lon="11.703529860824347">
        <ele>1405.0999999999999</ele>
        <time>2019-03-08T07:57:32Z</time>
      </trkpt>
      <trkpt lat="46.421106169000268" lon="11.703555760905147">
        <ele>1405.0999999999999</ele>
        <time>2019-03-08T07:57:34Z</time>
      </trkpt>
      <trkpt lat="46.42109602689743" lon="11.703570932149887">
        <ele>1405.0999999999999</ele>
        <time>2019-03-08T07:57:35Z</time>
      </trkpt>
      <trkpt lat="46.421088231727481" lon="11.70358425937593">
        <ele>1404.6199999999999</ele>
        <time>2019-03-08T07:57:36Z</time>
      </trkpt>
      <trkpt lat="46.421080268919468" lon="11.703599095344543">
        <ele>1404.6199999999999</ele>
        <time>2019-03-08T07:57:37Z</time>
      </trkpt>
      <trkpt lat="46.421045064926147" lon="11.703683417290449">
        <ele>1405.5799999999999</ele>
        <time>2019-03-08T07:57:44Z</time>
      </trkpt>
      <trkpt lat="46.421005753800273" lon="11.703806631267071">
        <ele>1406.0699999999999</ele>
        <time>2019-03-08T07:57:54Z</time>
      </trkpt>
      <trkpt lat="46.420999299734831" lon="11.703818282112479">
        <ele>1406.0699999999999</ele>
        <time>2019-03-08T07:57:55Z</time>
      </trkpt>
      <trkpt lat="46.420973232015967" lon="11.703870920464396">
        <ele>1405.5799999999999</ele>
        <time>2019-03-08T07:57:59Z</time>
      </trkpt>
      <trkpt lat="46.420921180397272" lon="11.703995978459716">
        <ele>1405.5799999999999</ele>
        <time>2019-03-08T07:58:09Z</time>
      </trkpt>
      <trkpt lat="46.420894525945187" lon="11.704081557691097">
        <ele>1406.0699999999999</ele>
        <time>2019-03-08T07:58:16Z</time>
      </trkpt>
      <trkpt lat="46.420885808765888" lon="11.704095974564552">
        <ele>1406.0699999999999</ele>
        <time>2019-03-08T07:58:17Z</time>
      </trkpt>
      <trkpt lat="46.420871559530497" lon="11.704125478863716">
        <ele>1405.5799999999999</ele>
        <time>2019-03-08T07:58:19Z</time>
      </trkpt>
      <trkpt lat="46.420861920341849" lon="11.704153306782246">
        <ele>1405.5799999999999</ele>
        <time>2019-03-08T07:58:21Z</time>
      </trkpt>
      <trkpt lat="46.420799558982253" lon="11.704228157177567">
        <ele>1406.0699999999999</ele>
        <time>2019-03-08T07:58:29Z</time>
      </trkpt>
      <trkpt lat="46.420740382745862" lon="11.704249531030655">
        <ele>1405.5799999999999</ele>
        <time>2019-03-08T07:58:35Z</time>
      </trkpt>
      <trkpt lat="46.420733677223325" lon="11.704264031723142">
        <ele>1406.0699999999999</ele>
        <time>2019-03-08T07:58:36Z</time>
      </trkpt>
      <trkpt lat="46.420688079670072" lon="11.704378444701433">
        <ele>1406.55</ele>
        <time>2019-03-08T07:58:45Z</time>
      </trkpt>
      <trkpt lat="46.420621611177921" lon="11.704460168257356">
        <ele>1407.51</ele>
        <time>2019-03-08T07:58:53Z</time>
      </trkpt>
      <trkpt lat="46.420592274516821" lon="11.704546250402927">
        <ele>1407.99</ele>
        <time>2019-03-08T07:58:59Z</time>
      </trkpt>
      <trkpt lat="46.42058783210814" lon="11.70456251129508">
        <ele>1407.99</ele>
        <time>2019-03-08T07:59:00Z</time>
      </trkpt>
      <trkpt lat="46.420565536245704" lon="11.704615736380219">
        <ele>1408.47</ele>
        <time>2019-03-08T07:59:04Z</time>
      </trkpt>
      <trkpt lat="46.420563273131847" lon="11.704633925110102">
        <ele>1408.47</ele>
        <time>2019-03-08T07:59:05Z</time>
      </trkpt>
      <trkpt lat="46.420560674741864" lon="11.704652700573206">
        <ele>1408.47</ele>
        <time>2019-03-08T07:59:06Z</time>
      </trkpt>
      <trkpt lat="46.42055899836123" lon="11.704669464379549">
        <ele>1408.47</ele>
        <time>2019-03-08T07:59:07Z</time>
      </trkpt>
      <trkpt lat="46.420557405799627" lon="11.704685557633638">
        <ele>1408.47</ele>
        <time>2019-03-08T07:59:08Z</time>
      </trkpt>
      <trkpt lat="46.420554304495454" lon="11.704701986163855">
        <ele>1408.47</ele>
        <time>2019-03-08T07:59:09Z</time>
      </trkpt>
      <trkpt lat="46.420552963390946" lon="11.704722521826625">
        <ele>1408.95</ele>
        <time>2019-03-08T07:59:10Z</time>
      </trkpt>
      <trkpt lat="46.420519519597292" lon="11.704847076907754">
        <ele>1409.4300000000001</ele>
        <time>2019-03-08T07:59:18Z</time>
      </trkpt>
      <trkpt lat="46.420516837388277" lon="11.704862248152494">
        <ele>1409.4300000000001</ele>
        <time>2019-03-08T07:59:19Z</time>
      </trkpt>
      <trkpt lat="46.420512478798628" lon="11.704881023615599">
        <ele>1409.4300000000001</ele>
        <time>2019-03-08T07:59:20Z</time>
      </trkpt>
      <trkpt lat="46.420509209856391" lon="11.704897619783878">
        <ele>1409.4300000000001</ele>
        <time>2019-03-08T07:59:21Z</time>
      </trkpt>
      <trkpt lat="46.420506192371249" lon="11.704914215952158">
        <ele>1409.4300000000001</ele>
        <time>2019-03-08T07:59:22Z</time>
      </trkpt>
      <trkpt lat="46.420502755790949" lon="11.704930812120438">
        <ele>1409.4300000000001</ele>
        <time>2019-03-08T07:59:23Z</time>
      </trkpt>
      <trkpt lat="46.420501749962568" lon="11.704946151003242">
        <ele>1409.9100000000001</ele>
        <time>2019-03-08T07:59:24Z</time>
      </trkpt>
      <trkpt lat="46.420496972277761" lon="11.704959645867348">
        <ele>1409.9100000000001</ele>
        <time>2019-03-08T07:59:25Z</time>
      </trkpt>
      <trkpt lat="46.42049252986908" lon="11.704976828768849">
        <ele>1409.9100000000001</ele>
        <time>2019-03-08T07:59:26Z</time>
      </trkpt>
      <trkpt lat="46.420489680022001" lon="11.704991413280368">
        <ele>1409.9100000000001</ele>
        <time>2019-03-08T07:59:27Z</time>
      </trkpt>
      <trkpt lat="46.420486997812986" lon="11.705006500706077">
        <ele>1409.9100000000001</ele>
        <time>2019-03-08T07:59:28Z</time>
      </trkpt>
      <trkpt lat="46.420463696122169" lon="11.70520112849772">
        <ele>1410.8699999999999</ele>
        <time>2019-03-08T07:59:40Z</time>
      </trkpt>
      <trkpt lat="46.420459672808647" lon="11.705256951972842">
        <ele>1410.8699999999999</ele>
        <time>2019-03-08T07:59:43Z</time>
      </trkpt>
      <trkpt lat="46.420463612303138" lon="11.705290144309402">
        <ele>1410.3900000000001</ele>
        <time>2019-03-08T07:59:46Z</time>
      </trkpt>
      <trkpt lat="46.420440394431353" lon="11.705435989424586">
        <ele>1411.8299999999999</ele>
        <time>2019-03-08T07:59:57Z</time>
      </trkpt>
      <trkpt lat="46.420431761071086" lon="11.705454178154469">
        <ele>1411.3499999999999</ele>
        <time>2019-03-08T08:00:03Z</time>
      </trkpt>
      <trkpt lat="46.420413069427013" lon="11.705472199246287">
        <ele>1411.8299999999999</ele>
        <time>2019-03-08T08:00:05Z</time>
      </trkpt>
      <trkpt lat="46.420401083305478" lon="11.705481670796871">
        <ele>1411.3499999999999</ele>
        <time>2019-03-08T08:00:06Z</time>
      </trkpt>
      <trkpt lat="46.420388761907816" lon="11.705509247258306">
        <ele>1411.8299999999999</ele>
        <time>2019-03-08T08:00:08Z</time>
      </trkpt>
      <trkpt lat="46.420383900403976" lon="11.70552215538919">
        <ele>1412.3099999999999</ele>
        <time>2019-03-08T08:00:09Z</time>
      </trkpt>
      <trkpt lat="46.420343834906816" lon="11.705642100423574">
        <ele>1413.76</ele>
        <time>2019-03-08T08:00:19Z</time>
      </trkpt>
      <trkpt lat="46.420338051393628" lon="11.705652577802539">
        <ele>1413.76</ele>
        <time>2019-03-08T08:00:24Z</time>
      </trkpt>
      <trkpt lat="46.420293794944882" lon="11.705786352977157">
        <ele>1414.24</ele>
        <time>2019-03-08T08:00:34Z</time>
      </trkpt>
      <trkpt lat="46.42026923596859" lon="11.70588324777782">
        <ele>1417.1199999999999</ele>
        <time>2019-03-08T08:08:51Z</time>
      </trkpt>
      <trkpt lat="46.420221962034702" lon="11.705926666036248">
        <ele>1420</ele>
        <time>2019-03-08T08:08:59Z</time>
      </trkpt>
      <trkpt lat="46.42020327039063" lon="11.705991877242923">
        <ele>1420</ele>
        <time>2019-03-08T08:09:07Z</time>
      </trkpt>
      <trkpt lat="46.420165048912168" lon="11.70607284642756">
        <ele>1419.52</ele>
        <time>2019-03-08T08:09:15Z</time>
      </trkpt>
      <trkpt lat="46.420140154659748" lon="11.706114169210196">
        <ele>1421.45</ele>
        <time>2019-03-08T08:09:23Z</time>
      </trkpt>
      <trkpt lat="46.420120960101485" lon="11.706201676279306">
        <ele>1421.45</ele>
        <time>2019-03-08T08:09:36Z</time>
      </trkpt>
      <trkpt lat="46.420124815776944" lon="11.706241322681308">
        <ele>1422.4100000000001</ele>
        <time>2019-03-08T08:09:47Z</time>
      </trkpt>
      <trkpt lat="46.420121714472771" lon="11.706267641857266">
        <ele>1422.8900000000001</ele>
        <time>2019-03-08T08:09:50Z</time>
      </trkpt>
      <trkpt lat="46.420095479115844" lon="11.706298571079969">
        <ele>1422.8900000000001</ele>
        <time>2019-03-08T08:09:53Z</time>
      </trkpt>
      <trkpt lat="46.420050803571939" lon="11.706361183896661">
        <ele>1421.9300000000001</ele>
        <time>2019-03-08T08:10:01Z</time>
      </trkpt>
      <trkpt lat="46.420042673125863" lon="11.706335283815861">
        <ele>1422.8900000000001</ele>
        <time>2019-03-08T08:10:10Z</time>
      </trkpt>
      <trkpt lat="46.420037392526865" lon="11.706330925226212">
        <ele>1424.8099999999999</ele>
        <time>2019-03-08T08:10:17Z</time>
      </trkpt>
      <trkpt lat="46.419966649264097" lon="11.706347269937396">
        <ele>1425.77</ele>
        <time>2019-03-08T08:15:51Z</time>
      </trkpt>
      <trkpt lat="46.419921638444066" lon="11.70645690523088">
        <ele>1423.8499999999999</ele>
        <time>2019-03-08T08:15:58Z</time>
      </trkpt>
      <trkpt lat="46.419645790010691" lon="11.706900224089622">
        <ele>1422.8900000000001</ele>
        <time>2019-03-08T08:16:39Z</time>
      </trkpt>
      <trkpt lat="46.419585524126887" lon="11.707033244892955">
        <ele>1426.25</ele>
        <time>2019-03-08T08:16:48Z</time>
      </trkpt>
      <trkpt lat="46.419550152495503" lon="11.707188310101628">
        <ele>1427.7</ele>
        <time>2019-03-08T08:17:00Z</time>
      </trkpt>
      <trkpt lat="46.419495586305857" lon="11.707283612340689">
        <ele>1430.0999999999999</ele>
        <time>2019-03-08T08:17:10Z</time>
      </trkpt>
      <trkpt lat="46.419477062299848" lon="11.707367766648531">
        <ele>1432.5</ele>
        <time>2019-03-08T08:17:21Z</time>
      </trkpt>
      <trkpt lat="46.419433057308197" lon="11.70745762065053">
        <ele>1432.02</ele>
        <time>2019-03-08T08:17:31Z</time>
      </trkpt>
      <trkpt lat="46.419381089508533" lon="11.707549151033163">
        <ele>1430.5799999999999</ele>
        <time>2019-03-08T08:17:40Z</time>
      </trkpt>
      <trkpt lat="46.419394919648767" lon="11.707673454657197">
        <ele>1431.0599999999999</ele>
        <time>2019-03-08T08:17:51Z</time>
      </trkpt>
      <trkpt lat="46.419389555230737" lon="11.707788119092584">
        <ele>1433.46</ele>
        <time>2019-03-08T08:18:01Z</time>
      </trkpt>
      <trkpt lat="46.419372707605362" lon="11.707899095490575">
        <ele>1435.3900000000001</ele>
        <time>2019-03-08T08:18:12Z</time>
      </trkpt>
      <trkpt lat="46.419316632673144" lon="11.708023063838482">
        <ele>1437.79</ele>
        <time>2019-03-08T08:18:24Z</time>
      </trkpt>
      <trkpt lat="46.419278578832746" lon="11.708115600049496">
        <ele>1438.75</ele>
        <time>2019-03-08T08:18:33Z</time>
      </trkpt>
      <trkpt lat="46.419266257435083" lon="11.708209477365017">
        <ele>1441.1500000000001</ele>
        <time>2019-03-08T08:18:44Z</time>
      </trkpt>
      <trkpt lat="46.419219402596354" lon="11.70828927308321">
        <ele>1442.5999999999999</ele>
        <time>2019-03-08T08:18:53Z</time>
      </trkpt>
      <trkpt lat="46.41914782114327" lon="11.708401339128613">
        <ele>1442.1099999999999</ele>
        <time>2019-03-08T08:19:05Z</time>
      </trkpt>
      <trkpt lat="46.419088561087847" lon="11.70850083231926">
        <ele>1441.6300000000001</ele>
        <time>2019-03-08T08:19:15Z</time>
      </trkpt>
      <trkpt lat="46.419028379023075" lon="11.708568893373013">
        <ele>1441.6300000000001</ele>
        <time>2019-03-08T08:19:25Z</time>
      </trkpt>
      <trkpt lat="46.418968699872494" lon="11.708681713789701">
        <ele>1442.5999999999999</ele>
        <time>2019-03-08T08:19:38Z</time>
      </trkpt>
      <trkpt lat="46.418932909145951" lon="11.708725970238447">
        <ele>1445.48</ele>
        <time>2019-03-08T08:19:46Z</time>
      </trkpt>
      <trkpt lat="46.418877001851797" lon="11.708816075697541">
        <ele>1447.4000000000001</ele>
        <time>2019-03-08T08:19:57Z</time>
      </trkpt>
      <trkpt lat="46.418837523087859" lon="11.708863517269492">
        <ele>1447.4000000000001</ele>
        <time>2019-03-08T08:20:04Z</time>
      </trkpt>
      <trkpt lat="46.41879259608686" lon="11.708922190591693">
        <ele>1447.4000000000001</ele>
        <time>2019-03-08T08:20:14Z</time>
      </trkpt>
      <trkpt lat="46.418722439557314" lon="11.709007686004043">
        <ele>1448.3599999999999</ele>
        <time>2019-03-08T08:20:24Z</time>
      </trkpt>
      <trkpt lat="46.418664436787367" lon="11.709077758714557">
        <ele>1448.8399999999999</ele>
        <time>2019-03-08T08:20:34Z</time>
      </trkpt>
      <trkpt lat="46.418599812313914" lon="11.709135929122567">
        <ele>1450.77</ele>
        <time>2019-03-08T08:20:46Z</time>
      </trkpt>
      <trkpt lat="46.418534014374018" lon="11.709235506132245">
        <ele>1453.1700000000001</ele>
        <time>2019-03-08T08:20:58Z</time>
      </trkpt>
      <trkpt lat="46.418474838137627" lon="11.709316223859787">
        <ele>1453.1700000000001</ele>
        <time>2019-03-08T08:21:10Z</time>
      </trkpt>
      <trkpt lat="46.418456146493554" lon="11.709382273256779">
        <ele>1453.1700000000001</ele>
        <time>2019-03-08T08:21:19Z</time>
      </trkpt>
      <trkpt lat="46.418412644416094" lon="11.709451088681817">
        <ele>1454.1300000000001</ele>
        <time>2019-03-08T08:21:29Z</time>
      </trkpt>
      <trkpt lat="46.418368304148316" lon="11.709539853036404">
        <ele>1456.05</ele>
        <time>2019-03-08T08:21:41Z</time>
      </trkpt>
      <trkpt lat="46.418302590027452" lon="11.709620067849755">
        <ele>1457.5</ele>
        <time>2019-03-08T08:21:53Z</time>
      </trkpt>
      <trkpt lat="46.418299321085215" lon="11.709622582420707">
        <ele>1457.98</ele>
        <time>2019-03-08T08:21:54Z</time>
      </trkpt>
      <trkpt lat="46.418239055201411" lon="11.709700617939234">
        <ele>1459.4200000000001</ele>
        <time>2019-03-08T08:22:05Z</time>
      </trkpt>
      <trkpt lat="46.418177364394069" lon="11.70982257463038">
        <ele>1460.3800000000001</ele>
        <time>2019-03-08T08:22:18Z</time>
      </trkpt>
      <trkpt lat="46.41810804605484" lon="11.709910416975617">
        <ele>1459.9000000000001</ele>
        <time>2019-03-08T08:22:30Z</time>
      </trkpt>
      <trkpt lat="46.418043673038483" lon="11.710019214078784">
        <ele>1462.78</ele>
        <time>2019-03-08T08:22:42Z</time>
      </trkpt>
      <trkpt lat="46.418043421581388" lon="11.71003027819097">
        <ele>1462.78</ele>
        <time>2019-03-08T08:22:43Z</time>
      </trkpt>
      <trkpt lat="46.418035123497248" lon="11.710104122757912">
        <ele>1463.74</ele>
        <time>2019-03-08T08:22:52Z</time>
      </trkpt>
      <trkpt lat="46.417998997494578" lon="11.710192551836371">
        <ele>1465.6700000000001</ele>
        <time>2019-03-08T08:23:04Z</time>
      </trkpt>
      <trkpt lat="46.417987179011106" lon="11.710215099155903">
        <ele>1467.1099999999999</ele>
        <time>2019-03-08T08:23:07Z</time>
      </trkpt>
      <trkpt lat="46.417943006381392" lon="11.710297074168921">
        <ele>1469.51</ele>
        <time>2019-03-08T08:23:16Z</time>
      </trkpt>
      <trkpt lat="46.417951555922627" lon="11.710329093039036">
        <ele>1469.99</ele>
        <time>2019-03-08T08:23:20Z</time>
      </trkpt>
      <trkpt lat="46.417957758530974" lon="11.710365805774927">
        <ele>1472.8800000000001</ele>
        <time>2019-03-08T08:23:29Z</time>
      </trkpt>
      <trkpt lat="46.417972175404429" lon="11.710442332550883">
        <ele>1474.3199999999999</ele>
        <time>2019-03-08T08:23:36Z</time>
      </trkpt>
      <trkpt lat="46.418014001101255" lon="11.710531683638692">
        <ele>1476.72</ele>
        <time>2019-03-08T08:23:45Z</time>
      </trkpt>
      <trkpt lat="46.418000757694244" lon="11.710602594539523">
        <ele>1480.0899999999999</ele>
        <time>2019-03-08T08:23:52Z</time>
      </trkpt>
      <trkpt lat="46.417968487367034" lon="11.710662106052041">
        <ele>1479.1300000000001</ele>
        <time>2019-03-08T08:23:57Z</time>
      </trkpt>
      <trkpt lat="46.417947029694915" lon="11.710715917870402">
        <ele>1479.6099999999999</ele>
        <time>2019-03-08T08:24:02Z</time>
      </trkpt>
      <trkpt lat="46.417916435748339" lon="11.710722204297781">
        <ele>1480.5699999999999</ele>
        <time>2019-03-08T08:24:10Z</time>
      </trkpt>
      <trkpt lat="46.417851140722632" lon="11.71063763089478">
        <ele>1481.05</ele>
        <time>2019-03-08T08:24:22Z</time>
      </trkpt>
      <trkpt lat="46.417782912030816" lon="11.710564456880093">
        <ele>1482.97</ele>
        <time>2019-03-08T08:24:34Z</time>
      </trkpt>
      <trkpt lat="46.417719377204776" lon="11.710496814921498">
        <ele>1482.49</ele>
        <time>2019-03-08T08:24:42Z</time>
      </trkpt>
      <trkpt lat="46.417657602578402" lon="11.710343258455396">
        <ele>1482.49</ele>
        <time>2019-03-08T08:24:56Z</time>
      </trkpt>
      <trkpt lat="46.417631953954697" lon="11.710240580141544">
        <ele>1482.97</ele>
        <time>2019-03-08T08:25:05Z</time>
      </trkpt>
      <trkpt lat="46.417560707777739" lon="11.710157683119178">
        <ele>1482.01</ele>
        <time>2019-03-08T08:25:16Z</time>
      </trkpt>
      <trkpt lat="46.41748066060245" lon="11.71020763926208">
        <ele>1481.53</ele>
        <time>2019-03-08T08:25:27Z</time>
      </trkpt>
      <trkpt lat="46.417469009757042" lon="11.710282573476434">
        <ele>1482.49</ele>
        <time>2019-03-08T08:25:34Z</time>
      </trkpt>
      <trkpt lat="46.417482504621148" lon="11.710384497419">
        <ele>1485.3699999999999</ele>
        <time>2019-03-08T08:25:46Z</time>
      </trkpt>
      <trkpt lat="46.417520055547357" lon="11.710475357249379">
        <ele>1488.74</ele>
        <time>2019-03-08T08:25:54Z</time>
      </trkpt>
      <trkpt lat="46.417527934536338" lon="11.710540149360895">
        <ele>1492.0999999999999</ele>
        <time>2019-03-08T08:26:02Z</time>
      </trkpt>
      <trkpt lat="46.417534304782748" lon="11.710551464930177">
        <ele>1492.5799999999999</ele>
        <time>2019-03-08T08:26:03Z</time>
      </trkpt>
      <trkpt lat="46.4175627194345" lon="11.710642157122493">
        <ele>1495.95</ele>
        <time>2019-03-08T08:26:12Z</time>
      </trkpt>
      <trkpt lat="46.41759398393333" lon="11.710701249539852">
        <ele>1496.9100000000001</ele>
        <time>2019-03-08T08:26:16Z</time>
      </trkpt>
      <trkpt lat="46.417603371664882" lon="11.710819685831666">
        <ele>1497.8699999999999</ele>
        <time>2019-03-08T08:26:26Z</time>
      </trkpt>
      <trkpt lat="46.417612927034497" lon="11.710873916745186">
        <ele>1496.9100000000001</ele>
        <time>2019-03-08T08:26:32Z</time>
      </trkpt>
      <trkpt lat="46.417606556788087" lon="11.710909036919475">
        <ele>1495.95</ele>
        <time>2019-03-08T08:26:34Z</time>
      </trkpt>
      <trkpt lat="46.417593061923981" lon="11.711023785173893">
        <ele>1496.4300000000001</ele>
        <time>2019-03-08T08:26:44Z</time>
      </trkpt>
      <trkpt lat="46.417591385543346" lon="11.711146999150515">
        <ele>1499.3099999999999</ele>
        <time>2019-03-08T08:26:55Z</time>
      </trkpt>
      <trkpt lat="46.417575879022479" lon="11.711280941963196">
        <ele>1501.24</ele>
        <time>2019-03-08T08:27:08Z</time>
      </trkpt>
      <trkpt lat="46.4175436925143" lon="11.711373226717114">
        <ele>1500.76</ele>
        <time>2019-03-08T08:27:18Z</time>
      </trkpt>
      <trkpt lat="46.417508404701948" lon="11.711427960544825">
        <ele>1500.76</ele>
        <time>2019-03-08T08:27:27Z</time>
      </trkpt>
      <trkpt lat="46.41751192510128" lon="11.711541535332799">
        <ele>1503.6400000000001</ele>
        <time>2019-03-08T08:27:39Z</time>
      </trkpt>
      <trkpt lat="46.41746498644352" lon="11.711657457053661">
        <ele>1504.5999999999999</ele>
        <time>2019-03-08T08:27:51Z</time>
      </trkpt>
      <trkpt lat="46.417409330606461" lon="11.711754268035293">
        <ele>1505.5599999999999</ele>
        <time>2019-03-08T08:28:03Z</time>
      </trkpt>
      <trkpt lat="46.417315201833844" lon="11.711803050711751">
        <ele>1504.5999999999999</ele>
        <time>2019-03-08T08:28:14Z</time>
      </trkpt>
      <trkpt lat="46.417223000898957" lon="11.711853761225939">
        <ele>1503.6400000000001</ele>
        <time>2019-03-08T08:28:25Z</time>
      </trkpt>
      <trkpt lat="46.417135577648878" lon="11.711911093443632">
        <ele>1504.1199999999999</ele>
        <time>2019-03-08T08:28:37Z</time>
      </trkpt>
      <trkpt lat="46.417124764993787" lon="11.711920481175184">
        <ele>1504.1199999999999</ele>
        <time>2019-03-08T08:28:39Z</time>
      </trkpt>
      <trkpt lat="46.417042454704642" lon="11.711956271901727">
        <ele>1505.0799999999999</ele>
        <time>2019-03-08T08:28:50Z</time>
      </trkpt>
      <trkpt lat="46.416954109445214" lon="11.71201410703361">
        <ele>1508.45</ele>
        <time>2019-03-08T08:29:01Z</time>
      </trkpt>
      <trkpt lat="46.416885210201144" lon="11.712099183350801">
        <ele>1510.8499999999999</ele>
        <time>2019-03-08T08:29:11Z</time>
      </trkpt>
      <trkpt lat="46.416839277371764" lon="11.712160706520081">
        <ele>1511.3299999999999</ele>
        <time>2019-03-08T08:29:17Z</time>
      </trkpt>
      <trkpt lat="46.41680927015841" lon="11.712227594107389">
        <ele>1511.8099999999999</ele>
        <time>2019-03-08T08:29:23Z</time>
      </trkpt>
      <trkpt lat="46.416794769465923" lon="11.712311999872327">
        <ele>1511.8099999999999</ele>
        <time>2019-03-08T08:29:31Z</time>
      </trkpt>
      <trkpt lat="46.41681564040482" lon="11.712416941300035">
        <ele>1511.3299999999999</ele>
        <time>2019-03-08T08:29:41Z</time>
      </trkpt>
      <trkpt lat="46.416794518008828" lon="11.712568234652281">
        <ele>1510.3699999999999</ele>
        <time>2019-03-08T08:29:53Z</time>
      </trkpt>
      <trkpt lat="46.41678873449564" lon="11.712594218552113">
        <ele>1510.8499999999999</ele>
        <time>2019-03-08T08:29:55Z</time>
      </trkpt>
      <trkpt lat="46.416759062558413" lon="11.712724389508367">
        <ele>1511.8099999999999</ele>
        <time>2019-03-08T08:30:06Z</time>
      </trkpt>
      <trkpt lat="46.416745651513338" lon="11.712863445281982">
        <ele>1513.73</ele>
        <time>2019-03-08T08:30:18Z</time>
      </trkpt>
      <trkpt lat="46.416719667613506" lon="11.712994705885649">
        <ele>1515.1800000000001</ele>
        <time>2019-03-08T08:30:29Z</time>
      </trkpt>
      <trkpt lat="46.416690750047565" lon="11.713117333129048">
        <ele>1517.0999999999999</ele>
        <time>2019-03-08T08:30:38Z</time>
      </trkpt>
      <trkpt lat="46.416680524125695" lon="11.713144909590483">
        <ele>1517.5799999999999</ele>
        <time>2019-03-08T08:30:40Z</time>
      </trkpt>
      <trkpt lat="46.416588574647903" lon="11.713237781077623">
        <ele>1517.5799999999999</ele>
        <time>2019-03-08T08:30:52Z</time>
      </trkpt>
      <trkpt lat="46.416544653475285" lon="11.713331574574113">
        <ele>1519.5</ele>
        <time>2019-03-08T08:31:02Z</time>
      </trkpt>
      <trkpt lat="46.416509868577123" lon="11.71348387375474">
        <ele>1522.3900000000001</ele>
        <time>2019-03-08T08:31:13Z</time>
      </trkpt>
      <trkpt lat="46.416506767272949" lon="11.713499464094639">
        <ele>1522.8699999999999</ele>
        <time>2019-03-08T08:31:14Z</time>
      </trkpt>
      <trkpt lat="46.416474245488644" lon="11.713628629222512">
        <ele>1524.3099999999999</ele>
        <time>2019-03-08T08:31:25Z</time>
      </trkpt>
      <trkpt lat="46.416453458368778" lon="11.713700043037534">
        <ele>1523.8299999999999</ele>
        <time>2019-03-08T08:31:30Z</time>
      </trkpt>
      <trkpt lat="46.416448513045907" lon="11.713731558993459">
        <ele>1524.3099999999999</ele>
        <time>2019-03-08T08:31:32Z</time>
      </trkpt>
      <trkpt lat="46.416423283517361" lon="11.713785789906979">
        <ele>1523.8299999999999</ele>
        <time>2019-03-08T08:31:36Z</time>
      </trkpt>
      <trkpt lat="46.416388163343072" lon="11.713839014992118">
        <ele>1522.8699999999999</ele>
        <time>2019-03-08T08:31:40Z</time>
      </trkpt>
      <trkpt lat="46.416365448385477" lon="11.713893078267574">
        <ele>1522.8699999999999</ele>
        <time>2019-03-08T08:31:44Z</time>
      </trkpt>
      <trkpt lat="46.41635580919683" lon="11.713941022753716">
        <ele>1523.8299999999999</ele>
        <time>2019-03-08T08:31:48Z</time>
      </trkpt>
      <trkpt lat="46.416353043168783" lon="11.714106230065227">
        <ele>1524.79</ele>
        <time>2019-03-08T08:31:58Z</time>
      </trkpt>
      <trkpt lat="46.416329322382808" lon="11.714237658306956">
        <ele>1520.9400000000001</ele>
        <time>2019-03-08T08:32:05Z</time>
      </trkpt>
      <trkpt lat="46.416313229128718" lon="11.714295577257872">
        <ele>1521.4200000000001</ele>
        <time>2019-03-08T08:32:09Z</time>
      </trkpt>
      <trkpt lat="46.416292106732726" lon="11.714449469000101">
        <ele>1521.9000000000001</ele>
        <time>2019-03-08T08:32:19Z</time>
      </trkpt>
      <trkpt lat="46.416270649060607" lon="11.71450856141746">
        <ele>1521.4200000000001</ele>
        <time>2019-03-08T08:32:24Z</time>
      </trkpt>
      <trkpt lat="46.41624977812171" lon="11.714636133983731">
        <ele>1519.98</ele>
        <time>2019-03-08T08:32:34Z</time>
      </trkpt>
      <trkpt lat="46.416247682645917" lon="11.714647868648171">
        <ele>1519.98</ele>
        <time>2019-03-08T08:32:35Z</time>
      </trkpt>
      <trkpt lat="46.416222285479307" lon="11.714772339910269">
        <ele>1520.9400000000001</ele>
        <time>2019-03-08T08:32:44Z</time>
      </trkpt>
      <trkpt lat="46.416215496137738" lon="11.714904773980379">
        <ele>1519.5</ele>
        <time>2019-03-08T08:32:53Z</time>
      </trkpt>
      <trkpt lat="46.416233265772462" lon="11.715049780905247">
        <ele>1519.02</ele>
        <time>2019-03-08T08:33:03Z</time>
      </trkpt>
      <trkpt lat="46.416235277429223" lon="11.715082637965679">
        <ele>1519.02</ele>
        <time>2019-03-08T08:33:06Z</time>
      </trkpt>
      <trkpt lat="46.416247431188822" lon="11.715148268267512">
        <ele>1519.5</ele>
        <time>2019-03-08T08:33:11Z</time>
      </trkpt>
      <trkpt lat="46.416244246065617" lon="11.715219346806407">
        <ele>1519.98</ele>
        <time>2019-03-08T08:33:15Z</time>
      </trkpt>
      <trkpt lat="46.416250029578805" lon="11.715396456420422">
        <ele>1518.0599999999999</ele>
        <time>2019-03-08T08:33:27Z</time>
      </trkpt>
      <trkpt lat="46.416256567463279" lon="11.715445490553975">
        <ele>1517.0999999999999</ele>
        <time>2019-03-08T08:33:30Z</time>
      </trkpt>
      <trkpt lat="46.416281461715698" lon="11.715507684275508">
        <ele>1516.6199999999999</ele>
        <time>2019-03-08T08:33:35Z</time>
      </trkpt>
      <trkpt lat="46.416293866932392" lon="11.715602399781346">
        <ele>1516.1400000000001</ele>
        <time>2019-03-08T08:33:42Z</time>
      </trkpt>
      <trkpt lat="46.416308702901006" lon="11.715636514127254">
        <ele>1516.1400000000001</ele>
        <time>2019-03-08T08:33:45Z</time>
      </trkpt>
      <trkpt lat="46.416377015411854" lon="11.715732486918569">
        <ele>1515.1800000000001</ele>
        <time>2019-03-08T08:33:55Z</time>
      </trkpt>
      <trkpt lat="46.416432335972786" lon="11.715773222967982">
        <ele>1513.73</ele>
        <time>2019-03-08T08:34:05Z</time>
      </trkpt>
      <trkpt lat="46.416544569656253" lon="11.715792249888182">
        <ele>1513.73</ele>
        <time>2019-03-08T08:34:14Z</time>
      </trkpt>
      <trkpt lat="46.416635345667601" lon="11.715845558792353">
        <ele>1514.6900000000001</ele>
        <time>2019-03-08T08:34:22Z</time>
      </trkpt>
      <trkpt lat="46.416649175807834" lon="11.715852096676826">
        <ele>1514.6900000000001</ele>
        <time>2019-03-08T08:34:23Z</time>
      </trkpt>
      <trkpt lat="46.416658144444227" lon="11.71586156822741">
        <ele>1514.6900000000001</ele>
        <time>2019-03-08T08:34:24Z</time>
      </trkpt>
      <trkpt lat="46.416758643463254" lon="11.715991320088506">
        <ele>1514.21</ele>
        <time>2019-03-08T08:34:34Z</time>
      </trkpt>
      <trkpt lat="46.416778424754739" lon="11.716038677841425">
        <ele>1514.21</ele>
        <time>2019-03-08T08:34:37Z</time>
      </trkpt>
      <trkpt lat="46.416790746152401" lon="11.716062817722559">
        <ele>1514.21</ele>
        <time>2019-03-08T08:34:39Z</time>
      </trkpt>
      <trkpt lat="46.416821423918009" lon="11.716132974252105">
        <ele>1515.1800000000001</ele>
        <time>2019-03-08T08:34:45Z</time>
      </trkpt>
      <trkpt lat="46.416816143319011" lon="11.71617429703474">
        <ele>1514.21</ele>
        <time>2019-03-08T08:34:51Z</time>
      </trkpt>
      <trkpt lat="46.416810527443886" lon="11.716254092752934">
        <ele>1515.1800000000001</ele>
        <time>2019-03-08T08:34:56Z</time>
      </trkpt>
      <trkpt lat="46.416784627363086" lon="11.716362973675132">
        <ele>1515.1800000000001</ele>
        <time>2019-03-08T08:35:05Z</time>
      </trkpt>
      <trkpt lat="46.416784795001149" lon="11.716433465480804">
        <ele>1515.1800000000001</ele>
        <time>2019-03-08T08:35:10Z</time>
      </trkpt>
      <trkpt lat="46.41678093932569" lon="11.716448804363608">
        <ele>1515.1800000000001</ele>
        <time>2019-03-08T08:35:11Z</time>
      </trkpt>
      <trkpt lat="46.416740706190467" lon="11.71657252125442">
        <ele>1513.73</ele>
        <time>2019-03-08T08:35:20Z</time>
      </trkpt>
      <trkpt lat="46.41673693433404" lon="11.716588363051414">
        <ele>1513.73</ele>
        <time>2019-03-08T08:35:21Z</time>
      </trkpt>
      <trkpt lat="46.416731402277946" lon="11.716607976704836">
        <ele>1513.25</ele>
        <time>2019-03-08T08:35:22Z</time>
      </trkpt>
      <trkpt lat="46.416723690927029" lon="11.716623147949576">
        <ele>1513.25</ele>
        <time>2019-03-08T08:35:23Z</time>
      </trkpt>
      <trkpt lat="46.416707681491971" lon="11.716693304479122">
        <ele>1513.73</ele>
        <time>2019-03-08T08:35:28Z</time>
      </trkpt>
      <trkpt lat="46.416703322902322" lon="11.716708224266768">
        <ele>1513.73</ele>
        <time>2019-03-08T08:35:29Z</time>
      </trkpt>
      <trkpt lat="46.416699886322021" lon="11.716808388009667">
        <ele>1515.1800000000001</ele>
        <time>2019-03-08T08:35:38Z</time>
      </trkpt>
      <trkpt lat="46.416700389236212" lon="11.716825067996979">
        <ele>1515.1800000000001</ele>
        <time>2019-03-08T08:35:39Z</time>
      </trkpt>
      <trkpt lat="46.416695863008499" lon="11.716837557032704">
        <ele>1515.1800000000001</ele>
        <time>2019-03-08T08:35:40Z</time>
      </trkpt>
      <trkpt lat="46.416686726734042" lon="11.7168930452317">
        <ele>1515.1800000000001</ele>
        <time>2019-03-08T08:35:45Z</time>
      </trkpt>
      <trkpt lat="46.416684882715344" lon="11.716910814866424">
        <ele>1515.6600000000001</ele>
        <time>2019-03-08T08:35:46Z</time>
      </trkpt>
      <trkpt lat="46.416681278496981" lon="11.71692674048245">
        <ele>1515.6600000000001</ele>
        <time>2019-03-08T08:35:47Z</time>
      </trkpt>
      <trkpt lat="46.416672980412841" lon="11.716991448774934">
        <ele>1515.1800000000001</ele>
        <time>2019-03-08T08:35:52Z</time>
      </trkpt>
      <trkpt lat="46.416669376194477" lon="11.717007206752896">
        <ele>1515.1800000000001</ele>
        <time>2019-03-08T08:35:53Z</time>
      </trkpt>
      <trkpt lat="46.416660575196147" lon="11.71715741045773">
        <ele>1515.6600000000001</ele>
        <time>2019-03-08T08:36:05Z</time>
      </trkpt>
      <trkpt lat="46.416665185242891" lon="11.717268638312817">
        <ele>1516.1400000000001</ele>
        <time>2019-03-08T08:36:15Z</time>
      </trkpt>
      <trkpt lat="46.416676333174109" lon="11.717311888933182">
        <ele>1516.1400000000001</ele>
        <time>2019-03-08T08:36:18Z</time>
      </trkpt>
      <trkpt lat="46.416674824431539" lon="11.717328066006303">
        <ele>1516.1400000000001</ele>
        <time>2019-03-08T08:36:19Z</time>
      </trkpt>
      <trkpt lat="46.416678847745061" lon="11.717378525063396">
        <ele>1517.5799999999999</ele>
        <time>2019-03-08T08:36:23Z</time>
      </trkpt>
      <trkpt lat="46.416684966534376" lon="11.717405179515481">
        <ele>1517.5799999999999</ele>
        <time>2019-03-08T08:36:25Z</time>
      </trkpt>
      <trkpt lat="46.416698629036546" lon="11.717471145093441">
        <ele>1518.54</ele>
        <time>2019-03-08T08:36:31Z</time>
      </trkpt>
      <trkpt lat="46.416701059788465" lon="11.717489417642355">
        <ele>1519.02</ele>
        <time>2019-03-08T08:36:32Z</time>
      </trkpt>
      <trkpt lat="46.4167061727494" lon="11.717613050714135">
        <ele>1519.5</ele>
        <time>2019-03-08T08:36:42Z</time>
      </trkpt>
      <trkpt lat="46.416710698977113" lon="11.717624953016639">
        <ele>1519.98</ele>
        <time>2019-03-08T08:36:43Z</time>
      </trkpt>
      <trkpt lat="46.416715309023857" lon="11.71763920225203">
        <ele>1519.98</ele>
        <time>2019-03-08T08:36:44Z</time>
      </trkpt>
      <trkpt lat="46.416713800281286" lon="11.717653870582581">
        <ele>1520.46</ele>
        <time>2019-03-08T08:36:45Z</time>
      </trkpt>
      <trkpt lat="46.416721595451236" lon="11.71775696799159">
        <ele>1520.46</ele>
        <time>2019-03-08T08:36:53Z</time>
      </trkpt>
      <trkpt lat="46.416724110022187" lon="11.717865262180567">
        <ele>1521.4200000000001</ele>
        <time>2019-03-08T08:37:02Z</time>
      </trkpt>
      <trkpt lat="46.416729306802154" lon="11.717892335727811">
        <ele>1521.9000000000001</ele>
        <time>2019-03-08T08:37:04Z</time>
      </trkpt>
      <trkpt lat="46.41672964207828" lon="11.717909518629313">
        <ele>1522.3900000000001</ele>
        <time>2019-03-08T08:37:05Z</time>
      </trkpt>
      <trkpt lat="46.416734168305993" lon="11.717977076768875">
        <ele>1522.8699999999999</ele>
        <time>2019-03-08T08:37:10Z</time>
      </trkpt>
      <trkpt lat="46.416730312630534" lon="11.718066763132811">
        <ele>1523.3499999999999</ele>
        <time>2019-03-08T08:37:17Z</time>
      </trkpt>
      <trkpt lat="46.416725786402822" lon="11.718110684305429">
        <ele>1523.3499999999999</ele>
        <time>2019-03-08T08:37:21Z</time>
      </trkpt>
      <trkpt lat="46.416729474440217" lon="11.718127867206931">
        <ele>1523.8299999999999</ele>
        <time>2019-03-08T08:37:22Z</time>
      </trkpt>
      <trkpt lat="46.416719248518348" lon="11.718286788091063">
        <ele>1523.3499999999999</ele>
        <time>2019-03-08T08:37:33Z</time>
      </trkpt>
      <trkpt lat="46.416727043688297" lon="11.718403631821275">
        <ele>1524.79</ele>
        <time>2019-03-08T08:37:43Z</time>
      </trkpt>
      <trkpt lat="46.416725283488631" lon="11.718466747552156">
        <ele>1524.79</ele>
        <time>2019-03-08T08:37:47Z</time>
      </trkpt>
      <trkpt lat="46.416722852736712" lon="11.718533718958497">
        <ele>1525.27</ele>
        <time>2019-03-08T08:37:52Z</time>
      </trkpt>
      <trkpt lat="46.41671790741384" lon="11.71854511834681">
        <ele>1525.27</ele>
        <time>2019-03-08T08:37:53Z</time>
      </trkpt>
      <trkpt lat="46.41672084107995" lon="11.718586524948478">
        <ele>1525.75</ele>
        <time>2019-03-08T08:37:56Z</time>
      </trkpt>
      <trkpt lat="46.416720086708665" lon="11.718602199107409">
        <ele>1525.75</ele>
        <time>2019-03-08T08:37:57Z</time>
      </trkpt>
      <trkpt lat="46.416715979576111" lon="11.718641761690378">
        <ele>1526.71</ele>
        <time>2019-03-08T08:38:00Z</time>
      </trkpt>
      <trkpt lat="46.416709525510669" lon="11.718779224902391">
        <ele>1526.71</ele>
        <time>2019-03-08T08:38:10Z</time>
      </trkpt>
      <trkpt lat="46.41670910641551" lon="11.71892624348402">
        <ele>1526.71</ele>
        <time>2019-03-08T08:38:21Z</time>
      </trkpt>
      <trkpt lat="46.416715225204825" lon="11.719048283994198">
        <ele>1528.6300000000001</ele>
        <time>2019-03-08T08:38:31Z</time>
      </trkpt>
      <trkpt lat="46.416721343994141" lon="11.719168480485678">
        <ele>1529.1099999999999</ele>
        <time>2019-03-08T08:38:40Z</time>
      </trkpt>
      <trkpt lat="46.416726289317012" lon="11.7192018404603">
        <ele>1529.5899999999999</ele>
        <time>2019-03-08T08:38:42Z</time>
      </trkpt>
      <trkpt lat="46.416707010939717" lon="11.719252048060298">
        <ele>1530.5599999999999</ele>
        <time>2019-03-08T08:38:53Z</time>
      </trkpt>
      <trkpt lat="46.416703406721354" lon="11.719292616471648">
        <ele>1532.48</ele>
        <time>2019-03-08T08:39:03Z</time>
      </trkpt>
      <trkpt lat="46.416723020374775" lon="11.719375094398856">
        <ele>1532</ele>
        <time>2019-03-08T08:39:13Z</time>
      </trkpt>
      <trkpt lat="46.416713045910001" lon="11.719410885125399">
        <ele>1532</ele>
        <time>2019-03-08T08:39:26Z</time>
      </trkpt>
      <trkpt lat="46.416742466390133" lon="11.719452040269971">
        <ele>1532.96</ele>
        <time>2019-03-08T08:39:31Z</time>
      </trkpt>
      <trkpt lat="46.416730983182788" lon="11.719518005847931">
        <ele>1534.4000000000001</ele>
        <time>2019-03-08T08:40:30Z</time>
      </trkpt>
      <trkpt lat="46.416676081717014" lon="11.719605345278978">
        <ele>1533.9200000000001</ele>
        <time>2019-03-08T08:40:41Z</time>
      </trkpt>
      <trkpt lat="46.416663005948067" lon="11.719719422981143">
        <ele>1533.9200000000001</ele>
        <time>2019-03-08T08:40:51Z</time>
      </trkpt>
      <trkpt lat="46.416678428649902" lon="11.719841547310352">
        <ele>1534.4000000000001</ele>
        <time>2019-03-08T08:41:01Z</time>
      </trkpt>
      <trkpt lat="46.416687564924359" lon="11.719922265037894">
        <ele>1535.3599999999999</ele>
        <time>2019-03-08T08:41:08Z</time>
      </trkpt>
      <trkpt lat="46.416704831644893" lon="11.72001882456243">
        <ele>1535.3599999999999</ele>
        <time>2019-03-08T08:41:16Z</time>
      </trkpt>
      <trkpt lat="46.416723020374775" lon="11.720078336074948">
        <ele>1535.8399999999999</ele>
        <time>2019-03-08T08:41:20Z</time>
      </trkpt>
      <trkpt lat="46.416734084486961" lon="11.7201360873878">
        <ele>1535.3599999999999</ele>
        <time>2019-03-08T08:41:25Z</time>
      </trkpt>
      <trkpt lat="46.416741460561752" lon="11.720224767923355">
        <ele>1537.29</ele>
        <time>2019-03-08T08:41:33Z</time>
      </trkpt>
      <trkpt lat="46.41674967482686" lon="11.720308251678944">
        <ele>1538.73</ele>
        <time>2019-03-08T08:41:42Z</time>
      </trkpt>
      <trkpt lat="46.416740790009499" lon="11.720332810655236">
        <ele>1537.77</ele>
        <time>2019-03-08T08:41:50Z</time>
      </trkpt>
      <trkpt lat="46.416766019538045" lon="11.720374301075935">
        <ele>1539.6900000000001</ele>
        <time>2019-03-08T08:48:12Z</time>
      </trkpt>
      <trkpt lat="46.416755877435207" lon="11.720426185056567">
        <ele>1538.73</ele>
        <time>2019-03-08T08:49:54Z</time>
      </trkpt>
      <trkpt lat="46.41675990074873" lon="11.72044487670064">
        <ele>1537.77</ele>
        <time>2019-03-08T08:50:04Z</time>
      </trkpt>
      <trkpt lat="46.416753195226192" lon="11.720467256382108">
        <ele>1538.25</ele>
        <time>2019-03-08T08:50:06Z</time>
      </trkpt>
      <trkpt lat="46.416731486096978" lon="11.720491396263242">
        <ele>1537.29</ele>
        <time>2019-03-08T08:50:09Z</time>
      </trkpt>
      <trkpt lat="46.41672033816576" lon="11.720525845885277">
        <ele>1537.77</ele>
        <time>2019-03-08T08:50:14Z</time>
      </trkpt>
      <trkpt lat="46.416681110858917" lon="11.720635481178761">
        <ele>1536.8</ele>
        <time>2019-03-08T08:50:23Z</time>
      </trkpt>
      <trkpt lat="46.416638363152742" lon="11.720741847530007">
        <ele>1537.29</ele>
        <time>2019-03-08T08:50:34Z</time>
      </trkpt>
      <trkpt lat="46.416606763377786" lon="11.720869923010468">
        <ele>1538.73</ele>
        <time>2019-03-08T08:50:45Z</time>
      </trkpt>
      <trkpt lat="46.416570218279958" lon="11.721001770347357">
        <ele>1539.21</ele>
        <time>2019-03-08T08:50:57Z</time>
      </trkpt>
      <trkpt lat="46.416508946567774" lon="11.721117692068219">
        <ele>1539.6900000000001</ele>
        <time>2019-03-08T08:51:09Z</time>
      </trkpt>
      <trkpt lat="46.416459577158093" lon="11.721208803355694">
        <ele>1539.6900000000001</ele>
        <time>2019-03-08T08:51:20Z</time>
      </trkpt>
      <trkpt lat="46.416377853602171" lon="11.721302093937993">
        <ele>1539.21</ele>
        <time>2019-03-08T08:51:32Z</time>
      </trkpt>
      <trkpt lat="46.416326388716698" lon="11.721374513581395">
        <ele>1539.6900000000001</ele>
        <time>2019-03-08T08:51:41Z</time>
      </trkpt>
      <trkpt lat="46.41630400903523" lon="11.72144802287221">
        <ele>1541.1300000000001</ele>
        <time>2019-03-08T08:51:47Z</time>
      </trkpt>
      <trkpt lat="46.416247934103012" lon="11.721562184393406">
        <ele>1543.53</ele>
        <time>2019-03-08T08:51:58Z</time>
      </trkpt>
      <trkpt lat="46.416236534714699" lon="11.721593616530299">
        <ele>1544.5</ele>
        <time>2019-03-08T08:52:01Z</time>
      </trkpt>
      <trkpt lat="46.416157241910696" lon="11.721741976216435">
        <ele>1545.9400000000001</ele>
        <time>2019-03-08T08:52:14Z</time>
      </trkpt>
      <trkpt lat="46.416104771196842" lon="11.721826381981373">
        <ele>1546.4200000000001</ele>
        <time>2019-03-08T08:52:23Z</time>
      </trkpt>
      <trkpt lat="46.416034949943423" lon="11.721945572644472">
        <ele>1546.9000000000001</ele>
        <time>2019-03-08T08:52:35Z</time>
      </trkpt>
      <trkpt lat="46.415993208065629" lon="11.722035091370344">
        <ele>1547.8599999999999</ele>
        <time>2019-03-08T08:52:45Z</time>
      </trkpt>
      <trkpt lat="46.415938306599855" lon="11.722136177122593">
        <ele>1549.3</ele>
        <time>2019-03-08T08:52:56Z</time>
      </trkpt>
      <trkpt lat="46.415932103991508" lon="11.722150845453143">
        <ele>1549.3</ele>
        <time>2019-03-08T08:52:57Z</time>
      </trkpt>
      <trkpt lat="46.415857588872313" lon="11.722271963953972">
        <ele>1552.1900000000001</ele>
        <time>2019-03-08T08:53:09Z</time>
      </trkpt>
      <trkpt lat="46.415855241939425" lon="11.722278250381351">
        <ele>1552.1900000000001</ele>
        <time>2019-03-08T08:53:10Z</time>
      </trkpt>
      <trkpt lat="46.415790785104036" lon="11.722364583984017">
        <ele>1554.1099999999999</ele>
        <time>2019-03-08T08:53:21Z</time>
      </trkpt>
      <trkpt lat="46.415758347138762" lon="11.722433986142278">
        <ele>1556.03</ele>
        <time>2019-03-08T08:53:28Z</time>
      </trkpt>
      <trkpt lat="46.415710737928748" lon="11.722527276724577">
        <ele>1556.51</ele>
        <time>2019-03-08T08:53:38Z</time>
      </trkpt>
      <trkpt lat="46.415711995214224" lon="11.722616460174322">
        <ele>1557.47</ele>
        <time>2019-03-08T08:53:45Z</time>
      </trkpt>
      <trkpt lat="46.415723143145442" lon="11.722734058275819">
        <ele>1560.8399999999999</ele>
        <time>2019-03-08T08:53:53Z</time>
      </trkpt>
      <trkpt lat="46.415667152032256" lon="11.722883591428399">
        <ele>1562.76</ele>
        <time>2019-03-08T08:54:04Z</time>
      </trkpt>
      <trkpt lat="46.415659692138433" lon="11.722983168438077">
        <ele>1565.1600000000001</ele>
        <time>2019-03-08T08:54:15Z</time>
      </trkpt>
      <trkpt lat="46.415656339377165" lon="11.723119877278805">
        <ele>1567.5699999999999</ele>
        <time>2019-03-08T08:54:25Z</time>
      </trkpt>
      <trkpt lat="46.415653238072991" lon="11.723132198676467">
        <ele>1567.5699999999999</ele>
        <time>2019-03-08T08:54:26Z</time>
      </trkpt>
      <trkpt lat="46.41563362441957" lon="11.723279887810349">
        <ele>1570.9300000000001</ele>
        <time>2019-03-08T08:54:38Z</time>
      </trkpt>
      <trkpt lat="46.415621554479003" lon="11.723410645499825">
        <ele>1570.9300000000001</ele>
        <time>2019-03-08T08:54:50Z</time>
      </trkpt>
      <trkpt lat="46.41563655808568" lon="11.72356428578496">
        <ele>1571.8900000000001</ele>
        <time>2019-03-08T08:55:01Z</time>
      </trkpt>
      <trkpt lat="46.415640916675329" lon="11.723714238032699">
        <ele>1572.8499999999999</ele>
        <time>2019-03-08T08:55:13Z</time>
      </trkpt>
      <trkpt lat="46.41568249091506" lon="11.723809875547886">
        <ele>1571.8900000000001</ele>
        <time>2019-03-08T08:55:22Z</time>
      </trkpt>
      <trkpt lat="46.415687268599868" lon="11.723949937149882">
        <ele>1571.4100000000001</ele>
        <time>2019-03-08T08:55:33Z</time>
      </trkpt>
      <trkpt lat="46.415707468986511" lon="11.724020345136523">
        <ele>1571.8900000000001</ele>
        <time>2019-03-08T08:55:40Z</time>
      </trkpt>
      <trkpt lat="46.415708474814892" lon="11.724108355119824">
        <ele>1571.8900000000001</ele>
        <time>2019-03-08T08:55:47Z</time>
      </trkpt>
      <trkpt lat="46.415694141760468" lon="11.724168704822659">
        <ele>1571.8900000000001</ele>
        <time>2019-03-08T08:55:51Z</time>
      </trkpt>
      <trkpt lat="46.41570302657783" lon="11.72421514056623">
        <ele>1571.8900000000001</ele>
        <time>2019-03-08T08:55:54Z</time>
      </trkpt>
      <trkpt lat="46.41566296108067" lon="11.724345227703452">
        <ele>1572.8499999999999</ele>
        <time>2019-03-08T08:56:05Z</time>
      </trkpt>
      <trkpt lat="46.415661619976163" lon="11.724385879933834">
        <ele>1572.3699999999999</ele>
        <time>2019-03-08T08:56:08Z</time>
      </trkpt>
      <trkpt lat="46.41563655808568" lon="11.724498365074396">
        <ele>1572.8499999999999</ele>
        <time>2019-03-08T08:56:17Z</time>
      </trkpt>
      <trkpt lat="46.41559598967433" lon="11.724623339250684">
        <ele>1573.8199999999999</ele>
        <time>2019-03-08T08:56:29Z</time>
      </trkpt>
      <trkpt lat="46.415559947490692" lon="11.724723754450679">
        <ele>1573.8199999999999</ele>
        <time>2019-03-08T08:56:39Z</time>
      </trkpt>
      <trkpt lat="46.415524072945118" lon="11.724796341732144">
        <ele>1574.78</ele>
        <time>2019-03-08T08:56:49Z</time>
      </trkpt>
      <trkpt lat="46.415517786517739" lon="11.724778572097421">
        <ele>1572.8499999999999</ele>
        <time>2019-03-08T08:57:02Z</time>
      </trkpt>
      <trkpt lat="46.41550806351006" lon="11.724789049476385">
        <ele>1571.8900000000001</ele>
        <time>2019-03-08T08:57:04Z</time>
      </trkpt>
      <trkpt lat="46.415498843416572" lon="11.724845375865698">
        <ele>1574.78</ele>
        <time>2019-03-08T08:57:12Z</time>
      </trkpt>
      <trkpt lat="46.415476882830262" lon="11.724883345887065">
        <ele>1576.7</ele>
        <time>2019-03-08T08:57:17Z</time>
      </trkpt>
      <trkpt lat="46.415412342175841" lon="11.724998680874705">
        <ele>1577.1800000000001</ele>
        <time>2019-03-08T08:57:30Z</time>
      </trkpt>
      <trkpt lat="46.415354674682021" lon="11.725112674757838">
        <ele>1576.7</ele>
        <time>2019-03-08T08:57:40Z</time>
      </trkpt>
      <trkpt lat="46.415331121534109" lon="11.725193141028285">
        <ele>1578.1400000000001</ele>
        <time>2019-03-08T08:57:52Z</time>
      </trkpt>
      <trkpt lat="46.415337156504393" lon="11.725180232897401">
        <ele>1575.26</ele>
        <time>2019-03-08T08:57:59Z</time>
      </trkpt>
      <trkpt lat="46.415347466245294" lon="11.725198170170188">
        <ele>1576.22</ele>
        <time>2019-03-08T08:58:12Z</time>
      </trkpt>
      <trkpt lat="46.415396584197879" lon="11.725268913432956">
        <ele>1577.6600000000001</ele>
        <time>2019-03-08T08:58:22Z</time>
      </trkpt>
      <trkpt lat="46.415342520922422" lon="11.725416351109743">
        <ele>1577.1800000000001</ele>
        <time>2019-03-08T08:58:33Z</time>
      </trkpt>
      <trkpt lat="46.415327433496714" lon="11.725518023595214">
        <ele>1578.1400000000001</ele>
        <time>2019-03-08T08:58:43Z</time>
      </trkpt>
      <trkpt lat="46.41529792919755" lon="11.725626904517412">
        <ele>1578.6199999999999</ele>
        <time>2019-03-08T08:58:54Z</time>
      </trkpt>
      <trkpt lat="46.41526909545064" lon="11.725727487355471">
        <ele>1580.0599999999999</ele>
        <time>2019-03-08T08:59:05Z</time>
      </trkpt>
      <trkpt lat="46.415250236168504" lon="11.725811306387186">
        <ele>1581.51</ele>
        <time>2019-03-08T08:59:15Z</time>
      </trkpt>
      <trkpt lat="46.415281668305397" lon="11.725891772657633">
        <ele>1581.51</ele>
        <time>2019-03-08T08:59:25Z</time>
      </trkpt>
      <trkpt lat="46.415274795144796" lon="11.726000485941768">
        <ele>1582.47</ele>
        <time>2019-03-08T08:59:33Z</time>
      </trkpt>
      <trkpt lat="46.415199944749475" lon="11.726104002445936">
        <ele>1581.03</ele>
        <time>2019-03-08T08:59:46Z</time>
      </trkpt>
      <trkpt lat="46.415157867595553" lon="11.726201064884663">
        <ele>1581.51</ele>
        <time>2019-03-08T08:59:58Z</time>
      </trkpt>
      <trkpt lat="46.415150742977858" lon="11.726296870037913">
        <ele>1582.95</ele>
        <time>2019-03-08T09:00:08Z</time>
      </trkpt>
      <trkpt lat="46.415123082697392" lon="11.726398374885321">
        <ele>1583.4300000000001</ele>
        <time>2019-03-08T09:00:19Z</time>
      </trkpt>
      <trkpt lat="46.415124339982867" lon="11.726449420675635">
        <ele>1586.3099999999999</ele>
        <time>2019-03-08T09:00:28Z</time>
      </trkpt>
      <trkpt lat="46.415113108232617" lon="11.726492503657937">
        <ele>1588.72</ele>
        <time>2019-03-08T09:00:36Z</time>
      </trkpt>
      <trkpt lat="46.415045969188213" lon="11.726595517247915">
        <ele>1591.1199999999999</ele>
        <time>2019-03-08T09:00:48Z</time>
      </trkpt>
      <trkpt lat="46.415023505687714" lon="11.726768435910344">
        <ele>1593.52</ele>
        <time>2019-03-08T09:01:03Z</time>
      </trkpt>
      <trkpt lat="46.415017722174525" lon="11.726905396208167">
        <ele>1594</ele>
        <time>2019-03-08T09:01:15Z</time>
      </trkpt>
      <trkpt lat="46.415000623092055" lon="11.726992065086961">
        <ele>1596.8900000000001</ele>
        <time>2019-03-08T09:01:24Z</time>
      </trkpt>
      <trkpt lat="46.414965754374862" lon="11.727106561884284">
        <ele>1599.29</ele>
        <time>2019-03-08T09:01:36Z</time>
      </trkpt>
      <trkpt lat="46.414951421320438" lon="11.727133970707655">
        <ele>1598.8099999999999</ele>
        <time>2019-03-08T09:01:39Z</time>
      </trkpt>
      <trkpt lat="46.414930382743478" lon="11.727275792509317">
        <ele>1599.77</ele>
        <time>2019-03-08T09:01:50Z</time>
      </trkpt>
      <trkpt lat="46.414923844859004" lon="11.727404873818159">
        <ele>1599.29</ele>
        <time>2019-03-08T09:02:01Z</time>
      </trkpt>
      <trkpt lat="46.414939435198903" lon="11.727479975670576">
        <ele>1598.3299999999999</ele>
        <time>2019-03-08T09:02:08Z</time>
      </trkpt>
      <trkpt lat="46.414968185126781" lon="11.72760184854269">
        <ele>1601.6900000000001</ele>
        <time>2019-03-08T09:02:17Z</time>
      </trkpt>
      <trkpt lat="46.414992241188884" lon="11.727730929851532">
        <ele>1603.6199999999999</ele>
        <time>2019-03-08T09:02:28Z</time>
      </trkpt>
      <trkpt lat="46.415006406605244" lon="11.727759009227157">
        <ele>1605.0599999999999</ele>
        <time>2019-03-08T09:02:32Z</time>
      </trkpt>
      <trkpt lat="46.415041442960501" lon="11.727901920676231">
        <ele>1608.4200000000001</ele>
        <time>2019-03-08T09:02:44Z</time>
      </trkpt>
      <trkpt lat="46.41504630446434" lon="11.727955229580402">
        <ele>1611.3099999999999</ele>
        <time>2019-03-08T09:02:50Z</time>
      </trkpt>
      <trkpt lat="46.415026355534792" lon="11.727995043620467">
        <ele>1612.75</ele>
        <time>2019-03-08T09:02:55Z</time>
      </trkpt>
      <trkpt lat="46.415023673325777" lon="11.728057572618127">
        <ele>1615.6300000000001</ele>
        <time>2019-03-08T09:03:00Z</time>
      </trkpt>
      <trkpt lat="46.415013782680035" lon="11.728190928697586">
        <ele>1617.0699999999999</ele>
        <time>2019-03-08T09:03:12Z</time>
      </trkpt>
      <trkpt lat="46.414970364421606" lon="11.72834699973464">
        <ele>1619.48</ele>
        <time>2019-03-08T09:03:25Z</time>
      </trkpt>
      <trkpt lat="46.414928119629622" lon="11.728485971689224">
        <ele>1620.4400000000001</ele>
        <time>2019-03-08T09:03:37Z</time>
      </trkpt>
      <trkpt lat="46.414855783805251" lon="11.728594182059169">
        <ele>1619.48</ele>
        <time>2019-03-08T09:03:49Z</time>
      </trkpt>
      <trkpt lat="46.414828542619944" lon="11.728633157908916">
        <ele>1619.48</ele>
        <time>2019-03-08T09:03:52Z</time>
      </trkpt>
      <trkpt lat="46.41474287956953" lon="11.728740446269512">
        <ele>1618.52</ele>
        <time>2019-03-08T09:04:06Z</time>
      </trkpt>
      <trkpt lat="46.414668029174209" lon="11.728811021894217">
        <ele>1618.04</ele>
        <time>2019-03-08T09:04:15Z</time>
      </trkpt>
      <trkpt lat="46.414629053324461" lon="11.728839436545968">
        <ele>1618.52</ele>
        <time>2019-03-08T09:04:21Z</time>
      </trkpt>
      <trkpt lat="46.414539283141494" lon="11.728909760713577">
        <ele>1619.48</ele>
        <time>2019-03-08T09:04:32Z</time>
      </trkpt>
      <trkpt lat="46.414461750537157" lon="11.72897195443511">
        <ele>1620.4400000000001</ele>
        <time>2019-03-08T09:04:43Z</time>
      </trkpt>
      <trkpt lat="46.414408273994923" lon="11.729024341329932">
        <ele>1620.9200000000001</ele>
        <time>2019-03-08T09:04:54Z</time>
      </trkpt>
      <trkpt lat="46.41432705335319" lon="11.729146130383015">
        <ele>1623.8</ele>
        <time>2019-03-08T09:05:08Z</time>
      </trkpt>
      <trkpt lat="46.414262931793928" lon="11.729231122881174">
        <ele>1623.3199999999999</ele>
        <time>2019-03-08T09:05:20Z</time>
      </trkpt>
      <trkpt lat="46.41424247995019" lon="11.729237157851458">
        <ele>1623.8</ele>
        <time>2019-03-08T09:05:24Z</time>
      </trkpt>
      <trkpt lat="46.414174167439342" lon="11.729193991050124">
        <ele>1626.6900000000001</ele>
        <time>2019-03-08T09:05:32Z</time>
      </trkpt>
      <trkpt lat="46.414114236831665" lon="11.729125007987022">
        <ele>1630.05</ele>
        <time>2019-03-08T09:05:41Z</time>
      </trkpt>
      <trkpt lat="46.414108201861382" lon="11.729107657447457">
        <ele>1633.4200000000001</ele>
        <time>2019-03-08T09:05:49Z</time>
      </trkpt>
      <trkpt lat="46.414080709218979" lon="11.729119140654802">
        <ele>1636.78</ele>
        <time>2019-03-08T09:05:53Z</time>
      </trkpt>
      <trkpt lat="46.414078697562218" lon="11.729121571406722">
        <ele>1637.26</ele>
        <time>2019-03-08T09:05:54Z</time>
      </trkpt>
      <trkpt lat="46.414073333144188" lon="11.729020904749632">
        <ele>1639.1900000000001</ele>
        <time>2019-03-08T09:06:12Z</time>
      </trkpt>
      <trkpt lat="46.414113231003284" lon="11.728866929188371">
        <ele>1638.7</ele>
        <time>2019-03-08T09:06:23Z</time>
      </trkpt>
      <trkpt lat="46.414117338135839" lon="11.728838346898556">
        <ele>1637.74</ele>
        <time>2019-03-08T09:06:26Z</time>
      </trkpt>
      <trkpt lat="46.414137706160545" lon="11.728733824566007">
        <ele>1639.1900000000001</ele>
        <time>2019-03-08T09:06:35Z</time>
      </trkpt>
      <trkpt lat="46.414142567664385" lon="11.728584207594395">
        <ele>1641.1099999999999</ele>
        <time>2019-03-08T09:06:47Z</time>
      </trkpt>
      <trkpt lat="46.414144663140178" lon="11.728501645848155">
        <ele>1641.5899999999999</ele>
        <time>2019-03-08T09:06:53Z</time>
      </trkpt>
      <trkpt lat="46.414126055315137" lon="11.728405924513936">
        <ele>1643.99</ele>
        <time>2019-03-08T09:07:02Z</time>
      </trkpt>
      <trkpt lat="46.41410518437624" lon="11.728284554556012">
        <ele>1644.47</ele>
        <time>2019-03-08T09:07:12Z</time>
      </trkpt>
      <trkpt lat="46.414082888513803" lon="11.728189503774047">
        <ele>1646.4000000000001</ele>
        <time>2019-03-08T09:07:22Z</time>
      </trkpt>
      <trkpt lat="46.414072327315807" lon="11.728043491020799">
        <ele>1645.4300000000001</ele>
        <time>2019-03-08T09:07:34Z</time>
      </trkpt>
      <trkpt lat="46.414096467196941" lon="11.727856071665883">
        <ele>1643.99</ele>
        <time>2019-03-08T09:07:47Z</time>
      </trkpt>
      <trkpt lat="46.414102418348193" lon="11.727796476334333">
        <ele>1642.0699999999999</ele>
        <time>2019-03-08T09:07:51Z</time>
      </trkpt>
      <trkpt lat="46.414107950404286" lon="11.727675190195441">
        <ele>1639.1900000000001</ele>
        <time>2019-03-08T09:08:01Z</time>
      </trkpt>
      <trkpt lat="46.414121780544519" lon="11.727634286507964">
        <ele>1640.1500000000001</ele>
        <time>2019-03-08T09:08:05Z</time>
      </trkpt>
      <trkpt lat="46.414149524644017" lon="11.727482071146369">
        <ele>1639.6700000000001</ele>
        <time>2019-03-08T09:08:16Z</time>
      </trkpt>
      <trkpt lat="46.414156733080745" lon="11.727388277649879">
        <ele>1641.5899999999999</ele>
        <time>2019-03-08T09:08:27Z</time>
      </trkpt>
      <trkpt lat="46.414101077243686" lon="11.727395318448544">
        <ele>1641.1099999999999</ele>
        <time>2019-03-08T09:08:39Z</time>
      </trkpt>
      <trkpt lat="46.414118930697441" lon="11.727516688406467">
        <ele>1639.6700000000001</ele>
        <time>2019-03-08T09:08:50Z</time>
      </trkpt>
      <trkpt lat="46.414111889898777" lon="11.727540660649538">
        <ele>1638.7</ele>
        <time>2019-03-08T09:08:52Z</time>
      </trkpt>
      <trkpt lat="46.414065957069397" lon="11.727665131911635">
        <ele>1637.26</ele>
        <time>2019-03-08T09:09:04Z</time>
      </trkpt>
      <trkpt lat="46.414017677307129" lon="11.727768061682582">
        <ele>1637.26</ele>
        <time>2019-03-08T09:09:14Z</time>
      </trkpt>
      <trkpt lat="46.413984065875411" lon="11.727883061394095">
        <ele>1636.3</ele>
        <time>2019-03-08T09:09:45Z</time>
      </trkpt>
      <trkpt lat="46.413967721164227" lon="11.727935448288918">
        <ele>1637.74</ele>
        <time>2019-03-08T09:09:52Z</time>
      </trkpt>
      <trkpt lat="46.413949951529503" lon="11.728029241785407">
        <ele>1638.7</ele>
        <time>2019-03-08T09:10:00Z</time>
      </trkpt>
      <trkpt lat="46.413942826911807" lon="11.728075426071882">
        <ele>1639.1900000000001</ele>
        <time>2019-03-08T09:10:10Z</time>
      </trkpt>
      <trkpt lat="46.413932433351874" lon="11.728072492405772">
        <ele>1640.1500000000001</ele>
        <time>2019-03-08T09:10:17Z</time>
      </trkpt>
      <trkpt lat="46.413937881588936" lon="11.72817500308156">
        <ele>1643.03</ele>
        <time>2019-03-08T09:10:25Z</time>
      </trkpt>
      <trkpt lat="46.413906449452043" lon="11.728222444653511">
        <ele>1642.55</ele>
        <time>2019-03-08T09:10:29Z</time>
      </trkpt>
      <trkpt lat="46.413877280429006" lon="11.72830056399107">
        <ele>1644.47</ele>
        <time>2019-03-08T09:10:35Z</time>
      </trkpt>
      <trkpt lat="46.41381936147809" lon="11.728454036638141">
        <ele>1645.9100000000001</ele>
        <time>2019-03-08T09:10:47Z</time>
      </trkpt>
      <trkpt lat="46.41375876031816" lon="11.728610694408417">
        <ele>1646.4000000000001</ele>
        <time>2019-03-08T09:10:59Z</time>
      </trkpt>
      <trkpt lat="46.413713917136192" lon="11.728746732696891">
        <ele>1647.8399999999999</ele>
        <time>2019-03-08T09:11:11Z</time>
      </trkpt>
      <trkpt lat="46.413707546889782" lon="11.728754695504904">
        <ele>1647.8399999999999</ele>
        <time>2019-03-08T09:11:12Z</time>
      </trkpt>
      <trkpt lat="46.413652645424008" lon="11.728847902268171">
        <ele>1648.8</ele>
        <time>2019-03-08T09:11:24Z</time>
      </trkpt>
      <trkpt lat="46.413605371490121" lon="11.728945299983025">
        <ele>1649.76</ele>
        <time>2019-03-08T09:11:35Z</time>
      </trkpt>
      <trkpt lat="46.413546530529857" lon="11.729034231975675">
        <ele>1649.28</ele>
        <time>2019-03-08T09:11:46Z</time>
      </trkpt>
      <trkpt lat="46.413515014573932" lon="11.729082427918911">
        <ele>1648.3199999999999</ele>
        <time>2019-03-08T09:11:56Z</time>
      </trkpt>
      <trkpt lat="46.41352423466742" lon="11.729114279150963">
        <ele>1648.8</ele>
        <time>2019-03-08T09:12:04Z</time>
      </trkpt>
      <trkpt lat="46.413498083129525" lon="11.729196589440107">
        <ele>1651.2</ele>
        <time>2019-03-08T09:12:11Z</time>
      </trkpt>
      <trkpt lat="46.413481738418341" lon="11.729353666305542">
        <ele>1653.1199999999999</ele>
        <time>2019-03-08T09:12:21Z</time>
      </trkpt>
      <trkpt lat="46.413483750075102" lon="11.729369005188346">
        <ele>1653.1199999999999</ele>
        <time>2019-03-08T09:12:22Z</time>
      </trkpt>
      <trkpt lat="46.413518199697137" lon="11.729442598298192">
        <ele>1656.01</ele>
        <time>2019-03-08T09:13:07Z</time>
      </trkpt>
      <trkpt lat="46.41352373175323" lon="11.729463972151279">
        <ele>1655.53</ele>
        <time>2019-03-08T09:13:09Z</time>
      </trkpt>
      <trkpt lat="46.413507638499141" lon="11.729609565809369">
        <ele>1655.05</ele>
        <time>2019-03-08T09:13:20Z</time>
      </trkpt>
      <trkpt lat="46.413477463647723" lon="11.729647368192673">
        <ele>1654.0899999999999</ele>
        <time>2019-03-08T09:13:31Z</time>
      </trkpt>
      <trkpt lat="46.413456425070763" lon="11.729641333222389">
        <ele>1656.97</ele>
        <time>2019-03-08T09:13:46Z</time>
      </trkpt>
      <trkpt lat="46.413465980440378" lon="11.729737054556608">
        <ele>1656.49</ele>
        <time>2019-03-08T09:13:59Z</time>
      </trkpt>
      <trkpt lat="46.413453575223684" lon="11.729782819747925">
        <ele>1656.49</ele>
        <time>2019-03-08T09:14:04Z</time>
      </trkpt>
      <trkpt lat="46.413437398150563" lon="11.729851383715868">
        <ele>1656.97</ele>
        <time>2019-03-08T09:14:09Z</time>
      </trkpt>
      <trkpt lat="46.413392554968596" lon="11.729985997080803">
        <ele>1657.45</ele>
        <time>2019-03-08T09:14:21Z</time>
      </trkpt>
      <trkpt lat="46.413348969072104" lon="11.730094961822033">
        <ele>1658.4100000000001</ele>
        <time>2019-03-08T09:14:32Z</time>
      </trkpt>
      <trkpt lat="46.413346957415342" lon="11.730110216885805">
        <ele>1658.4100000000001</ele>
        <time>2019-03-08T09:14:34Z</time>
      </trkpt>
      <trkpt lat="46.413313262164593" lon="11.730246925726533">
        <ele>1659.8499999999999</ele>
        <time>2019-03-08T09:14:45Z</time>
      </trkpt>
      <trkpt lat="46.413291217759252" lon="11.730371564626694">
        <ele>1659.3699999999999</ele>
        <time>2019-03-08T09:14:57Z</time>
      </trkpt>
      <trkpt lat="46.413263138383627" lon="11.730455467477441">
        <ele>1661.3</ele>
        <time>2019-03-08T09:15:06Z</time>
      </trkpt>
      <trkpt lat="46.41327939927578" lon="11.730596283450723">
        <ele>1661.78</ele>
        <time>2019-03-08T09:15:19Z</time>
      </trkpt>
      <trkpt lat="46.413287781178951" lon="11.730716312304139">
        <ele>1664.6600000000001</ele>
        <time>2019-03-08T09:15:30Z</time>
      </trkpt>
      <trkpt lat="46.413299012929201" lon="11.730865761637688">
        <ele>1667.54</ele>
        <time>2019-03-08T09:15:41Z</time>
      </trkpt>
      <trkpt lat="46.413335390388966" lon="11.731002135202289">
        <ele>1669.95</ele>
        <time>2019-03-08T09:15:52Z</time>
      </trkpt>
      <trkpt lat="46.413381909951568" lon="11.731128869578242">
        <ele>1670.9100000000001</ele>
        <time>2019-03-08T09:16:06Z</time>
      </trkpt>
      <trkpt lat="46.413404373452067" lon="11.731250826269388">
        <ele>1671.8699999999999</ele>
        <time>2019-03-08T09:16:17Z</time>
      </trkpt>
      <trkpt lat="46.413371935486794" lon="11.731424415484071">
        <ele>1673.79</ele>
        <time>2019-03-08T09:16:28Z</time>
      </trkpt>
      <trkpt lat="46.413367660716176" lon="11.731438832357526">
        <ele>1674.27</ele>
        <time>2019-03-08T09:16:29Z</time>
      </trkpt>
      <trkpt lat="46.413326757028699" lon="11.731576379388571">
        <ele>1676.2</ele>
        <time>2019-03-08T09:16:40Z</time>
      </trkpt>
      <trkpt lat="46.413300773128867" lon="11.731671430170536">
        <ele>1678.5999999999999</ele>
        <time>2019-03-08T09:16:50Z</time>
      </trkpt>
      <trkpt lat="46.413283422589302" lon="11.731794979423285">
        <ele>1681</ele>
        <time>2019-03-08T09:17:01Z</time>
      </trkpt>
      <trkpt lat="46.413252409547567" lon="11.731924312189221">
        <ele>1682.9300000000001</ele>
        <time>2019-03-08T09:17:12Z</time>
      </trkpt>
      <trkpt lat="46.413218798115849" lon="11.732034785673022">
        <ele>1686.29</ele>
        <time>2019-03-08T09:17:23Z</time>
      </trkpt>
      <trkpt lat="46.413199938833714" lon="11.732106702402234">
        <ele>1687.73</ele>
        <time>2019-03-08T09:17:31Z</time>
      </trkpt>
      <trkpt lat="46.413148306310177" lon="11.732207704335451">
        <ele>1689.1700000000001</ele>
        <time>2019-03-08T09:17:44Z</time>
      </trkpt>
      <trkpt lat="46.413131793960929" lon="11.732238801196218">
        <ele>1689.6500000000001</ele>
        <time>2019-03-08T09:17:47Z</time>
      </trkpt>
      <trkpt lat="46.413059374317527" lon="11.732301833108068">
        <ele>1688.6900000000001</ele>
        <time>2019-03-08T09:17:58Z</time>
      </trkpt>
      <trkpt lat="46.412999946624041" lon="11.732315244153142">
        <ele>1688.21</ele>
        <time>2019-03-08T09:18:09Z</time>
      </trkpt>
      <trkpt lat="46.412888634949923" lon="11.732302252203226">
        <ele>1690.1400000000001</ele>
        <time>2019-03-08T09:18:20Z</time>
      </trkpt>
      <trkpt lat="46.412834404036403" lon="11.732256403192878">
        <ele>1691.5799999999999</ele>
        <time>2019-03-08T09:18:31Z</time>
      </trkpt>
      <trkpt lat="46.412733485922217" lon="11.732191778719425">
        <ele>1694.46</ele>
        <time>2019-03-08T09:18:45Z</time>
      </trkpt>
      <trkpt lat="46.41266860999167" lon="11.732156658545136">
        <ele>1695.9000000000001</ele>
        <time>2019-03-08T09:18:56Z</time>
      </trkpt>
      <trkpt lat="46.412601638585329" lon="11.732126148417592">
        <ele>1696.3800000000001</ele>
        <time>2019-03-08T09:19:08Z</time>
      </trkpt>
      <trkpt lat="46.412522345781326" lon="11.732112569734454">
        <ele>1697.3399999999999</ele>
        <time>2019-03-08T09:19:20Z</time>
      </trkpt>
      <trkpt lat="46.412437604740262" lon="11.732128830626607">
        <ele>1698.79</ele>
        <time>2019-03-08T09:19:32Z</time>
      </trkpt>
      <trkpt lat="46.412394102662802" lon="11.732144253328443">
        <ele>1699.75</ele>
        <time>2019-03-08T09:19:38Z</time>
      </trkpt>
      <trkpt lat="46.412329897284508" lon="11.732190605252981">
        <ele>1701.6700000000001</ele>
        <time>2019-03-08T09:19:48Z</time>
      </trkpt>
      <trkpt lat="46.412259824573994" lon="11.732237543910742">
        <ele>1702.1500000000001</ele>
        <time>2019-03-08T09:19:59Z</time>
      </trkpt>
      <trkpt lat="46.412202995270491" lon="11.732263695448637">
        <ele>1702.6300000000001</ele>
        <time>2019-03-08T09:20:11Z</time>
      </trkpt>
      <trkpt lat="46.412111129611731" lon="11.732301078736782">
        <ele>1704.0699999999999</ele>
        <time>2019-03-08T09:20:22Z</time>
      </trkpt>
      <trkpt lat="46.412001913413405" lon="11.732344077900052">
        <ele>1705.52</ele>
        <time>2019-03-08T09:20:33Z</time>
      </trkpt>
      <trkpt lat="46.411897307261825" lon="11.732417671009898">
        <ele>1706.96</ele>
        <time>2019-03-08T09:20:45Z</time>
      </trkpt>
      <trkpt lat="46.411850452423096" lon="11.732451198622584">
        <ele>1707.9200000000001</ele>
        <time>2019-03-08T09:20:55Z</time>
      </trkpt>
      <trkpt lat="46.411672588437796" lon="11.732590086758137">
        <ele>1708.8800000000001</ele>
        <time>2019-03-08T09:23:29Z</time>
      </trkpt>
      <trkpt lat="46.411571502685547" lon="11.732681365683675">
        <ele>1709.3599999999999</ele>
        <time>2019-03-08T09:23:41Z</time>
      </trkpt>
      <trkpt lat="46.411513667553663" lon="11.732731908559799">
        <ele>1709.3599999999999</ele>
        <time>2019-03-08T09:23:49Z</time>
      </trkpt>
      <trkpt lat="46.411403696984053" lon="11.732799047604203">
        <ele>1709.8399999999999</ele>
        <time>2019-03-08T09:24:01Z</time>
      </trkpt>
      <trkpt lat="46.411305963993073" lon="11.732834000140429">
        <ele>1711.28</ele>
        <time>2019-03-08T09:24:12Z</time>
      </trkpt>
      <trkpt lat="46.411209488287568" lon="11.732844645157456">
        <ele>1711.76</ele>
        <time>2019-03-08T09:24:25Z</time>
      </trkpt>
      <trkpt lat="46.411125753074884" lon="11.732846405357122">
        <ele>1712.25</ele>
        <time>2019-03-08T09:24:36Z</time>
      </trkpt>
      <trkpt lat="46.411043275147676" lon="11.732856296002865">
        <ele>1712.73</ele>
        <time>2019-03-08T09:24:45Z</time>
      </trkpt>
      <trkpt lat="46.410984350368381" lon="11.73285017721355">
        <ele>1713.6900000000001</ele>
        <time>2019-03-08T09:24:56Z</time>
      </trkpt>
      <trkpt lat="46.410892736166716" lon="11.73277105204761">
        <ele>1714.6500000000001</ele>
        <time>2019-03-08T09:25:10Z</time>
      </trkpt>
      <trkpt lat="46.410803804174066" lon="11.732726795598865">
        <ele>1715.6099999999999</ele>
        <time>2019-03-08T09:25:21Z</time>
      </trkpt>
      <trkpt lat="46.410735491663218" lon="11.732705505564809">
        <ele>1716.5699999999999</ele>
        <time>2019-03-08T09:25:29Z</time>
      </trkpt>
      <trkpt lat="46.410649996250868" lon="11.732724951580167">
        <ele>1717.05</ele>
        <time>2019-03-08T09:25:40Z</time>
      </trkpt>
      <trkpt lat="46.41059291549027" lon="11.732751270756125">
        <ele>1718.01</ele>
        <time>2019-03-08T09:25:49Z</time>
      </trkpt>
      <trkpt lat="46.410511778667569" lon="11.73276568762958">
        <ele>1719.9400000000001</ele>
        <time>2019-03-08T09:25:59Z</time>
      </trkpt>
      <trkpt lat="46.410452434793115" lon="11.732797622680664">
        <ele>1720.4200000000001</ele>
        <time>2019-03-08T09:26:09Z</time>
      </trkpt>
      <trkpt lat="46.410409267991781" lon="11.732843974605203">
        <ele>1721.3800000000001</ele>
        <time>2019-03-08T09:26:19Z</time>
      </trkpt>
      <trkpt lat="46.410359395667911" lon="11.732889991253614">
        <ele>1722.8199999999999</ele>
        <time>2019-03-08T09:26:25Z</time>
      </trkpt>
      <trkpt lat="46.410266943275928" lon="11.732966518029571">
        <ele>1724.26</ele>
        <time>2019-03-08T09:26:37Z</time>
      </trkpt>
      <trkpt lat="46.410223608836532" lon="11.733001554384828">
        <ele>1724.26</ele>
        <time>2019-03-08T09:26:47Z</time>
      </trkpt>
      <trkpt lat="46.41017273068428" lon="11.733052767813206">
        <ele>1725.22</ele>
        <time>2019-03-08T09:26:58Z</time>
      </trkpt>
      <trkpt lat="46.410102993249893" lon="11.733138430863619">
        <ele>1728.1099999999999</ele>
        <time>2019-03-08T09:27:10Z</time>
      </trkpt>
      <trkpt lat="46.410058569163084" lon="11.733212191611528">
        <ele>1727.6300000000001</ele>
        <time>2019-03-08T09:27:20Z</time>
      </trkpt>
      <trkpt lat="46.409991597756743" lon="11.733293076977134">
        <ele>1727.1500000000001</ele>
        <time>2019-03-08T09:27:32Z</time>
      </trkpt>
      <trkpt lat="46.409934600815177" lon="11.733364071696997">
        <ele>1726.6700000000001</ele>
        <time>2019-03-08T09:27:43Z</time>
      </trkpt>
      <trkpt lat="46.40986536629498" lon="11.733432300388813">
        <ele>1727.6300000000001</ele>
        <time>2019-03-08T09:27:54Z</time>
      </trkpt>
      <trkpt lat="46.409803591668606" lon="11.733546713367105">
        <ele>1728.5899999999999</ele>
        <time>2019-03-08T09:28:05Z</time>
      </trkpt>
      <trkpt lat="46.409770399332047" lon="11.733598010614514">
        <ele>1727.6300000000001</ele>
        <time>2019-03-08T09:28:10Z</time>
      </trkpt>
      <trkpt lat="46.409723544493318" lon="11.733666155487299">
        <ele>1727.1500000000001</ele>
        <time>2019-03-08T09:28:19Z</time>
      </trkpt>
      <trkpt lat="46.409666379913688" lon="11.733756680041552">
        <ele>1723.3</ele>
        <time>2019-03-08T09:28:30Z</time>
      </trkpt>
      <trkpt lat="46.409600079059601" lon="11.733831698074937">
        <ele>1721.3800000000001</ele>
        <time>2019-03-08T09:28:41Z</time>
      </trkpt>
      <trkpt lat="46.40953210182488" lon="11.733916020020843">
        <ele>1719.9400000000001</ele>
        <time>2019-03-08T09:28:52Z</time>
      </trkpt>
      <trkpt lat="46.409470411017537" lon="11.733974441885948">
        <ele>1721.3800000000001</ele>
        <time>2019-03-08T09:29:02Z</time>
      </trkpt>
      <trkpt lat="46.409403355792165" lon="11.734049208462238">
        <ele>1724.26</ele>
        <time>2019-03-08T09:29:13Z</time>
      </trkpt>
      <trkpt lat="46.409350382164121" lon="11.734105367213488">
        <ele>1723.3</ele>
        <time>2019-03-08T09:29:23Z</time>
      </trkpt>
      <trkpt lat="46.409288104623556" lon="11.734164711087942">
        <ele>1721.3800000000001</ele>
        <time>2019-03-08T09:29:34Z</time>
      </trkpt>
      <trkpt lat="46.409204034134746" lon="11.7342066206038">
        <ele>1719.9400000000001</ele>
        <time>2019-03-08T09:29:45Z</time>
      </trkpt>
      <trkpt lat="46.40911778435111" lon="11.734260348603129">
        <ele>1720.9000000000001</ele>
        <time>2019-03-08T09:29:57Z</time>
      </trkpt>
      <trkpt lat="46.409040922299027" lon="11.73426085151732">
        <ele>1722.3399999999999</ele>
        <time>2019-03-08T09:30:05Z</time>
      </trkpt>
      <trkpt lat="46.408985601738095" lon="11.734313573688269">
        <ele>1725.7</ele>
        <time>2019-03-08T09:30:11Z</time>
      </trkpt>
      <trkpt lat="46.408917037770152" lon="11.734335701912642">
        <ele>1728.5899999999999</ele>
        <time>2019-03-08T09:30:22Z</time>
      </trkpt>
      <trkpt lat="46.408823411911726" lon="11.734349280595779">
        <ele>1730.51</ele>
        <time>2019-03-08T09:30:32Z</time>
      </trkpt>
      <trkpt lat="46.408808659762144" lon="11.734352465718985">
        <ele>1731.47</ele>
        <time>2019-03-08T09:30:34Z</time>
      </trkpt>
      <trkpt lat="46.408735821023583" lon="11.73439672216773">
        <ele>1734.8399999999999</ele>
        <time>2019-03-08T09:30:45Z</time>
      </trkpt>
      <trkpt lat="46.408669017255306" lon="11.734398063272238">
        <ele>1735.3199999999999</ele>
        <time>2019-03-08T09:30:55Z</time>
      </trkpt>
      <trkpt lat="46.408591317012906" lon="11.73439621925354">
        <ele>1737.24</ele>
        <time>2019-03-08T09:31:06Z</time>
      </trkpt>
      <trkpt lat="46.408538091927767" lon="11.734422538429499">
        <ele>1741.0799999999999</ele>
        <time>2019-03-08T09:31:16Z</time>
      </trkpt>
      <trkpt lat="46.408490901812911" lon="11.73442991450429">
        <ele>1742.53</ele>
        <time>2019-03-08T09:31:27Z</time>
      </trkpt>
      <trkpt lat="46.40838386490941" lon="11.734425136819482">
        <ele>1743.01</ele>
        <time>2019-03-08T09:31:40Z</time>
      </trkpt>
      <trkpt lat="46.408303566277027" lon="11.734467884525657">
        <ele>1743.01</ele>
        <time>2019-03-08T09:31:51Z</time>
      </trkpt>
      <trkpt lat="46.408218238502741" lon="11.734542232006788">
        <ele>1744.9300000000001</ele>
        <time>2019-03-08T09:32:03Z</time>
      </trkpt>
      <trkpt lat="46.408152105286717" lon="11.734588583931327">
        <ele>1745.8900000000001</ele>
        <time>2019-03-08T09:32:15Z</time>
      </trkpt>
      <trkpt lat="46.408051438629627" lon="11.734663685783744">
        <ele>1744.45</ele>
        <time>2019-03-08T09:32:27Z</time>
      </trkpt>
      <trkpt lat="46.407991759479046" lon="11.734698219224811">
        <ele>1746.3699999999999</ele>
        <time>2019-03-08T09:32:39Z</time>
      </trkpt>
      <trkpt lat="46.407937025651336" lon="11.734752198681235">
        <ele>1749.74</ele>
        <time>2019-03-08T09:32:47Z</time>
      </trkpt>
      <trkpt lat="46.407861672341824" lon="11.734795533120632">
        <ele>1752.1400000000001</ele>
        <time>2019-03-08T09:32:58Z</time>
      </trkpt>
      <trkpt lat="46.407817751169205" lon="11.734785139560699">
        <ele>1754.54</ele>
        <time>2019-03-08T09:33:21Z</time>
      </trkpt>
      <trkpt lat="46.407796461135149" lon="11.734864767640829">
        <ele>1753.0999999999999</ele>
        <time>2019-03-08T09:34:43Z</time>
      </trkpt>
      <trkpt lat="46.407807357609272" lon="11.734939031302929">
        <ele>1762.23</ele>
        <time>2019-03-08T09:41:16Z</time>
      </trkpt>
      <trkpt lat="46.407773997634649" lon="11.735068196430802">
        <ele>1764.6400000000001</ele>
        <time>2019-03-08T09:41:28Z</time>
      </trkpt>
      <trkpt lat="46.407772321254015" lon="11.735105495899916">
        <ele>1764.1600000000001</ele>
        <time>2019-03-08T09:41:31Z</time>
      </trkpt>
      <trkpt lat="46.407783385366201" lon="11.735193254426122">
        <ele>1763.2</ele>
        <time>2019-03-08T09:41:41Z</time>
      </trkpt>
      <trkpt lat="46.407801993191242" lon="11.735283611342311">
        <ele>1762.23</ele>
        <time>2019-03-08T09:41:50Z</time>
      </trkpt>
      <trkpt lat="46.407803418114781" lon="11.735289143398404">
        <ele>1760.79</ele>
        <time>2019-03-08T09:42:00Z</time>
      </trkpt>
      <trkpt lat="46.407795371487737" lon="11.735316216945648">
        <ele>1761.75</ele>
        <time>2019-03-08T09:42:11Z</time>
      </trkpt>
      <trkpt lat="46.407794114202261" lon="11.735355695709586">
        <ele>1761.75</ele>
        <time>2019-03-08T09:42:14Z</time>
      </trkpt>
      <trkpt lat="46.407788330689073" lon="11.73544630408287">
        <ele>1760.3099999999999</ele>
        <time>2019-03-08T09:42:22Z</time>
      </trkpt>
      <trkpt lat="46.407781960442662" lon="11.735489889979362">
        <ele>1759.8299999999999</ele>
        <time>2019-03-08T09:42:25Z</time>
      </trkpt>
      <trkpt lat="46.40778623521328" lon="11.735587539151311">
        <ele>1757.9100000000001</ele>
        <time>2019-03-08T09:42:36Z</time>
      </trkpt>
      <trkpt lat="46.407870473340154" lon="11.735637579113245">
        <ele>1758.3900000000001</ele>
        <time>2019-03-08T09:42:47Z</time>
      </trkpt>
      <trkpt lat="46.407878855243325" lon="11.73563682474196">
        <ele>1758.3900000000001</ele>
        <time>2019-03-08T09:42:48Z</time>
      </trkpt>
      <trkpt lat="46.407970385625958" lon="11.735644787549973">
        <ele>1759.8299999999999</ele>
        <time>2019-03-08T09:43:00Z</time>
      </trkpt>
      <trkpt lat="46.408037859946489" lon="11.735676638782024">
        <ele>1761.27</ele>
        <time>2019-03-08T09:43:09Z</time>
      </trkpt>
      <trkpt lat="46.408114889636636" lon="11.735745873302221">
        <ele>1761.75</ele>
        <time>2019-03-08T09:43:23Z</time>
      </trkpt>
      <trkpt lat="46.408127378672361" lon="11.735842349007726">
        <ele>1761.27</ele>
        <time>2019-03-08T09:43:33Z</time>
      </trkpt>
      <trkpt lat="46.408115224912763" lon="11.735902531072497">
        <ele>1760.3099999999999</ele>
        <time>2019-03-08T09:43:46Z</time>
      </trkpt>
      <trkpt lat="46.408073902130127" lon="11.736027169972658">
        <ele>1762.71</ele>
        <time>2019-03-08T09:43:59Z</time>
      </trkpt>
      <trkpt lat="46.408087396994233" lon="11.736126411706209">
        <ele>1763.6800000000001</ele>
        <time>2019-03-08T09:44:11Z</time>
      </trkpt>
      <trkpt lat="46.4080960303545" lon="11.73623638227582">
        <ele>1764.6400000000001</ele>
        <time>2019-03-08T09:44:22Z</time>
      </trkpt>
      <trkpt lat="46.408116230741143" lon="11.736315172165632">
        <ele>1765.1199999999999</ele>
        <time>2019-03-08T09:44:34Z</time>
      </trkpt>
      <trkpt lat="46.408098209649324" lon="11.736382646486163">
        <ele>1767.52</ele>
        <time>2019-03-08T09:44:40Z</time>
      </trkpt>
      <trkpt lat="46.408072141930461" lon="11.736439559608698">
        <ele>1768</ele>
        <time>2019-03-08T09:44:50Z</time>
      </trkpt>
      <trkpt lat="46.407974325120449" lon="11.73647828400135">
        <ele>1769.9200000000001</ele>
        <time>2019-03-08T09:45:02Z</time>
      </trkpt>
      <trkpt lat="46.407927721738815" lon="11.736506950110197">
        <ele>1767.04</ele>
        <time>2019-03-08T09:45:12Z</time>
      </trkpt>
      <trkpt lat="46.40783853828907" lon="11.736562438309193">
        <ele>1768.96</ele>
        <time>2019-03-08T09:45:26Z</time>
      </trkpt>
      <trkpt lat="46.407762262970209" lon="11.736623961478472">
        <ele>1769.4400000000001</ele>
        <time>2019-03-08T09:45:41Z</time>
      </trkpt>
      <trkpt lat="46.407721359282732" lon="11.736631924286485">
        <ele>1771.8499999999999</ele>
        <time>2019-03-08T09:45:52Z</time>
      </trkpt>
      <trkpt lat="46.407658914104104" lon="11.736658243462443">
        <ele>1773.77</ele>
        <time>2019-03-08T09:46:03Z</time>
      </trkpt>
      <trkpt lat="46.407654555514455" lon="11.736711636185646">
        <ele>1775.6900000000001</ele>
        <time>2019-03-08T09:46:13Z</time>
      </trkpt>
      <trkpt lat="46.40761960297823" lon="11.736755138263106">
        <ele>1775.21</ele>
        <time>2019-03-08T09:46:25Z</time>
      </trkpt>
      <trkpt lat="46.407586578279734" lon="11.736798472702503">
        <ele>1774.73</ele>
        <time>2019-03-08T09:46:37Z</time>
      </trkpt>
      <trkpt lat="46.407538885250688" lon="11.736869802698493">
        <ele>1777.6099999999999</ele>
        <time>2019-03-08T09:46:48Z</time>
      </trkpt>
      <trkpt lat="46.407529413700104" lon="11.736912382766604">
        <ele>1779.54</ele>
        <time>2019-03-08T09:46:55Z</time>
      </trkpt>
      <trkpt lat="46.407475434243679" lon="11.736977091059089">
        <ele>1782.4200000000001</ele>
        <time>2019-03-08T09:47:07Z</time>
      </trkpt>
      <trkpt lat="46.407413156703115" lon="11.737012127414346">
        <ele>1783.8599999999999</ele>
        <time>2019-03-08T09:47:19Z</time>
      </trkpt>
      <trkpt lat="46.407376527786255" lon="11.737016150727868">
        <ele>1786.27</ele>
        <time>2019-03-08T09:47:29Z</time>
      </trkpt>
      <trkpt lat="46.4073430839926" lon="11.737019754946232">
        <ele>1788.6700000000001</ele>
        <time>2019-03-08T09:47:40Z</time>
      </trkpt>
      <trkpt lat="46.407271502539515" lon="11.737044733017683">
        <ele>1788.1900000000001</ele>
        <time>2019-03-08T09:47:52Z</time>
      </trkpt>
      <trkpt lat="46.407171674072742" lon="11.737047750502825">
        <ele>1786.75</ele>
        <time>2019-03-08T09:48:05Z</time>
      </trkpt>
      <trkpt lat="46.407102020457387" lon="11.737118745222688">
        <ele>1787.23</ele>
        <time>2019-03-08T09:48:16Z</time>
      </trkpt>
      <trkpt lat="46.407009568065405" lon="11.737168114632368">
        <ele>1788.6700000000001</ele>
        <time>2019-03-08T09:48:28Z</time>
      </trkpt>
      <trkpt lat="46.406953409314156" lon="11.737198205664754">
        <ele>1788.6700000000001</ele>
        <time>2019-03-08T09:48:40Z</time>
      </trkpt>
      <trkpt lat="46.406873445957899" lon="11.737227374687791">
        <ele>1786.75</ele>
        <time>2019-03-08T09:48:51Z</time>
      </trkpt>
      <trkpt lat="46.406821729615331" lon="11.737253526225686">
        <ele>1783.8599999999999</ele>
        <time>2019-03-08T09:49:00Z</time>
      </trkpt>
      <trkpt lat="46.406763894483447" lon="11.737334495410323">
        <ele>1784.8199999999999</ele>
        <time>2019-03-08T09:49:12Z</time>
      </trkpt>
      <trkpt lat="46.406751153990626" lon="11.737339524552226">
        <ele>1787.71</ele>
        <time>2019-03-08T09:49:21Z</time>
      </trkpt>
      <trkpt lat="46.40673765912652" lon="11.737330639734864">
        <ele>1789.6300000000001</ele>
        <time>2019-03-08T09:49:25Z</time>
      </trkpt>
      <trkpt lat="46.406734306365252" lon="11.737372297793627">
        <ele>1792.52</ele>
        <time>2019-03-08T09:49:35Z</time>
      </trkpt>
      <trkpt lat="46.406720643863082" lon="11.737437676638365">
        <ele>1795.4000000000001</ele>
        <time>2019-03-08T09:49:45Z</time>
      </trkpt>
      <trkpt lat="46.406696755439043" lon="11.737491236999631">
        <ele>1797.8</ele>
        <time>2019-03-08T09:49:53Z</time>
      </trkpt>
      <trkpt lat="46.406684685498476" lon="11.73755276016891">
        <ele>1799.73</ele>
        <time>2019-03-08T09:50:04Z</time>
      </trkpt>
      <trkpt lat="46.406700862571597" lon="11.737581342458725">
        <ele>1800.21</ele>
        <time>2019-03-08T09:50:10Z</time>
      </trkpt>
      <trkpt lat="46.40668929554522" lon="11.737652169540524">
        <ele>1802.6099999999999</ele>
        <time>2019-03-08T09:50:20Z</time>
      </trkpt>
      <trkpt lat="46.406645625829697" lon="11.737767001613975">
        <ele>1805.49</ele>
        <time>2019-03-08T09:50:34Z</time>
      </trkpt>
      <trkpt lat="46.406615115702152" lon="11.737859202548862">
        <ele>1806.45</ele>
        <time>2019-03-08T09:50:47Z</time>
      </trkpt>
      <trkpt lat="46.406607991084456" lon="11.737926341593266">
        <ele>1805.49</ele>
        <time>2019-03-08T09:50:56Z</time>
      </trkpt>
      <trkpt lat="46.406585359945893" lon="11.737994067370892">
        <ele>1807.9000000000001</ele>
        <time>2019-03-08T09:51:05Z</time>
      </trkpt>
      <trkpt lat="46.406562309712172" lon="11.73799985088408">
        <ele>1807.4200000000001</ele>
        <time>2019-03-08T09:51:17Z</time>
      </trkpt>
      <trkpt lat="46.406564489006996" lon="11.738030612468719">
        <ele>1808.8599999999999</ele>
        <time>2019-03-08T09:51:28Z</time>
      </trkpt>
      <trkpt lat="46.406508665531874" lon="11.738111497834325">
        <ele>1808.3800000000001</ele>
        <time>2019-03-08T09:51:40Z</time>
      </trkpt>
      <trkpt lat="46.406475892290473" lon="11.738162878900766">
        <ele>1809.8199999999999</ele>
        <time>2019-03-08T09:51:52Z</time>
      </trkpt>
      <trkpt lat="46.40644253231585" lon="11.738238567486405">
        <ele>1811.74</ele>
        <time>2019-03-08T09:52:05Z</time>
      </trkpt>
      <trkpt lat="46.406422415748239" lon="11.73829011619091">
        <ele>1813.6600000000001</ele>
        <time>2019-03-08T09:52:13Z</time>
      </trkpt>
      <trkpt lat="46.406407076865435" lon="11.738338898867369">
        <ele>1813.6600000000001</ele>
        <time>2019-03-08T09:52:23Z</time>
      </trkpt>
      <trkpt lat="46.406391486525536" lon="11.738406289368868">
        <ele>1815.5899999999999</ele>
        <time>2019-03-08T09:52:33Z</time>
      </trkpt>
      <trkpt lat="46.406378326937556" lon="11.738456916064024">
        <ele>1817.51</ele>
        <time>2019-03-08T09:52:41Z</time>
      </trkpt>
      <trkpt lat="46.406354438513517" lon="11.73851877450943">
        <ele>1819.4300000000001</ele>
        <time>2019-03-08T09:52:52Z</time>
      </trkpt>
      <trkpt lat="46.406329292804003" lon="11.738586751744151">
        <ele>1820.8699999999999</ele>
        <time>2019-03-08T09:53:03Z</time>
      </trkpt>
      <trkpt lat="46.406315797939897" lon="11.738643916323781">
        <ele>1820.8699999999999</ele>
        <time>2019-03-08T09:53:12Z</time>
      </trkpt>
      <trkpt lat="46.40629350207746" lon="11.738700410351157">
        <ele>1823.28</ele>
        <time>2019-03-08T09:53:23Z</time>
      </trkpt>
      <trkpt lat="46.406254526227713" lon="11.738762520253658">
        <ele>1825.6800000000001</ele>
        <time>2019-03-08T09:53:36Z</time>
      </trkpt>
      <trkpt lat="46.406192164868116" lon="11.738798646256328">
        <ele>1827.1199999999999</ele>
        <time>2019-03-08T09:53:47Z</time>
      </trkpt>
      <trkpt lat="46.406084038317204" lon="11.738841477781534">
        <ele>1829.53</ele>
        <time>2019-03-08T09:53:59Z</time>
      </trkpt>
      <trkpt lat="46.406030897051096" lon="11.738907024264336">
        <ele>1830.01</ele>
        <time>2019-03-08T09:54:13Z</time>
      </trkpt>
      <trkpt lat="46.406047996133566" lon="11.738976510241628">
        <ele>1830.97</ele>
        <time>2019-03-08T09:54:22Z</time>
      </trkpt>
      <trkpt lat="46.406035674735904" lon="11.739040967077017">
        <ele>1831.9300000000001</ele>
        <time>2019-03-08T09:54:32Z</time>
      </trkpt>
      <trkpt lat="46.406002147123218" lon="11.739107938483357">
        <ele>1833.8499999999999</ele>
        <time>2019-03-08T09:54:43Z</time>
      </trkpt>
      <trkpt lat="46.405967781320214" lon="11.739173317328095">
        <ele>1835.77</ele>
        <time>2019-03-08T09:54:56Z</time>
      </trkpt>
      <trkpt lat="46.405947916209698" lon="11.739242803305387">
        <ele>1837.22</ele>
        <time>2019-03-08T09:55:07Z</time>
      </trkpt>
      <trkpt lat="46.405942048877478" lon="11.739297453314066">
        <ele>1837.7</ele>
        <time>2019-03-08T09:55:16Z</time>
      </trkpt>
      <trkpt lat="46.405938947573304" lon="11.739394264295697">
        <ele>1841.0599999999999</ele>
        <time>2019-03-08T09:55:28Z</time>
      </trkpt>
      <trkpt lat="46.405938696116209" lon="11.739471042528749">
        <ele>1843.47</ele>
        <time>2019-03-08T09:55:40Z</time>
      </trkpt>
      <trkpt lat="46.405938193202019" lon="11.739570200443268">
        <ele>1842.98</ele>
        <time>2019-03-08T09:55:50Z</time>
      </trkpt>
      <trkpt lat="46.405905839055777" lon="11.739565171301365">
        <ele>1840.0999999999999</ele>
        <time>2019-03-08T09:55:58Z</time>
      </trkpt>
      <trkpt lat="46.405902737751603" lon="11.739593334496021">
        <ele>1839.6199999999999</ele>
        <time>2019-03-08T09:56:34Z</time>
      </trkpt>
      <trkpt lat="46.405911622568965" lon="11.739663071930408">
        <ele>1838.6600000000001</ele>
        <time>2019-03-08T09:56:44Z</time>
      </trkpt>
      <trkpt lat="46.405916232615709" lon="11.739746471866965">
        <ele>1840.0999999999999</ele>
        <time>2019-03-08T09:56:54Z</time>
      </trkpt>
      <trkpt lat="46.405915813520551" lon="11.739821741357446">
        <ele>1841.54</ele>
        <time>2019-03-08T09:57:06Z</time>
      </trkpt>
      <trkpt lat="46.405921010300517" lon="11.739892652258277">
        <ele>1843.47</ele>
        <time>2019-03-08T09:57:17Z</time>
      </trkpt>
      <trkpt lat="46.405934505164623" lon="11.73994948156178">
        <ele>1845.8699999999999</ele>
        <time>2019-03-08T09:57:27Z</time>
      </trkpt>
      <trkpt lat="46.405956968665123" lon="11.740025337785482">
        <ele>1848.27</ele>
        <time>2019-03-08T09:57:38Z</time>
      </trkpt>
      <trkpt lat="46.405962584540248" lon="11.740069091320038">
        <ele>1848.27</ele>
        <time>2019-03-08T09:57:48Z</time>
      </trkpt>
      <trkpt lat="46.405959231778979" lon="11.740117790177464">
        <ele>1849.71</ele>
        <time>2019-03-08T09:57:56Z</time>
      </trkpt>
      <trkpt lat="46.405979180708528" lon="11.740176295861602">
        <ele>1849.71</ele>
        <time>2019-03-08T09:58:06Z</time>
      </trkpt>
      <trkpt lat="46.405980521813035" lon="11.740221893414855">
        <ele>1852.5999999999999</ele>
        <time>2019-03-08T09:58:14Z</time>
      </trkpt>
      <trkpt lat="46.405997620895505" lon="11.740274196490645">
        <ele>1855</ele>
        <time>2019-03-08T09:58:23Z</time>
      </trkpt>
      <trkpt lat="46.406015977263451" lon="11.74031644128263">
        <ele>1855.96</ele>
        <time>2019-03-08T09:58:32Z</time>
      </trkpt>
      <trkpt lat="46.406039278954268" lon="11.74037754535675">
        <ele>1856.9200000000001</ele>
        <time>2019-03-08T09:58:59Z</time>
      </trkpt>
      <trkpt lat="46.406064424663782" lon="11.740428507328033">
        <ele>1858.3699999999999</ele>
        <time>2019-03-08T09:59:11Z</time>
      </trkpt>
      <trkpt lat="46.406105244532228" lon="11.740499334409833">
        <ele>1859.8099999999999</ele>
        <time>2019-03-08T09:59:23Z</time>
      </trkpt>
      <trkpt lat="46.406145896762609" lon="11.740539902821183">
        <ele>1860.77</ele>
        <time>2019-03-08T09:59:35Z</time>
      </trkpt>
      <trkpt lat="46.406180765479803" lon="11.740538058802485">
        <ele>1862.21</ele>
        <time>2019-03-08T09:59:45Z</time>
      </trkpt>
      <trkpt lat="46.40619920566678" lon="11.740514924749732">
        <ele>1864.6099999999999</ele>
        <time>2019-03-08T09:59:55Z</time>
      </trkpt>
      <trkpt lat="46.406213790178299" lon="11.740445606410503">
        <ele>1866.54</ele>
        <time>2019-03-08T10:00:07Z</time>
      </trkpt>
      <trkpt lat="46.406220244243741" lon="11.740395314991474">
        <ele>1869.4200000000001</ele>
        <time>2019-03-08T10:00:16Z</time>
      </trkpt>
      <trkpt lat="46.40624119900167" lon="11.740348627790809">
        <ele>1871.8199999999999</ele>
        <time>2019-03-08T10:00:26Z</time>
      </trkpt>
      <trkpt lat="46.406257627531886" lon="11.740299174562097">
        <ele>1875.6700000000001</ele>
        <time>2019-03-08T10:00:36Z</time>
      </trkpt>
      <trkpt lat="46.406262572854757" lon="11.740275621414185">
        <ele>1876.6300000000001</ele>
        <time>2019-03-08T10:00:39Z</time>
      </trkpt>
      <trkpt lat="46.406336585059762" lon="11.740181744098663">
        <ele>1878.55</ele>
        <time>2019-03-08T10:00:50Z</time>
      </trkpt>
      <trkpt lat="46.406408417969942" lon="11.740199094638228">
        <ele>1877.5899999999999</ele>
        <time>2019-03-08T10:01:02Z</time>
      </trkpt>
      <trkpt lat="46.406435072422028" lon="11.740264222025871">
        <ele>1876.1500000000001</ele>
        <time>2019-03-08T10:01:13Z</time>
      </trkpt>
      <trkpt lat="46.406468516215682" lon="11.740254582837224">
        <ele>1878.0699999999999</ele>
        <time>2019-03-08T10:01:25Z</time>
      </trkpt>
      <trkpt lat="46.406524088233709" lon="11.740262294188142">
        <ele>1880.48</ele>
        <time>2019-03-08T10:01:37Z</time>
      </trkpt>
      <trkpt lat="46.406590053811669" lon="11.74024268053472">
        <ele>1882.4000000000001</ele>
        <time>2019-03-08T10:01:48Z</time>
      </trkpt>
      <trkpt lat="46.406649062409997" lon="11.740220636129379">
        <ele>1883.8399999999999</ele>
        <time>2019-03-08T10:02:00Z</time>
      </trkpt>
      <trkpt lat="46.40670295804739" lon="11.740229101851583">
        <ele>1883.3599999999999</ele>
        <time>2019-03-08T10:02:12Z</time>
      </trkpt>
      <trkpt lat="46.406762218102813" lon="11.740297414362431">
        <ele>1883.3599999999999</ele>
        <time>2019-03-08T10:02:23Z</time>
      </trkpt>
      <trkpt lat="46.406741263344884" lon="11.740380730479956">
        <ele>1882.8800000000001</ele>
        <time>2019-03-08T10:02:33Z</time>
      </trkpt>
      <trkpt lat="46.406735563650727" lon="11.740468153730035">
        <ele>1885.28</ele>
        <time>2019-03-08T10:02:44Z</time>
      </trkpt>
      <trkpt lat="46.406752914190292" lon="11.740555996075273">
        <ele>1885.28</ele>
        <time>2019-03-08T10:02:56Z</time>
      </trkpt>
      <trkpt lat="46.406772863119841" lon="11.740620452910662">
        <ele>1888.1700000000001</ele>
        <time>2019-03-08T10:03:08Z</time>
      </trkpt>
      <trkpt lat="46.406797170639038" lon="11.7406668048352">
        <ele>1891.05</ele>
        <time>2019-03-08T10:03:15Z</time>
      </trkpt>
      <trkpt lat="46.406815275549889" lon="11.740774344652891">
        <ele>1893.45</ele>
        <time>2019-03-08T10:03:28Z</time>
      </trkpt>
      <trkpt lat="46.406801696866751" lon="11.740858666598797">
        <ele>1894.9000000000001</ele>
        <time>2019-03-08T10:03:41Z</time>
      </trkpt>
      <trkpt lat="46.406789375469089" lon="11.7409154959023">
        <ele>1894.9000000000001</ele>
        <time>2019-03-08T10:03:52Z</time>
      </trkpt>
      <trkpt lat="46.406806390732527" lon="11.741025382652879">
        <ele>1897.3</ele>
        <time>2019-03-08T10:04:03Z</time>
      </trkpt>
      <trkpt lat="46.406804798170924" lon="11.741029238328338">
        <ele>1897.3</ele>
        <time>2019-03-08T10:04:04Z</time>
      </trkpt>
      <trkpt lat="46.406777556985617" lon="11.741123283281922">
        <ele>1900.6600000000001</ele>
        <time>2019-03-08T10:04:17Z</time>
      </trkpt>
      <trkpt lat="46.406789207831025" lon="11.741179190576077">
        <ele>1901.6300000000001</ele>
        <time>2019-03-08T10:04:27Z</time>
      </trkpt>
      <trkpt lat="46.406795578077435" lon="11.74123601987958">
        <ele>1902.1099999999999</ele>
        <time>2019-03-08T10:04:37Z</time>
      </trkpt>
      <trkpt lat="46.406817119568586" lon="11.741345655173063">
        <ele>1904.51</ele>
        <time>2019-03-08T10:04:49Z</time>
      </trkpt>
      <trkpt lat="46.406825501471758" lon="11.74138261936605">
        <ele>1905.47</ele>
        <time>2019-03-08T10:05:02Z</time>
      </trkpt>
      <trkpt lat="46.406856346875429" lon="11.741474233567715">
        <ele>1908.3499999999999</ele>
        <time>2019-03-08T10:05:14Z</time>
      </trkpt>
      <trkpt lat="46.40684905461967" lon="11.741529386490583">
        <ele>1911.24</ele>
        <time>2019-03-08T10:05:25Z</time>
      </trkpt>
      <trkpt lat="46.40688325278461" lon="11.74148328602314">
        <ele>1908.8299999999999</ele>
        <time>2019-03-08T10:05:38Z</time>
      </trkpt>
      <trkpt lat="46.406895155087113" lon="11.741396198049188">
        <ele>1909.3199999999999</ele>
        <time>2019-03-08T10:05:51Z</time>
      </trkpt>
      <trkpt lat="46.40694678761065" lon="11.741316989064217">
        <ele>1909.8</ele>
        <time>2019-03-08T10:06:01Z</time>
      </trkpt>
      <trkpt lat="46.406990876421332" lon="11.741264350712299">
        <ele>1911.72</ele>
        <time>2019-03-08T10:06:09Z</time>
      </trkpt>
      <trkpt lat="46.406996324658394" lon="11.741260578855872">
        <ele>1911.72</ele>
        <time>2019-03-08T10:06:10Z</time>
      </trkpt>
      <trkpt lat="46.407014429569244" lon="11.741237444803119">
        <ele>1913.6400000000001</ele>
        <time>2019-03-08T10:06:15Z</time>
      </trkpt>
      <trkpt lat="46.407036809250712" lon="11.741209113970399">
        <ele>1917.01</ele>
        <time>2019-03-08T10:06:24Z</time>
      </trkpt>
      <trkpt lat="46.407063882797956" lon="11.7411935236305">
        <ele>1918.45</ele>
        <time>2019-03-08T10:06:28Z</time>
      </trkpt>
      <trkpt lat="46.407131776213646" lon="11.74115345813334">
        <ele>1919.8900000000001</ele>
        <time>2019-03-08T10:06:41Z</time>
      </trkpt>
      <trkpt lat="46.407187599688768" lon="11.741124037653208">
        <ele>1920.8499999999999</ele>
        <time>2019-03-08T10:06:50Z</time>
      </trkpt>
      <trkpt lat="46.407283153384924" lon="11.741126803681254">
        <ele>1919.8900000000001</ele>
        <time>2019-03-08T10:07:03Z</time>
      </trkpt>
      <trkpt lat="46.407377868890762" lon="11.741126719862223">
        <ele>1916.53</ele>
        <time>2019-03-08T10:07:13Z</time>
      </trkpt>
      <trkpt lat="46.40742564573884" lon="11.741120768710971">
        <ele>1917.49</ele>
        <time>2019-03-08T10:07:22Z</time>
      </trkpt>
      <trkpt lat="46.407483480870724" lon="11.741105681285262">
        <ele>1918.45</ele>
        <time>2019-03-08T10:07:33Z</time>
      </trkpt>
      <trkpt lat="46.407534191384912" lon="11.741068717092276">
        <ele>1917.97</ele>
        <time>2019-03-08T10:07:42Z</time>
      </trkpt>
      <trkpt lat="46.407583560794592" lon="11.741007445380092">
        <ele>1919.4100000000001</ele>
        <time>2019-03-08T10:07:55Z</time>
      </trkpt>
      <trkpt lat="46.407657656818628" lon="11.740992777049541">
        <ele>1919.8900000000001</ele>
        <time>2019-03-08T10:08:06Z</time>
      </trkpt>
      <trkpt lat="46.407717922702432" lon="11.740977941080928">
        <ele>1920.8499999999999</ele>
        <time>2019-03-08T10:08:20Z</time>
      </trkpt>
      <trkpt lat="46.407771147787571" lon="11.740978779271245">
        <ele>1922.29</ele>
        <time>2019-03-08T10:08:30Z</time>
      </trkpt>
      <trkpt lat="46.407822864130139" lon="11.74098196439445">
        <ele>1923.25</ele>
        <time>2019-03-08T10:08:40Z</time>
      </trkpt>
      <trkpt lat="46.407880028709769" lon="11.74099562689662">
        <ele>1925.1800000000001</ele>
        <time>2019-03-08T10:08:51Z</time>
      </trkpt>
      <trkpt lat="46.40791330486536" lon="11.740978443995118">
        <ele>1927.0999999999999</ele>
        <time>2019-03-08T10:09:00Z</time>
      </trkpt>
      <trkpt lat="46.407960578799248" lon="11.740998812019825">
        <ele>1928.54</ele>
        <time>2019-03-08T10:09:09Z</time>
      </trkpt>
      <trkpt lat="46.408017659559846" lon="11.740976348519325">
        <ele>1929.98</ele>
        <time>2019-03-08T10:09:20Z</time>
      </trkpt>
      <trkpt lat="46.408076165243983" lon="11.740977102890611">
        <ele>1931.4300000000001</ele>
        <time>2019-03-08T10:09:32Z</time>
      </trkpt>
      <trkpt lat="46.408165181055665" lon="11.741007277742028">
        <ele>1935.75</ele>
        <time>2019-03-08T10:16:52Z</time>
      </trkpt>
      <trkpt lat="46.408181944862008" lon="11.741008954122663">
        <ele>1936.23</ele>
        <time>2019-03-08T10:17:11Z</time>
      </trkpt>
      <trkpt lat="46.408271631225944" lon="11.740991771221161">
        <ele>1938.1600000000001</ele>
        <time>2019-03-08T10:17:23Z</time>
      </trkpt>
      <trkpt lat="46.408329047262669" lon="11.741103501990438">
        <ele>1936.23</ele>
        <time>2019-03-08T10:17:37Z</time>
      </trkpt>
      <trkpt lat="46.408357797190547" lon="11.74111875705421">
        <ele>1936.23</ele>
        <time>2019-03-08T10:17:51Z</time>
      </trkpt>
      <trkpt lat="46.408406747505069" lon="11.741113811731339">
        <ele>1935.75</ele>
        <time>2019-03-08T10:18:02Z</time>
      </trkpt>
      <trkpt lat="46.408445639535785" lon="11.741142477840185">
        <ele>1936.71</ele>
        <time>2019-03-08T10:18:12Z</time>
      </trkpt>
      <trkpt lat="46.40846399590373" lon="11.741233002394438">
        <ele>1939.1199999999999</ele>
        <time>2019-03-08T10:18:24Z</time>
      </trkpt>
      <trkpt lat="46.408399539068341" lon="11.741281785070896">
        <ele>1941.04</ele>
        <time>2019-03-08T10:18:36Z</time>
      </trkpt>
      <trkpt lat="46.408366011455655" lon="11.741329142823815">
        <ele>1942.48</ele>
        <time>2019-03-08T10:18:46Z</time>
      </trkpt>
      <trkpt lat="46.408320581540465" lon="11.741356970742345">
        <ele>1944.4000000000001</ele>
        <time>2019-03-08T10:18:58Z</time>
      </trkpt>
      <trkpt lat="46.408261405304074" lon="11.741383960470557">
        <ele>1947.29</ele>
        <time>2019-03-08T10:19:12Z</time>
      </trkpt>
      <trkpt lat="46.408220585435629" lon="11.741400305181742">
        <ele>1950.1700000000001</ele>
        <time>2019-03-08T10:19:23Z</time>
      </trkpt>
      <trkpt lat="46.408177418634295" lon="11.741444645449519">
        <ele>1951.1300000000001</ele>
        <time>2019-03-08T10:19:33Z</time>
      </trkpt>
      <trkpt lat="46.408124780282378" lon="11.741493595764041">
        <ele>1951.6099999999999</ele>
        <time>2019-03-08T10:19:45Z</time>
      </trkpt>
      <trkpt lat="46.40809552744031" lon="11.741549838334322">
        <ele>1954.02</ele>
        <time>2019-03-08T10:19:58Z</time>
      </trkpt>
      <trkpt lat="46.408048672601581" lon="11.741597112268209">
        <ele>1955.9400000000001</ele>
        <time>2019-03-08T10:20:11Z</time>
      </trkpt>
      <trkpt lat="46.408006092533469" lon="11.741662407293916">
        <ele>1957.8599999999999</ele>
        <time>2019-03-08T10:20:23Z</time>
      </trkpt>
      <trkpt lat="46.407977174967527" lon="11.741756200790405">
        <ele>1958.3399999999999</ele>
        <time>2019-03-08T10:20:35Z</time>
      </trkpt>
      <trkpt lat="46.407938869670033" lon="11.741833984851837">
        <ele>1959.3</ele>
        <time>2019-03-08T10:20:47Z</time>
      </trkpt>
      <trkpt lat="46.407932750880718" lon="11.74189374782145">
        <ele>1960.27</ele>
        <time>2019-03-08T10:20:57Z</time>
      </trkpt>
      <trkpt lat="46.40791280195117" lon="11.741957617923617">
        <ele>1961.71</ele>
        <time>2019-03-08T10:21:09Z</time>
      </trkpt>
      <trkpt lat="46.407919256016612" lon="11.741969184949994">
        <ele>1963.1500000000001</ele>
        <time>2019-03-08T10:21:12Z</time>
      </trkpt>
      <trkpt lat="46.407923027873039" lon="11.741999443620443">
        <ele>1963.1500000000001</ele>
        <time>2019-03-08T10:21:24Z</time>
      </trkpt>
      <trkpt lat="46.407914813607931" lon="11.742059793323278">
        <ele>1964.1099999999999</ele>
        <time>2019-03-08T10:21:35Z</time>
      </trkpt>
      <trkpt lat="46.407913807779551" lon="11.742159705609083">
        <ele>1965.55</ele>
        <time>2019-03-08T10:21:44Z</time>
      </trkpt>
      <trkpt lat="46.407964937388897" lon="11.742185102775693">
        <ele>1968.4400000000001</ele>
        <time>2019-03-08T10:22:32Z</time>
      </trkpt>
      <trkpt lat="46.408005421981215" lon="11.742123747244477">
        <ele>1969.4000000000001</ele>
        <time>2019-03-08T10:22:44Z</time>
      </trkpt>
      <trkpt lat="46.408081110566854" lon="11.742117460817099">
        <ele>1970.8399999999999</ele>
        <time>2019-03-08T10:22:58Z</time>
      </trkpt>
      <trkpt lat="46.40814732760191" lon="11.742089297622442">
        <ele>1973.72</ele>
        <time>2019-03-08T10:23:10Z</time>
      </trkpt>
      <trkpt lat="46.408223351463675" lon="11.742081921547651">
        <ele>1973.24</ele>
        <time>2019-03-08T10:23:22Z</time>
      </trkpt>
      <trkpt lat="46.408232655376196" lon="11.742083430290222">
        <ele>1973.24</ele>
        <time>2019-03-08T10:23:23Z</time>
      </trkpt>
      <trkpt lat="46.408306583762169" lon="11.742068929597735">
        <ele>1972.76</ele>
        <time>2019-03-08T10:23:35Z</time>
      </trkpt>
      <trkpt lat="46.408373052254319" lon="11.742105223238468">
        <ele>1974.6900000000001</ele>
        <time>2019-03-08T10:23:45Z</time>
      </trkpt>
      <trkpt lat="46.40840926207602" lon="11.742133889347315">
        <ele>1975.1700000000001</ele>
        <time>2019-03-08T10:23:55Z</time>
      </trkpt>
      <trkpt lat="46.40840825624764" lon="11.742144534364343">
        <ele>1976.1300000000001</ele>
        <time>2019-03-08T10:24:22Z</time>
      </trkpt>
      <trkpt lat="46.408440358936787" lon="11.742154089733958">
        <ele>1976.1300000000001</ele>
        <time>2019-03-08T10:24:34Z</time>
      </trkpt>
      <trkpt lat="46.408437341451645" lon="11.742177559062839">
        <ele>1976.6099999999999</ele>
        <time>2019-03-08T10:24:44Z</time>
      </trkpt>
      <trkpt lat="46.408515796065331" lon="11.742193484678864">
        <ele>1975.1700000000001</ele>
        <time>2019-03-08T10:24:55Z</time>
      </trkpt>
      <trkpt lat="46.40859249047935" lon="11.742243943735957">
        <ele>1974.6900000000001</ele>
        <time>2019-03-08T10:25:06Z</time>
      </trkpt>
      <trkpt lat="46.40867312438786" lon="11.742343688383698">
        <ele>1976.6099999999999</ele>
        <time>2019-03-08T10:25:19Z</time>
      </trkpt>
      <trkpt lat="46.40866432338953" lon="11.742357015609741">
        <ele>1978.05</ele>
        <time>2019-03-08T10:25:29Z</time>
      </trkpt>
      <trkpt lat="46.40866968780756" lon="11.742376126348972">
        <ele>1977.5699999999999</ele>
        <time>2019-03-08T10:25:43Z</time>
      </trkpt>
      <trkpt lat="46.408704305067658" lon="11.742423819378018">
        <ele>1979.49</ele>
        <time>2019-03-08T10:25:52Z</time>
      </trkpt>
      <trkpt lat="46.408759625628591" lon="11.742472937330604">
        <ele>1981.4100000000001</ele>
        <time>2019-03-08T10:26:02Z</time>
      </trkpt>
      <trkpt lat="46.408760966733098" lon="11.742511158809066">
        <ele>1983.8199999999999</ele>
        <time>2019-03-08T10:26:12Z</time>
      </trkpt>
      <trkpt lat="46.408773874863982" lon="11.742552984505892">
        <ele>1984.78</ele>
        <time>2019-03-08T10:26:32Z</time>
      </trkpt>
      <trkpt lat="46.408831877633929" lon="11.742602773010731">
        <ele>1984.78</ele>
        <time>2019-03-08T10:26:44Z</time>
      </trkpt>
      <trkpt lat="46.408870937302709" lon="11.742674857378006">
        <ele>1988.1400000000001</ele>
        <time>2019-03-08T10:26:58Z</time>
      </trkpt>
      <trkpt lat="46.408922066912055" lon="11.742760604247451">
        <ele>1989.0999999999999</ele>
        <time>2019-03-08T10:27:08Z</time>
      </trkpt>
      <trkpt lat="46.408971268683672" lon="11.742855487391353">
        <ele>1987.6600000000001</ele>
        <time>2019-03-08T10:27:19Z</time>
      </trkpt>
      <trkpt lat="46.40896481461823" lon="11.742935366928577">
        <ele>1987.6600000000001</ele>
        <time>2019-03-08T10:27:30Z</time>
      </trkpt>
      <trkpt lat="46.40890714712441" lon="11.742918351665139">
        <ele>1988.6199999999999</ele>
        <time>2019-03-08T10:27:41Z</time>
      </trkpt>
      <trkpt lat="46.408840594813228" lon="11.742962943390012">
        <ele>1990.55</ele>
        <time>2019-03-08T10:27:53Z</time>
      </trkpt>
      <trkpt lat="46.408836990594864" lon="11.743001919239759">
        <ele>1990.0699999999999</ele>
        <time>2019-03-08T10:28:18Z</time>
      </trkpt>
      <trkpt lat="46.408810587599874" lon="11.743107531219721">
        <ele>1991.99</ele>
        <time>2019-03-08T10:28:30Z</time>
      </trkpt>
      <trkpt lat="46.408784268423915" lon="11.743199313059449">
        <ele>1993.4300000000001</ele>
        <time>2019-03-08T10:28:41Z</time>
      </trkpt>
      <trkpt lat="46.408759206533432" lon="11.743305260315537">
        <ele>1994.8699999999999</ele>
        <time>2019-03-08T10:28:57Z</time>
      </trkpt>
      <trkpt lat="46.408759960904717" lon="11.743314815685153">
        <ele>1994.3900000000001</ele>
        <time>2019-03-08T10:28:59Z</time>
      </trkpt>
      <trkpt lat="46.408748058602214" lon="11.743398299440742">
        <ele>1994.3900000000001</ele>
        <time>2019-03-08T10:29:10Z</time>
      </trkpt>
      <trkpt lat="46.408725762739778" lon="11.74350667744875">
        <ele>1994.3900000000001</ele>
        <time>2019-03-08T10:29:24Z</time>
      </trkpt>
      <trkpt lat="46.408718386664987" lon="11.743598962202668">
        <ele>1997.76</ele>
        <time>2019-03-08T10:29:32Z</time>
      </trkpt>
      <trkpt lat="46.408695001155138" lon="11.743639530614018">
        <ele>2001.1199999999999</ele>
        <time>2019-03-08T10:29:39Z</time>
      </trkpt>
      <trkpt lat="46.408689469099045" lon="11.743693929165602">
        <ele>2003.52</ele>
        <time>2019-03-08T10:29:49Z</time>
      </trkpt>
      <trkpt lat="46.408690474927425" lon="11.743746316060424">
        <ele>2005.9300000000001</ele>
        <time>2019-03-08T10:29:57Z</time>
      </trkpt>
      <trkpt lat="46.408651499077678" lon="11.743834661319852">
        <ele>2007.3699999999999</ele>
        <time>2019-03-08T10:30:08Z</time>
      </trkpt>
      <trkpt lat="46.408654348924756" lon="11.743896519765258">
        <ele>2007.3699999999999</ele>
        <time>2019-03-08T10:30:17Z</time>
      </trkpt>
      <trkpt lat="46.408631717786193" lon="11.74394597299397">
        <ele>2008.8099999999999</ele>
        <time>2019-03-08T10:30:28Z</time>
      </trkpt>
      <trkpt lat="46.408612187951803" lon="11.74398846924305">
        <ele>2009.77</ele>
        <time>2019-03-08T10:30:39Z</time>
      </trkpt>
      <trkpt lat="46.408601878210902" lon="11.744091231375933">
        <ele>2011.22</ele>
        <time>2019-03-08T10:30:49Z</time>
      </trkpt>
      <trkpt lat="46.408595256507397" lon="11.744220312684774">
        <ele>2011.7</ele>
        <time>2019-03-08T10:31:02Z</time>
      </trkpt>
      <trkpt lat="46.408558040857315" lon="11.744295163080096">
        <ele>2013.1400000000001</ele>
        <time>2019-03-08T10:31:11Z</time>
      </trkpt>
      <trkpt lat="46.408507833257318" lon="11.744359452277422">
        <ele>2013.6199999999999</ele>
        <time>2019-03-08T10:31:25Z</time>
      </trkpt>
      <trkpt lat="46.408479753881693" lon="11.744444612413645">
        <ele>2014.5799999999999</ele>
        <time>2019-03-08T10:31:39Z</time>
      </trkpt>
      <trkpt lat="46.408476401120424" lon="11.744491634890437">
        <ele>2020.8299999999999</ele>
        <time>2019-03-08T10:32:15Z</time>
      </trkpt>
      <trkpt lat="46.408514706417918" lon="11.744557516649365">
        <ele>2022.27</ele>
        <time>2019-03-08T10:39:56Z</time>
      </trkpt>
      <trkpt lat="46.408513365313411" lon="11.744580650702119">
        <ele>2022.27</ele>
        <time>2019-03-08T10:40:09Z</time>
      </trkpt>
      <trkpt lat="46.408506911247969" lon="11.744642509147525">
        <ele>2025.1500000000001</ele>
        <time>2019-03-08T10:40:19Z</time>
      </trkpt>
      <trkpt lat="46.408496266230941" lon="11.74472096376121">
        <ele>2028.52</ele>
        <time>2019-03-08T10:40:29Z</time>
      </trkpt>
      <trkpt lat="46.408489644527435" lon="11.744805285707116">
        <ele>2029.96</ele>
        <time>2019-03-08T10:40:41Z</time>
      </trkpt>
      <trkpt lat="46.408489812165499" lon="11.744889942929149">
        <ele>2030.4400000000001</ele>
        <time>2019-03-08T10:40:52Z</time>
      </trkpt>
      <trkpt lat="46.408488303422928" lon="11.74488709308207">
        <ele>2034.29</ele>
        <time>2019-03-08T10:41:21Z</time>
      </trkpt>
      <trkpt lat="46.408383194357157" lon="11.745064537972212">
        <ele>2033.8099999999999</ele>
        <time>2019-03-08T10:44:35Z</time>
      </trkpt>
      <trkpt lat="46.408356120809913" lon="11.74512748606503">
        <ele>2032.8399999999999</ele>
        <time>2019-03-08T10:44:45Z</time>
      </trkpt>
      <trkpt lat="46.408330472186208" lon="11.745159169659019">
        <ele>2032.8399999999999</ele>
        <time>2019-03-08T10:44:58Z</time>
      </trkpt>
      <trkpt lat="46.408301889896393" lon="11.745196720585227">
        <ele>2031.8800000000001</ele>
        <time>2019-03-08T10:45:07Z</time>
      </trkpt>
      <trkpt lat="46.408266182988882" lon="11.745266374200583">
        <ele>2032.8399999999999</ele>
        <time>2019-03-08T10:45:17Z</time>
      </trkpt>
      <trkpt lat="46.408241121098399" lon="11.745288167148829">
        <ele>2034.77</ele>
        <time>2019-03-08T10:45:27Z</time>
      </trkpt>
      <trkpt lat="46.408236511051655" lon="11.745297806337476">
        <ele>2035.73</ele>
        <time>2019-03-08T10:45:38Z</time>
      </trkpt>
      <trkpt lat="46.408178089186549" lon="11.745340637862682">
        <ele>2038.1300000000001</ele>
        <time>2019-03-08T10:45:49Z</time>
      </trkpt>
      <trkpt lat="46.408190075308084" lon="11.745379194617271">
        <ele>2039.0899999999999</ele>
        <time>2019-03-08T10:46:02Z</time>
      </trkpt>
      <trkpt lat="46.408174568787217" lon="11.745435772463679">
        <ele>2040.05</ele>
        <time>2019-03-08T10:46:13Z</time>
      </trkpt>
      <trkpt lat="46.408190242946148" lon="11.745528476312757">
        <ele>2041.98</ele>
        <time>2019-03-08T10:46:29Z</time>
      </trkpt>
      <trkpt lat="46.408169958740473" lon="11.745581533759832">
        <ele>2043.4200000000001</ele>
        <time>2019-03-08T10:46:39Z</time>
      </trkpt>
      <trkpt lat="46.408197451382875" lon="11.745620425790548">
        <ele>2045.3399999999999</ele>
        <time>2019-03-08T10:46:52Z</time>
      </trkpt>
      <trkpt lat="46.408227123320103" lon="11.745669040828943">
        <ele>2046.78</ele>
        <time>2019-03-08T10:47:02Z</time>
      </trkpt>
      <trkpt lat="46.408212622627616" lon="11.745725618675351">
        <ele>2048.23</ele>
        <time>2019-03-08T10:47:14Z</time>
      </trkpt>
      <trkpt lat="46.408192673698068" lon="11.74580323509872">
        <ele>2049.1900000000001</ele>
        <time>2019-03-08T10:47:23Z</time>
      </trkpt>
      <trkpt lat="46.408231565728784" lon="11.745858723297715">
        <ele>2051.5900000000001</ele>
        <time>2019-03-08T10:47:33Z</time>
      </trkpt>
      <trkpt lat="46.408241540193558" lon="11.745931394398212">
        <ele>2053.0300000000002</ele>
        <time>2019-03-08T10:47:44Z</time>
      </trkpt>
      <trkpt lat="46.408260986208916" lon="11.745989313349128">
        <ele>2053.0300000000002</ele>
        <time>2019-03-08T10:47:56Z</time>
      </trkpt>
      <trkpt lat="46.408293675631285" lon="11.746042286977172">
        <ele>2055.4400000000001</ele>
        <time>2019-03-08T10:48:07Z</time>
      </trkpt>
      <trkpt lat="46.408281605690718" lon="11.746095344424248">
        <ele>2056.4000000000001</ele>
        <time>2019-03-08T10:48:17Z</time>
      </trkpt>
      <trkpt lat="46.408251514658332" lon="11.746153263375163">
        <ele>2058.8000000000002</ele>
        <time>2019-03-08T10:48:28Z</time>
      </trkpt>
      <trkpt lat="46.408218322321773" lon="11.746192239224911">
        <ele>2061.1999999999998</ele>
        <time>2019-03-08T10:48:38Z</time>
      </trkpt>
      <trkpt lat="46.408237935975194" lon="11.746232807636261">
        <ele>2062.6500000000001</ele>
        <time>2019-03-08T10:48:52Z</time>
      </trkpt>
      <trkpt lat="46.408262411132455" lon="11.746281171217561">
        <ele>2064.5700000000002</ele>
        <time>2019-03-08T10:49:04Z</time>
      </trkpt>
      <trkpt lat="46.408275822177529" lon="11.746311513707042">
        <ele>2065.0500000000002</ele>
        <time>2019-03-08T10:49:15Z</time>
      </trkpt>
      <trkpt lat="46.408287473022938" lon="11.746327187865973">
        <ele>2064.5700000000002</ele>
        <time>2019-03-08T10:49:27Z</time>
      </trkpt>
      <trkpt lat="46.408332483842969" lon="11.746361888945103">
        <ele>2066.9699999999998</ele>
        <time>2019-03-08T10:49:39Z</time>
      </trkpt>
      <trkpt lat="46.408353857696056" lon="11.746407067403197">
        <ele>2068.4099999999999</ele>
        <time>2019-03-08T10:49:50Z</time>
      </trkpt>
      <trkpt lat="46.408365424722433" lon="11.746460627764463">
        <ele>2071.3000000000002</ele>
        <time>2019-03-08T10:50:01Z</time>
      </trkpt>
      <trkpt lat="46.408362574875355" lon="11.746514858677983">
        <ele>2072.2600000000002</ele>
        <time>2019-03-08T10:50:12Z</time>
      </trkpt>
      <trkpt lat="46.408373974263668" lon="11.746526006609201">
        <ele>2072.2600000000002</ele>
        <time>2019-03-08T10:50:24Z</time>
      </trkpt>
      <trkpt lat="46.408387301489711" lon="11.74651712179184">
        <ele>2073.6999999999998</ele>
        <time>2019-03-08T10:50:39Z</time>
      </trkpt>
      <trkpt lat="46.40838042832911" lon="11.746549308300018">
        <ele>2072.7399999999998</ele>
        <time>2019-03-08T10:50:49Z</time>
      </trkpt>
      <trkpt lat="46.4083809312433" lon="11.746590379625559">
        <ele>2073.6999999999998</ele>
        <time>2019-03-08T10:50:58Z</time>
      </trkpt>
      <trkpt lat="46.40840582549572" lon="11.746612256392837">
        <ele>2075.1399999999999</ele>
        <time>2019-03-08T10:51:07Z</time>
      </trkpt>
      <trkpt lat="46.40844396315515" lon="11.746636144816875">
        <ele>2077.5500000000002</ele>
        <time>2019-03-08T10:51:17Z</time>
      </trkpt>
      <trkpt lat="46.408452093601227" lon="11.746680904179811">
        <ele>2079.9499999999998</ele>
        <time>2019-03-08T10:51:27Z</time>
      </trkpt>
      <trkpt lat="46.408472796902061" lon="11.746701439842582">
        <ele>2082.8299999999999</ele>
        <time>2019-03-08T10:51:39Z</time>
      </trkpt>
      <trkpt lat="46.40843222849071" lon="11.746768243610859">
        <ele>2082.8299999999999</ele>
        <time>2019-03-08T10:51:58Z</time>
      </trkpt>
      <trkpt lat="46.408386044204235" lon="11.746819037944078">
        <ele>2081.8699999999999</ele>
        <time>2019-03-08T10:52:14Z</time>
      </trkpt>
      <trkpt lat="46.408402053639293" lon="11.746866479516029">
        <ele>2082.3499999999999</ele>
        <time>2019-03-08T10:52:23Z</time>
      </trkpt>
      <trkpt lat="46.408428121358156" lon="11.746904365718365">
        <ele>2082.3499999999999</ele>
        <time>2019-03-08T10:52:35Z</time>
      </trkpt>
      <trkpt lat="46.408419655635953" lon="11.746946359053254">
        <ele>2083.3099999999999</ele>
        <time>2019-03-08T10:52:47Z</time>
      </trkpt>
      <trkpt lat="46.408445807173848" lon="11.746952561661601">
        <ele>2083.79</ele>
        <time>2019-03-08T10:52:56Z</time>
      </trkpt>
      <trkpt lat="46.408440107479692" lon="11.747010983526707">
        <ele>2085.7199999999998</ele>
        <time>2019-03-08T10:53:07Z</time>
      </trkpt>
      <trkpt lat="46.408460894599557" lon="11.74703705124557">
        <ele>2086.1999999999998</ele>
        <time>2019-03-08T10:53:17Z</time>
      </trkpt>
      <trkpt lat="46.408469779416919" lon="11.747083906084299">
        <ele>2086.1999999999998</ele>
        <time>2019-03-08T10:53:28Z</time>
      </trkpt>
      <trkpt lat="46.408476987853646" lon="11.747126486152411">
        <ele>2087.6399999999999</ele>
        <time>2019-03-08T10:53:38Z</time>
      </trkpt>
      <trkpt lat="46.408472377806902" lon="11.747178286314011">
        <ele>2090.52</ele>
        <time>2019-03-08T10:53:50Z</time>
      </trkpt>
      <trkpt lat="46.408491907641292" lon="11.747217094525695">
        <ele>2092.4499999999998</ele>
        <time>2019-03-08T10:54:00Z</time>
      </trkpt>
      <trkpt lat="46.408524680882692" lon="11.74723737873137">
        <ele>2095.8099999999999</ele>
        <time>2019-03-08T10:54:09Z</time>
      </trkpt>
      <trkpt lat="46.408546892926097" lon="11.747232601046562">
        <ele>2096.77</ele>
        <time>2019-03-08T10:54:18Z</time>
      </trkpt>
      <trkpt lat="46.408562818542123" lon="11.747228242456913">
        <ele>2097.73</ele>
        <time>2019-03-08T10:54:32Z</time>
      </trkpt>
      <trkpt lat="46.408587964251637" lon="11.747273840010166">
        <ele>2097.73</ele>
        <time>2019-03-08T10:54:41Z</time>
      </trkpt>
      <trkpt lat="46.408613780513406" lon="11.747301667928696">
        <ele>2097.73</ele>
        <time>2019-03-08T10:54:49Z</time>
      </trkpt>
      <trkpt lat="46.408635573461652" lon="11.747333602979779">
        <ele>2095.8099999999999</ele>
        <time>2019-03-08T10:54:59Z</time>
      </trkpt>
      <trkpt lat="46.40867019072175" lon="11.747400742024183">
        <ele>2096.29</ele>
        <time>2019-03-08T10:55:12Z</time>
      </trkpt>
      <trkpt lat="46.408714698627591" lon="11.747430665418506">
        <ele>2099.1799999999998</ele>
        <time>2019-03-08T10:55:23Z</time>
      </trkpt>
      <trkpt lat="46.408724253997207" lon="11.747481459751725">
        <ele>2101.0999999999999</ele>
        <time>2019-03-08T10:55:32Z</time>
      </trkpt>
      <trkpt lat="46.408737497404218" lon="11.747474502772093">
        <ele>2102.54</ele>
        <time>2019-03-08T10:55:40Z</time>
      </trkpt>
      <trkpt lat="46.408735737204552" lon="11.747475424781442">
        <ele>2105.4200000000001</ele>
        <time>2019-03-08T10:55:52Z</time>
      </trkpt>
      <trkpt lat="46.408730540424585" lon="11.747479951009154">
        <ele>2104.9400000000001</ele>
        <time>2019-03-08T10:56:03Z</time>
      </trkpt>
      <trkpt lat="46.408765325322747" lon="11.747490093111992">
        <ele>2104.46</ele>
        <time>2019-03-08T10:56:10Z</time>
      </trkpt>
      <trkpt lat="46.408814862370491" lon="11.747569972649217">
        <ele>2105.9099999999999</ele>
        <time>2019-03-08T10:56:20Z</time>
      </trkpt>
      <trkpt lat="46.408837409690022" lon="11.747592687606812">
        <ele>2109.27</ele>
        <time>2019-03-08T10:56:27Z</time>
      </trkpt>
      <trkpt lat="46.408930532634258" lon="11.747605176642537">
        <ele>2108.3099999999999</ele>
        <time>2019-03-08T10:56:38Z</time>
      </trkpt>
      <trkpt lat="46.408942686393857" lon="11.747651528567076">
        <ele>2108.3099999999999</ele>
        <time>2019-03-08T10:56:50Z</time>
      </trkpt>
      <trkpt lat="46.408979734405875" lon="11.747663347050548">
        <ele>2108.79</ele>
        <time>2019-03-08T10:56:59Z</time>
      </trkpt>
      <trkpt lat="46.409006807953119" lon="11.747740460559726">
        <ele>2110.71</ele>
        <time>2019-03-08T10:57:08Z</time>
      </trkpt>
      <trkpt lat="46.409014938399196" lon="11.747751273214817">
        <ele>2111.1900000000001</ele>
        <time>2019-03-08T10:57:19Z</time>
      </trkpt>
      <trkpt lat="46.409035725519061" lon="11.74780173227191">
        <ele>2112.6300000000001</ele>
        <time>2019-03-08T10:57:27Z</time>
      </trkpt>
      <trkpt lat="46.409050561487675" lon="11.747841127216816">
        <ele>2114.5599999999999</ele>
        <time>2019-03-08T10:57:36Z</time>
      </trkpt>
      <trkpt lat="46.409076796844602" lon="11.747895190492272">
        <ele>2115.52</ele>
        <time>2019-03-08T10:57:44Z</time>
      </trkpt>
      <trkpt lat="46.409105127677321" lon="11.747939111664891">
        <ele>2116.48</ele>
        <time>2019-03-08T10:57:54Z</time>
      </trkpt>
      <trkpt lat="46.409112755209208" lon="11.747960485517979">
        <ele>2118.8800000000001</ele>
        <time>2019-03-08T10:58:03Z</time>
      </trkpt>
      <trkpt lat="46.40912264585495" lon="11.747950930148363">
        <ele>2120.3200000000002</ele>
        <time>2019-03-08T10:58:10Z</time>
      </trkpt>
      <trkpt lat="46.40912021510303" lon="11.748009519651532">
        <ele>2118.8800000000001</ele>
        <time>2019-03-08T10:58:26Z</time>
      </trkpt>
      <trkpt lat="46.409159526228905" lon="11.748024774715304">
        <ele>2120.3200000000002</ele>
        <time>2019-03-08T10:58:39Z</time>
      </trkpt>
      <trkpt lat="46.409194562584162" lon="11.74812326207757">
        <ele>2123.21</ele>
        <time>2019-03-08T10:58:52Z</time>
      </trkpt>
      <trkpt lat="46.409187605604529" lon="11.748176068067551">
        <ele>2122.73</ele>
        <time>2019-03-08T10:59:01Z</time>
      </trkpt>
      <trkpt lat="46.4092150144279" lon="11.748220240697265">
        <ele>2124.1700000000001</ele>
        <time>2019-03-08T10:59:10Z</time>
      </trkpt>
      <trkpt lat="46.409212416037917" lon="11.748283104971051">
        <ele>2127.0500000000002</ele>
        <time>2019-03-08T10:59:20Z</time>
      </trkpt>
      <trkpt lat="46.409247117117047" lon="11.748324008658528">
        <ele>2128.98</ele>
        <time>2019-03-08T10:59:30Z</time>
      </trkpt>
      <trkpt lat="46.409241668879986" lon="11.748358542099595">
        <ele>2130.9000000000001</ele>
        <time>2019-03-08T10:59:35Z</time>
      </trkpt>
      <trkpt lat="46.409240998327732" lon="11.748404139652848">
        <ele>2132.8200000000002</ele>
        <time>2019-03-08T10:59:45Z</time>
      </trkpt>
      <trkpt lat="46.409266646951437" lon="11.748417131602764">
        <ele>2134.7399999999998</ele>
        <time>2019-03-08T10:59:54Z</time>
      </trkpt>
      <trkpt lat="46.409248458221555" lon="11.748437751084566">
        <ele>2136.6700000000001</ele>
        <time>2019-03-08T11:00:06Z</time>
      </trkpt>
      <trkpt lat="46.409251978620887" lon="11.748438253998756">
        <ele>2136.6700000000001</ele>
        <time>2019-03-08T11:00:17Z</time>
      </trkpt>
      <trkpt lat="46.409243261441588" lon="11.748437080532312">
        <ele>2135.23</ele>
        <time>2019-03-08T11:00:29Z</time>
      </trkpt>
      <trkpt lat="46.409250386059284" lon="11.748494161292911">
        <ele>2137.6300000000001</ele>
        <time>2019-03-08T11:00:39Z</time>
      </trkpt>
      <trkpt lat="46.409278800711036" lon="11.74851268529892">
        <ele>2139.0700000000002</ele>
        <time>2019-03-08T11:00:50Z</time>
      </trkpt>
      <trkpt lat="46.409270502626896" lon="11.748594073578715">
        <ele>2140.9899999999998</ele>
        <time>2019-03-08T11:01:02Z</time>
      </trkpt>
      <trkpt lat="46.409262791275978" lon="11.74865048378706">
        <ele>2142.9200000000001</ele>
        <time>2019-03-08T11:01:12Z</time>
      </trkpt>
      <trkpt lat="46.409240160137415" lon="11.748717119917274">
        <ele>2146.2800000000002</ele>
        <time>2019-03-08T11:01:22Z</time>
      </trkpt>
      <trkpt lat="46.409235717728734" lon="11.748761795461178">
        <ele>2146.2800000000002</ele>
        <time>2019-03-08T11:01:31Z</time>
      </trkpt>
      <trkpt lat="46.409256253391504" lon="11.748761460185051">
        <ele>2145.8000000000002</ele>
        <time>2019-03-08T11:01:42Z</time>
      </trkpt>
      <trkpt lat="46.409238064661622" lon="11.748851062729955">
        <ele>2148.6799999999998</ele>
        <time>2019-03-08T11:01:53Z</time>
      </trkpt>
      <trkpt lat="46.409261701628566" lon="11.748886685818434">
        <ele>2150.6100000000001</ele>
        <time>2019-03-08T11:02:04Z</time>
      </trkpt>
      <trkpt lat="46.409269077703357" lon="11.748941168189049">
        <ele>2153.4899999999998</ele>
        <time>2019-03-08T11:02:14Z</time>
      </trkpt>
      <trkpt lat="46.409287098795176" lon="11.748964805155993">
        <ele>2154.9299999999998</ele>
        <time>2019-03-08T11:02:23Z</time>
      </trkpt>
      <trkpt lat="46.409311909228563" lon="11.749006044119596">
        <ele>2156.3699999999999</ele>
        <time>2019-03-08T11:02:33Z</time>
      </trkpt>
      <trkpt lat="46.409311573952436" lon="11.749055329710245">
        <ele>2157.8200000000002</ele>
        <time>2019-03-08T11:02:43Z</time>
      </trkpt>
      <trkpt lat="46.409343089908361" lon="11.749096903949976">
        <ele>2160.2199999999998</ele>
        <time>2019-03-08T11:02:53Z</time>
      </trkpt>
      <trkpt lat="46.409334205091" lon="11.749146189540625">
        <ele>2161.1799999999998</ele>
        <time>2019-03-08T11:03:02Z</time>
      </trkpt>
      <trkpt lat="46.40932934358716" lon="11.749198911711574">
        <ele>2162.6199999999999</ele>
        <time>2019-03-08T11:03:13Z</time>
      </trkpt>
      <trkpt lat="46.409316686913371" lon="11.749262781813741">
        <ele>2164.5500000000002</ele>
        <time>2019-03-08T11:03:24Z</time>
      </trkpt>
      <trkpt lat="46.409321967512369" lon="11.749297315254807">
        <ele>2165.0300000000002</ele>
        <time>2019-03-08T11:03:33Z</time>
      </trkpt>
      <trkpt lat="46.40932884067297" lon="11.749340230599046">
        <ele>2166.9499999999998</ele>
        <time>2019-03-08T11:03:42Z</time>
      </trkpt>
      <trkpt lat="46.40930931083858" lon="11.749387923628092">
        <ele>2168.3899999999999</ele>
        <time>2019-03-08T11:03:50Z</time>
      </trkpt>
      <trkpt lat="46.409329930320382" lon="11.74941080622375">
        <ele>2169.3499999999999</ele>
        <time>2019-03-08T11:04:00Z</time>
      </trkpt>
      <trkpt lat="46.409346023574471" lon="11.749466713517904">
        <ele>2170.79</ele>
        <time>2019-03-08T11:04:09Z</time>
      </trkpt>
      <trkpt lat="46.409325320273638" lon="11.749489009380341">
        <ele>2173.6799999999998</ele>
        <time>2019-03-08T11:04:19Z</time>
      </trkpt>
      <trkpt lat="46.409324482083321" lon="11.749488087370992">
        <ele>2173.1999999999998</ele>
        <time>2019-03-08T11:04:40Z</time>
      </trkpt>
      <trkpt lat="46.409310651943088" lon="11.749483309686184">
        <ele>2176.0799999999999</ele>
        <time>2019-03-08T11:04:55Z</time>
      </trkpt>
      <trkpt lat="46.409329511225224" lon="11.749529242515564">
        <ele>2176.0799999999999</ele>
        <time>2019-03-08T11:05:04Z</time>
      </trkpt>
      <trkpt lat="46.409322135150433" lon="11.749605014920235">
        <ele>2177.52</ele>
        <time>2019-03-08T11:05:15Z</time>
      </trkpt>
      <trkpt lat="46.409364379942417" lon="11.749661173671484">
        <ele>2179.4499999999998</ele>
        <time>2019-03-08T11:05:27Z</time>
      </trkpt>
      <trkpt lat="46.409368067979813" lon="11.749744489789009">
        <ele>2181.3699999999999</ele>
        <time>2019-03-08T11:05:38Z</time>
      </trkpt>
      <trkpt lat="46.409394219517708" lon="11.749795200303197">
        <ele>2182.3299999999999</ele>
        <time>2019-03-08T11:05:47Z</time>
      </trkpt>
      <trkpt lat="46.40939187258482" lon="11.749873571097851">
        <ele>2183.29</ele>
        <time>2019-03-08T11:05:58Z</time>
      </trkpt>
      <trkpt lat="46.409424310550094" lon="11.749899638816714">
        <ele>2184.73</ele>
        <time>2019-03-08T11:06:08Z</time>
      </trkpt>
      <trkpt lat="46.4094671420753" lon="11.749921850860119">
        <ele>2186.1799999999998</ele>
        <time>2019-03-08T11:06:18Z</time>
      </trkpt>
      <trkpt lat="46.409524641931057" lon="11.749942218884826">
        <ele>2187.1399999999999</ele>
        <time>2019-03-08T11:06:29Z</time>
      </trkpt>
      <trkpt lat="46.409564958885312" lon="11.749990750104189">
        <ele>2187.1399999999999</ele>
        <time>2019-03-08T11:06:40Z</time>
      </trkpt>
      <trkpt lat="46.409589350223541" lon="11.750065516680479">
        <ele>2187.1399999999999</ele>
        <time>2019-03-08T11:06:50Z</time>
      </trkpt>
      <trkpt lat="46.409609969705343" lon="11.750108348205686">
        <ele>2188.0999999999999</ele>
        <time>2019-03-08T11:07:02Z</time>
      </trkpt>
      <trkpt lat="46.409669565036893" lon="11.750153778120875">
        <ele>2188.0999999999999</ele>
        <time>2019-03-08T11:08:08Z</time>
      </trkpt>
      <trkpt lat="46.409667134284973" lon="11.750182444229722">
        <ele>2186.6599999999999</ele>
        <time>2019-03-08T11:09:56Z</time>
      </trkpt>
      <trkpt lat="46.409650957211852" lon="11.750246062874794">
        <ele>2185.6900000000001</ele>
        <time>2019-03-08T11:10:04Z</time>
      </trkpt>
      <trkpt lat="46.409618770703673" lon="11.750449407845736">
        <ele>2185.21</ele>
        <time>2019-03-08T11:11:16Z</time>
      </trkpt>
      <trkpt lat="46.409614160656929" lon="11.750542279332876">
        <ele>2183.77</ele>
        <time>2019-03-08T11:11:26Z</time>
      </trkpt>
      <trkpt lat="46.409594211727381" lon="11.750673959031701">
        <ele>2182.3299999999999</ele>
        <time>2019-03-08T11:11:37Z</time>
      </trkpt>
      <trkpt lat="46.409583566710353" lon="11.750808907672763">
        <ele>2181.3699999999999</ele>
        <time>2019-03-08T11:11:49Z</time>
      </trkpt>
      <trkpt lat="46.409579208120704" lon="11.75088694319129">
        <ele>2181.3699999999999</ele>
        <time>2019-03-08T11:11:56Z</time>
      </trkpt>
      <trkpt lat="46.409587170928717" lon="11.750997751951218">
        <ele>2180.8899999999999</ele>
        <time>2019-03-08T11:12:07Z</time>
      </trkpt>
      <trkpt lat="46.409592870622873" lon="11.751084420830011">
        <ele>2180.8899999999999</ele>
        <time>2019-03-08T11:12:19Z</time>
      </trkpt>
      <trkpt lat="46.409576777368784" lon="11.751174777746201">
        <ele>2182.3299999999999</ele>
        <time>2019-03-08T11:12:30Z</time>
      </trkpt>
      <trkpt lat="46.409588763490319" lon="11.751282317563891">
        <ele>2181.8499999999999</ele>
        <time>2019-03-08T11:12:43Z</time>
      </trkpt>
      <trkpt lat="46.409617010504007" lon="11.751383570954204">
        <ele>2181.8499999999999</ele>
        <time>2019-03-08T11:12:56Z</time>
      </trkpt>
      <trkpt lat="46.409632014110684" lon="11.751456158235669">
        <ele>2181.8499999999999</ele>
        <time>2019-03-08T11:13:05Z</time>
      </trkpt>
      <trkpt lat="46.409659255295992" lon="11.751528913155198">
        <ele>2182.3299999999999</ele>
        <time>2019-03-08T11:13:16Z</time>
      </trkpt>
      <trkpt lat="46.409662608057261" lon="11.75159253180027">
        <ele>2183.77</ele>
        <time>2019-03-08T11:13:26Z</time>
      </trkpt>
      <trkpt lat="46.40965573489666" lon="11.751919509842992">
        <ele>2187.1399999999999</ele>
        <time>2019-03-08T11:27:38Z</time>
      </trkpt>
      <trkpt lat="46.409616423770785" lon="11.752042220905423">
        <ele>2187.6199999999999</ele>
        <time>2019-03-08T11:27:49Z</time>
      </trkpt>
      <trkpt lat="46.409603683277965" lon="11.752178091555834">
        <ele>2189.54</ele>
        <time>2019-03-08T11:28:01Z</time>
      </trkpt>
      <trkpt lat="46.409572083503008" lon="11.752286218106747">
        <ele>2190.5</ele>
        <time>2019-03-08T11:28:11Z</time>
      </trkpt>
      <trkpt lat="46.40954626724124" lon="11.752386381849647">
        <ele>2190.5</ele>
        <time>2019-03-08T11:28:22Z</time>
      </trkpt>
      <trkpt lat="46.409534197300673" lon="11.752488892525434">
        <ele>2190.98</ele>
        <time>2019-03-08T11:28:31Z</time>
      </trkpt>
      <trkpt lat="46.409533275291324" lon="11.752584697678685">
        <ele>2191.9400000000001</ele>
        <time>2019-03-08T11:28:41Z</time>
      </trkpt>
      <trkpt lat="46.409532688558102" lon="11.752669773995876">
        <ele>2193.8699999999999</ele>
        <time>2019-03-08T11:28:52Z</time>
      </trkpt>
      <trkpt lat="46.409542327746749" lon="11.752736577764153">
        <ele>2193.8699999999999</ele>
        <time>2019-03-08T11:29:02Z</time>
      </trkpt>
      <trkpt lat="46.409560097381473" lon="11.752819055691361">
        <ele>2194.3499999999999</ele>
        <time>2019-03-08T11:29:11Z</time>
      </trkpt>
      <trkpt lat="46.409587757661939" lon="11.752906898036599">
        <ele>2194.8299999999999</ele>
        <time>2019-03-08T11:29:22Z</time>
      </trkpt>
      <trkpt lat="46.40961273573339" lon="11.753030950203538">
        <ele>2193.8699999999999</ele>
        <time>2019-03-08T11:29:32Z</time>
      </trkpt>
      <trkpt lat="46.409620363265276" lon="11.753124576061964">
        <ele>2192.4200000000001</ele>
        <time>2019-03-08T11:29:42Z</time>
      </trkpt>
      <trkpt lat="46.40962690114975" lon="11.753250388428569">
        <ele>2191.46</ele>
        <time>2019-03-08T11:29:53Z</time>
      </trkpt>
      <trkpt lat="46.409658920019865" lon="11.753335213288665">
        <ele>2190.98</ele>
        <time>2019-03-08T11:30:05Z</time>
      </trkpt>
      <trkpt lat="46.409717174246907" lon="11.753440070897341">
        <ele>2190.98</ele>
        <time>2019-03-08T11:30:17Z</time>
      </trkpt>
      <trkpt lat="46.409727819263935" lon="11.753471586853266">
        <ele>2190.5</ele>
        <time>2019-03-08T11:30:31Z</time>
      </trkpt>
      <trkpt lat="46.409818259999156" lon="11.753504443913698">
        <ele>2189.0599999999999</ele>
        <time>2019-03-08T11:30:40Z</time>
      </trkpt>
      <trkpt lat="46.409901240840554" lon="11.753491703420877">
        <ele>2188.0999999999999</ele>
        <time>2019-03-08T11:30:48Z</time>
      </trkpt>
      <trkpt lat="46.409965781494975" lon="11.753479884937406">
        <ele>2188.5799999999999</ele>
        <time>2019-03-08T11:30:59Z</time>
      </trkpt>
      <trkpt lat="46.410033842548728" lon="11.753469491377473">
        <ele>2190.98</ele>
        <time>2019-03-08T11:31:11Z</time>
      </trkpt>
      <trkpt lat="46.410094108432531" lon="11.75345616415143">
        <ele>2192.4200000000001</ele>
        <time>2019-03-08T11:31:20Z</time>
      </trkpt>
      <trkpt lat="46.410151356831193" lon="11.75343906506896">
        <ele>2192.4200000000001</ele>
        <time>2019-03-08T11:31:31Z</time>
      </trkpt>
      <trkpt lat="46.410207096487284" lon="11.753425067290664">
        <ele>2194.3499999999999</ele>
        <time>2019-03-08T11:31:41Z</time>
      </trkpt>
      <trkpt lat="46.410249341279268" lon="11.753458511084318">
        <ele>2197.23</ele>
        <time>2019-03-08T11:31:49Z</time>
      </trkpt>
      <trkpt lat="46.410297118127346" lon="11.753488350659609">
        <ele>2197.71</ele>
        <time>2019-03-08T11:31:59Z</time>
      </trkpt>
      <trkpt lat="46.410334082320333" lon="11.753527410328388">
        <ele>2197.23</ele>
        <time>2019-03-08T11:32:10Z</time>
      </trkpt>
      <trkpt lat="46.410358473658562" lon="11.753619275987148">
        <ele>2197.23</ele>
        <time>2019-03-08T11:32:23Z</time>
      </trkpt>
      <trkpt lat="46.410384960472584" lon="11.753673339262605">
        <ele>2197.23</ele>
        <time>2019-03-08T11:32:29Z</time>
      </trkpt>
      <trkpt lat="46.410411698743701" lon="11.753772916272283">
        <ele>2196.75</ele>
        <time>2019-03-08T11:32:41Z</time>
      </trkpt>
      <trkpt lat="46.410439275205135" lon="11.753844497725368">
        <ele>2196.75</ele>
        <time>2019-03-08T11:32:52Z</time>
      </trkpt>
      <trkpt lat="46.41046978533268" lon="11.753896633163095">
        <ele>2196.27</ele>
        <time>2019-03-08T11:33:04Z</time>
      </trkpt>
      <trkpt lat="46.410512700676918" lon="11.753938877955079">
        <ele>2195.79</ele>
        <time>2019-03-08T11:33:16Z</time>
      </trkpt>
      <trkpt lat="46.410577157512307" lon="11.75400098785758">
        <ele>2197.23</ele>
        <time>2019-03-08T11:33:28Z</time>
      </trkpt>
      <trkpt lat="46.410628454759717" lon="11.754061672836542">
        <ele>2197.23</ele>
        <time>2019-03-08T11:33:38Z</time>
      </trkpt>
      <trkpt lat="46.410646978765726" lon="11.754106180742383">
        <ele>2197.71</ele>
        <time>2019-03-08T11:33:46Z</time>
      </trkpt>
      <trkpt lat="46.410718308761716" lon="11.754174996167421">
        <ele>2198.1900000000001</ele>
        <time>2019-03-08T11:33:59Z</time>
      </trkpt>
      <trkpt lat="46.410797266289592" lon="11.75421355292201">
        <ele>2197.23</ele>
        <time>2019-03-08T11:34:12Z</time>
      </trkpt>
      <trkpt lat="46.410868093371391" lon="11.754290331155062">
        <ele>2196.75</ele>
        <time>2019-03-08T11:34:24Z</time>
      </trkpt>
      <trkpt lat="46.4109056442976" lon="11.754374401643872">
        <ele>2196.27</ele>
        <time>2019-03-08T11:34:35Z</time>
      </trkpt>
      <trkpt lat="46.410945206880569" lon="11.754448497667909">
        <ele>2197.23</ele>
        <time>2019-03-08T11:34:48Z</time>
      </trkpt>
      <trkpt lat="46.410982422530651" lon="11.754588056355715">
        <ele>2196.75</ele>
        <time>2019-03-08T11:35:02Z</time>
      </trkpt>
      <trkpt lat="46.410983679816127" lon="11.754673384130001">
        <ele>2197.71</ele>
        <time>2019-03-08T11:35:14Z</time>
      </trkpt>
      <trkpt lat="46.410979069769382" lon="11.754765249788761">
        <ele>2198.1900000000001</ele>
        <time>2019-03-08T11:35:24Z</time>
      </trkpt>
      <trkpt lat="46.410991810262203" lon="11.754828784614801">
        <ele>2199.6300000000001</ele>
        <time>2019-03-08T11:35:35Z</time>
      </trkpt>
      <trkpt lat="46.4110092446208" lon="11.754918890073895">
        <ele>2200.1100000000001</ele>
        <time>2019-03-08T11:35:45Z</time>
      </trkpt>
      <trkpt lat="46.411047633737326" lon="11.754967086017132">
        <ele>2200.1100000000001</ele>
        <time>2019-03-08T11:35:56Z</time>
      </trkpt>
      <trkpt lat="46.41109574586153" lon="11.755019472911954">
        <ele>2199.6300000000001</ele>
        <time>2019-03-08T11:36:05Z</time>
      </trkpt>
      <trkpt lat="46.41112751327455" lon="11.755049228668213">
        <ele>2199.1500000000001</ele>
        <time>2019-03-08T11:36:10Z</time>
      </trkpt>
      <trkpt lat="46.411199849098921" lon="11.755113434046507">
        <ele>2200.1100000000001</ele>
        <time>2019-03-08T11:36:21Z</time>
      </trkpt>
      <trkpt lat="46.411230945959687" lon="11.755222482606769">
        <ele>2202.04</ele>
        <time>2019-03-08T11:36:37Z</time>
      </trkpt>
      <trkpt lat="46.411249469965696" lon="11.75528459250927">
        <ele>2202.52</ele>
        <time>2019-03-08T11:36:47Z</time>
      </trkpt>
      <trkpt lat="46.411307975649834" lon="11.755352066829801">
        <ele>2203.96</ele>
        <time>2019-03-08T11:37:02Z</time>
      </trkpt>
      <trkpt lat="46.411383412778378" lon="11.755398251116276">
        <ele>2203.48</ele>
        <time>2019-03-08T11:37:14Z</time>
      </trkpt>
      <trkpt lat="46.411409983411431" lon="11.755406381562352">
        <ele>2201.5599999999999</ele>
        <time>2019-03-08T11:37:23Z</time>
      </trkpt>
      <trkpt lat="46.411443594843149" lon="11.755409482866526">
        <ele>2202.04</ele>
        <time>2019-03-08T11:37:34Z</time>
      </trkpt>
      <trkpt lat="46.411487683653831" lon="11.755453571677208">
        <ele>2203.96</ele>
        <time>2019-03-08T11:37:44Z</time>
      </trkpt>
      <trkpt lat="46.411550799384713" lon="11.755529930815101">
        <ele>2204.4400000000001</ele>
        <time>2019-03-08T11:37:55Z</time>
      </trkpt>
      <trkpt lat="46.411602599546313" lon="11.755559099838138">
        <ele>2206.8400000000001</ele>
        <time>2019-03-08T11:38:06Z</time>
      </trkpt>
      <trkpt lat="46.411658590659499" lon="11.755657084286213">
        <ele>2205.4000000000001</ele>
        <time>2019-03-08T11:38:18Z</time>
      </trkpt>
      <trkpt lat="46.411694381386042" lon="11.755723468959332">
        <ele>2204.4400000000001</ele>
        <time>2019-03-08T11:38:29Z</time>
      </trkpt>
      <trkpt lat="46.41173436306417" lon="11.755783399567008">
        <ele>2205.4000000000001</ele>
        <time>2019-03-08T11:38:39Z</time>
      </trkpt>
      <trkpt lat="46.411753389984369" lon="11.755781807005405">
        <ele>2204.9200000000001</ele>
        <time>2019-03-08T11:38:49Z</time>
      </trkpt>
      <trkpt lat="46.411784319207072" lon="11.75574878230691">
        <ele>2206.3600000000001</ele>
        <time>2019-03-08T11:39:01Z</time>
      </trkpt>
      <trkpt lat="46.411833772435784" lon="11.75571751780808">
        <ele>2207.3200000000002</ele>
        <time>2019-03-08T11:39:11Z</time>
      </trkpt>
      <trkpt lat="46.411872580647469" lon="11.755693545565009">
        <ele>2208.29</ele>
        <time>2019-03-08T11:39:25Z</time>
      </trkpt>
      <trkpt lat="46.411924129351974" lon="11.755722714588046">
        <ele>2210.21</ele>
        <time>2019-03-08T11:39:35Z</time>
      </trkpt>
      <trkpt lat="46.411948688328266" lon="11.755782812833786">
        <ele>2212.1300000000001</ele>
        <time>2019-03-08T11:39:46Z</time>
      </trkpt>
      <trkpt lat="46.411965200677514" lon="11.755832014605403">
        <ele>2214.5300000000002</ele>
        <time>2019-03-08T11:39:56Z</time>
      </trkpt>
      <trkpt lat="46.411975007504225" lon="11.755862357094884">
        <ele>2211.1700000000001</ele>
        <time>2019-03-08T11:41:06Z</time>
      </trkpt>
      <trkpt lat="46.41199822537601" lon="11.755914660170674">
        <ele>2212.1300000000001</ele>
        <time>2019-03-08T11:41:12Z</time>
      </trkpt>
      <trkpt lat="46.41202655620873" lon="11.756000071763992">
        <ele>2214.0500000000002</ele>
        <time>2019-03-08T11:41:22Z</time>
      </trkpt>
      <trkpt lat="46.412045331671834" lon="11.756087830290198">
        <ele>2215.5</ele>
        <time>2019-03-08T11:41:30Z</time>
      </trkpt>
      <trkpt lat="46.412052791565657" lon="11.756198639050126">
        <ele>2215.98</ele>
        <time>2019-03-08T11:41:39Z</time>
      </trkpt>
      <trkpt lat="46.412074333056808" lon="11.756339622661471">
        <ele>2214.5300000000002</ele>
        <time>2019-03-08T11:41:51Z</time>
      </trkpt>
      <trkpt lat="46.412098053842783" lon="11.756454538553953">
        <ele>2214.5300000000002</ele>
        <time>2019-03-08T11:42:04Z</time>
      </trkpt>
      <trkpt lat="46.412099646404386" lon="11.756519582122564">
        <ele>2215.5</ele>
        <time>2019-03-08T11:42:15Z</time>
      </trkpt>
      <trkpt lat="46.412108447402716" lon="11.756595186889172">
        <ele>2217.4200000000001</ele>
        <time>2019-03-08T11:42:25Z</time>
      </trkpt>
      <trkpt lat="46.412124959751964" lon="11.756668360903859">
        <ele>2218.3800000000001</ele>
        <time>2019-03-08T11:42:38Z</time>
      </trkpt>
      <trkpt lat="46.412125378847122" lon="11.756733655929565">
        <ele>2219.8200000000002</ele>
        <time>2019-03-08T11:42:50Z</time>
      </trkpt>
      <trkpt lat="46.412126133218408" lon="11.756807416677475">
        <ele>2222.2199999999998</ele>
        <time>2019-03-08T11:42:59Z</time>
      </trkpt>
      <trkpt lat="46.412146333605051" lon="11.756924847140908">
        <ele>2223.1900000000001</ele>
        <time>2019-03-08T11:43:14Z</time>
      </trkpt>
      <trkpt lat="46.412129402160645" lon="11.757011096924543">
        <ele>2223.6700000000001</ele>
        <time>2019-03-08T11:43:25Z</time>
      </trkpt>
      <trkpt lat="46.412104424089193" lon="11.757124001160264">
        <ele>2225.5900000000001</ele>
        <time>2019-03-08T11:43:36Z</time>
      </trkpt>
      <trkpt lat="46.412086235359311" lon="11.757156942039728">
        <ele>2225.5900000000001</ele>
        <time>2019-03-08T11:43:45Z</time>
      </trkpt>
      <trkpt lat="46.412048432976007" lon="11.75723665393889">
        <ele>2226.5500000000002</ele>
        <time>2019-03-08T11:43:56Z</time>
      </trkpt>
      <trkpt lat="46.4120470918715" lon="11.757291974499822">
        <ele>2227.9899999999998</ele>
        <time>2019-03-08T11:44:07Z</time>
      </trkpt>
      <trkpt lat="46.412032004445791" lon="11.757372943684459">
        <ele>2228.9499999999998</ele>
        <time>2019-03-08T11:44:17Z</time>
      </trkpt>
      <trkpt lat="46.412046337500215" lon="11.757392976433039">
        <ele>2229.4299999999998</ele>
        <time>2019-03-08T11:44:25Z</time>
      </trkpt>
      <trkpt lat="46.412041140720248" lon="11.757465982809663">
        <ele>2227.9899999999998</ele>
        <time>2019-03-08T11:44:39Z</time>
      </trkpt>
      <trkpt lat="46.412032255902886" lon="11.757569247856736">
        <ele>2227.5100000000002</ele>
        <time>2019-03-08T11:44:51Z</time>
      </trkpt>
      <trkpt lat="46.412012306973338" lon="11.757572432979941">
        <ele>2226.5500000000002</ele>
        <time>2019-03-08T11:45:02Z</time>
      </trkpt>
      <trkpt lat="46.41201339662075" lon="11.757578467950225">
        <ele>2227.0300000000002</ele>
        <time>2019-03-08T11:45:09Z</time>
      </trkpt>
      <trkpt lat="46.412025718018413" lon="11.757651474326849">
        <ele>2226.5500000000002</ele>
        <time>2019-03-08T11:45:19Z</time>
      </trkpt>
      <trkpt lat="46.412052791565657" lon="11.757749039679766">
        <ele>2227.9899999999998</ele>
        <time>2019-03-08T11:45:30Z</time>
      </trkpt>
      <trkpt lat="46.412066956982017" lon="11.757778879255056">
        <ele>2227.5100000000002</ele>
        <time>2019-03-08T11:45:38Z</time>
      </trkpt>
      <trkpt lat="46.41206762753427" lon="11.757839731872082">
        <ele>2227.5100000000002</ele>
        <time>2019-03-08T11:45:47Z</time>
      </trkpt>
      <trkpt lat="46.412073243409395" lon="11.75795154646039">
        <ele>2227.0300000000002</ele>
        <time>2019-03-08T11:45:57Z</time>
      </trkpt>
      <trkpt lat="46.412073243409395" lon="11.758069396018982">
        <ele>2228.9499999999998</ele>
        <time>2019-03-08T11:46:09Z</time>
      </trkpt>
      <trkpt lat="46.412059077993035" lon="11.758182384073734">
        <ele>2229.9200000000001</ele>
        <time>2019-03-08T11:46:21Z</time>
      </trkpt>
      <trkpt lat="46.412058910354972" lon="11.758268550038338">
        <ele>2230.4000000000001</ele>
        <time>2019-03-08T11:46:31Z</time>
      </trkpt>
      <trkpt lat="46.412055641412735" lon="11.758297383785248">
        <ele>2230.8800000000001</ele>
        <time>2019-03-08T11:46:34Z</time>
      </trkpt>
      <trkpt lat="46.412024460732937" lon="11.758422357961535">
        <ele>2232.3200000000002</ele>
        <time>2019-03-08T11:46:46Z</time>
      </trkpt>
      <trkpt lat="46.412016162648797" lon="11.758494107052684">
        <ele>2234.2399999999998</ele>
        <time>2019-03-08T11:46:55Z</time>
      </trkpt>
      <trkpt lat="46.411998644471169" lon="11.758579853922129">
        <ele>2234.7199999999998</ele>
        <time>2019-03-08T11:47:05Z</time>
      </trkpt>
      <trkpt lat="46.411985736340284" lon="11.758682783693075">
        <ele>2234.7199999999998</ele>
        <time>2019-03-08T11:47:16Z</time>
      </trkpt>
      <trkpt lat="46.411966374143958" lon="11.758782025426626">
        <ele>2236.1599999999999</ele>
        <time>2019-03-08T11:47:28Z</time>
      </trkpt>
      <trkpt lat="46.411935444921255" lon="11.758864335715771">
        <ele>2237.1300000000001</ele>
        <time>2019-03-08T11:47:38Z</time>
      </trkpt>
      <trkpt lat="46.411934271454811" lon="11.758920578286052">
        <ele>2237.6100000000001</ele>
        <time>2019-03-08T11:47:50Z</time>
      </trkpt>
      <trkpt lat="46.411931002512574" lon="11.758986124768853">
        <ele>2237.6100000000001</ele>
        <time>2019-03-08T11:48:00Z</time>
      </trkpt>
      <trkpt lat="46.411880543455482" lon="11.759071704000235">
        <ele>2239.0500000000002</ele>
        <time>2019-03-08T11:48:12Z</time>
      </trkpt>
      <trkpt lat="46.411842657253146" lon="11.75915552303195">
        <ele>2240.0100000000002</ele>
        <time>2019-03-08T11:48:23Z</time>
      </trkpt>
      <trkpt lat="46.411811811849475" lon="11.759221153333783">
        <ele>2241.4499999999998</ele>
        <time>2019-03-08T11:48:33Z</time>
      </trkpt>
      <trkpt lat="46.411794545128942" lon="11.759245460852981">
        <ele>2240.9699999999998</ele>
        <time>2019-03-08T11:48:41Z</time>
      </trkpt>
      <trkpt lat="46.411768477410078" lon="11.759275300428271">
        <ele>2241.4499999999998</ele>
        <time>2019-03-08T11:48:56Z</time>
      </trkpt>
      <trkpt lat="46.411740481853485" lon="11.75933824852109">
        <ele>2242.4099999999999</ele>
        <time>2019-03-08T11:49:06Z</time>
      </trkpt>
      <trkpt lat="46.411715922877192" lon="11.759393401443958">
        <ele>2241.9299999999998</ele>
        <time>2019-03-08T11:49:16Z</time>
      </trkpt>
      <trkpt lat="46.411681137979031" lon="11.759451571851969">
        <ele>2243.3699999999999</ele>
        <time>2019-03-08T11:49:26Z</time>
      </trkpt>
      <trkpt lat="46.411650879308581" lon="11.759488033130765">
        <ele>2244.3299999999999</ele>
        <time>2019-03-08T11:49:35Z</time>
      </trkpt>
      <trkpt lat="46.411622799932957" lon="11.759551567956805">
        <ele>2245.3000000000002</ele>
        <time>2019-03-08T11:49:46Z</time>
      </trkpt>
      <trkpt lat="46.411603605374694" lon="11.759597584605217">
        <ele>2248.1799999999998</ele>
        <time>2019-03-08T11:49:54Z</time>
      </trkpt>
      <trkpt lat="46.411584494635463" lon="11.759660365059972">
        <ele>2248.6599999999999</ele>
        <time>2019-03-08T11:50:07Z</time>
      </trkpt>
      <trkpt lat="46.411574184894562" lon="11.759691964834929">
        <ele>2248.6599999999999</ele>
        <time>2019-03-08T11:50:16Z</time>
      </trkpt>
      <trkpt lat="46.411572340875864" lon="11.759739741683006">
        <ele>2248.6599999999999</ele>
        <time>2019-03-08T11:50:25Z</time>
      </trkpt>
      <trkpt lat="46.411570245400071" lon="11.759786261245608">
        <ele>2249.1399999999999</ele>
        <time>2019-03-08T11:50:35Z</time>
      </trkpt>
      <trkpt lat="46.411558343097568" lon="11.759830517694354">
        <ele>2251.54</ele>
        <time>2019-03-08T11:50:44Z</time>
      </trkpt>
      <trkpt lat="46.411548787727952" lon="11.759859183803201">
        <ele>2252.5100000000002</ele>
        <time>2019-03-08T11:50:54Z</time>
      </trkpt>
      <trkpt lat="46.411549793556333" lon="11.759897992014885">
        <ele>2253.4699999999998</ele>
        <time>2019-03-08T11:51:05Z</time>
      </trkpt>
      <trkpt lat="46.41153889708221" lon="11.75994467921555">
        <ele>2254.4299999999998</ele>
        <time>2019-03-08T11:51:13Z</time>
      </trkpt>
      <trkpt lat="46.411535879597068" lon="11.759983906522393">
        <ele>2254.4299999999998</ele>
        <time>2019-03-08T11:51:23Z</time>
      </trkpt>
      <trkpt lat="46.411516685038805" lon="11.760060098022223">
        <ele>2254.9099999999999</ele>
        <time>2019-03-08T11:51:34Z</time>
      </trkpt>
      <trkpt lat="46.411489443853498" lon="11.760134948417544">
        <ele>2256.3499999999999</ele>
        <time>2019-03-08T11:51:44Z</time>
      </trkpt>
      <trkpt lat="46.411472260951996" lon="11.760159758850932">
        <ele>2258.75</ele>
        <time>2019-03-08T11:51:56Z</time>
      </trkpt>
      <trkpt lat="46.411443511024117" lon="11.760219857096672">
        <ele>2260.1999999999998</ele>
        <time>2019-03-08T11:52:08Z</time>
      </trkpt>
      <trkpt lat="46.411419957876205" lon="11.760274842381477">
        <ele>2261.6399999999999</ele>
        <time>2019-03-08T11:52:17Z</time>
      </trkpt>
      <trkpt lat="46.411411492154002" lon="11.760279955342412">
        <ele>2263.5599999999999</ele>
        <time>2019-03-08T11:52:27Z</time>
      </trkpt>
      <trkpt lat="46.411379221826792" lon="11.760314404964447">
        <ele>2265.48</ele>
        <time>2019-03-08T11:52:38Z</time>
      </trkpt>
      <trkpt lat="46.41135080717504" lon="11.760347848758101">
        <ele>2265.96</ele>
        <time>2019-03-08T11:52:48Z</time>
      </trkpt>
      <trkpt lat="46.411338401958346" lon="11.760358745232224">
        <ele>2267.4099999999999</ele>
        <time>2019-03-08T11:52:51Z</time>
      </trkpt>
      <trkpt lat="46.411309149116278" lon="11.760414401069283">
        <ele>2267.8899999999999</ele>
        <time>2019-03-08T11:53:01Z</time>
      </trkpt>
      <trkpt lat="46.411295738071203" lon="11.76044792868197">
        <ele>2267.4099999999999</ele>
        <time>2019-03-08T11:53:09Z</time>
      </trkpt>
      <trkpt lat="46.411292385309935" lon="11.760475253686309">
        <ele>2267.4099999999999</ele>
        <time>2019-03-08T11:53:18Z</time>
      </trkpt>
      <trkpt lat="46.411281153559685" lon="11.760524455457926">
        <ele>2268.8499999999999</ele>
        <time>2019-03-08T11:53:27Z</time>
      </trkpt>
      <trkpt lat="46.411285176873207" lon="11.7605637665838">
        <ele>2267.4099999999999</ele>
        <time>2019-03-08T11:53:38Z</time>
      </trkpt>
      <trkpt lat="46.411278136074543" lon="11.76056276075542">
        <ele>2265.96</ele>
        <time>2019-03-08T11:53:52Z</time>
      </trkpt>
      <trkpt lat="46.411273861303926" lon="11.760645406320691">
        <ele>2266.9299999999998</ele>
        <time>2019-03-08T11:54:02Z</time>
      </trkpt>
      <trkpt lat="46.41125600785017" lon="11.760759903118014">
        <ele>2267.8899999999999</ele>
        <time>2019-03-08T11:54:14Z</time>
      </trkpt>
      <trkpt lat="46.411254163831472" lon="11.760802567005157">
        <ele>2269.3299999999999</ele>
        <time>2019-03-08T11:54:22Z</time>
      </trkpt>
      <trkpt lat="46.411271011456847" lon="11.760834753513336">
        <ele>2267.4099999999999</ele>
        <time>2019-03-08T11:54:31Z</time>
      </trkpt>
      <trkpt lat="46.411254247650504" lon="11.76090382039547">
        <ele>2266.9299999999998</ele>
        <time>2019-03-08T11:54:41Z</time>
      </trkpt>
      <trkpt lat="46.411265898495913" lon="11.760932737961411">
        <ele>2265.96</ele>
        <time>2019-03-08T11:55:06Z</time>
      </trkpt>
      <trkpt lat="46.411276375874877" lon="11.761031309142709">
        <ele>2264.52</ele>
        <time>2019-03-08T11:55:15Z</time>
      </trkpt>
      <trkpt lat="46.411282662302256" lon="11.761065926402807">
        <ele>2263.0799999999999</ele>
        <time>2019-03-08T11:55:23Z</time>
      </trkpt>
      <trkpt lat="46.41129263676703" lon="11.761101968586445">
        <ele>2261.6399999999999</ele>
        <time>2019-03-08T11:55:30Z</time>
      </trkpt>
      <trkpt lat="46.411296157166362" lon="11.761169442906976">
        <ele>2262.1199999999999</ele>
        <time>2019-03-08T11:55:56Z</time>
      </trkpt>
      <trkpt lat="46.411317447200418" lon="11.761228619143367">
        <ele>2259.7199999999998</ele>
        <time>2019-03-08T11:56:14Z</time>
      </trkpt>
      <trkpt lat="46.411357093602419" lon="11.761282682418823">
        <ele>2257.3099999999999</ele>
        <time>2019-03-08T11:56:24Z</time>
      </trkpt>
      <trkpt lat="46.411382239311934" lon="11.761332890018821">
        <ele>2255.8699999999999</ele>
        <time>2019-03-08T11:56:32Z</time>
      </trkpt>
      <trkpt lat="46.411378551274538" lon="11.76135384477675">
        <ele>2253.9499999999998</ele>
        <time>2019-03-08T11:56:51Z</time>
      </trkpt>
      <trkpt lat="46.411420460790396" lon="11.761403968557715">
        <ele>2251.54</ele>
        <time>2019-03-08T11:57:00Z</time>
      </trkpt>
      <trkpt lat="46.411460023373365" lon="11.761466162279248">
        <ele>2249.1399999999999</ele>
        <time>2019-03-08T11:57:10Z</time>
      </trkpt>
      <trkpt lat="46.41147636808455" lon="11.761504802852869">
        <ele>2246.2600000000002</ele>
        <time>2019-03-08T11:57:23Z</time>
      </trkpt>
      <trkpt lat="46.411500675603747" lon="11.761564146727324">
        <ele>2247.6999999999998</ele>
        <time>2019-03-08T11:59:17Z</time>
      </trkpt>
      <trkpt lat="46.411509225144982" lon="11.761572696268559">
        <ele>2247.2199999999998</ele>
        <time>2019-03-08T11:59:18Z</time>
      </trkpt>
      <trkpt lat="46.4115428365767" lon="11.761601949110627">
        <ele>2246.2600000000002</ele>
        <time>2019-03-08T11:59:21Z</time>
      </trkpt>
      <trkpt lat="46.411585081368685" lon="11.761640170589089">
        <ele>2243.3699999999999</ele>
        <time>2019-03-08T11:59:27Z</time>
      </trkpt>
      <trkpt lat="46.411635791882873" lon="11.761714098975062">
        <ele>2239.5300000000002</ele>
        <time>2019-03-08T11:59:34Z</time>
      </trkpt>
      <trkpt lat="46.411651466041803" lon="11.761725749820471">
        <ele>2234.7199999999998</ele>
        <time>2019-03-08T12:00:02Z</time>
      </trkpt>
      <trkpt lat="46.411681640893221" lon="11.761768748983741">
        <ele>2234.7199999999998</ele>
        <time>2019-03-08T12:00:12Z</time>
      </trkpt>
      <trkpt lat="46.41170653514564" lon="11.761839156970382">
        <ele>2231.8400000000001</ele>
        <time>2019-03-08T12:00:16Z</time>
      </trkpt>
      <trkpt lat="46.411753138527274" lon="11.761938985437155">
        <ele>2227.5100000000002</ele>
        <time>2019-03-08T12:00:22Z</time>
      </trkpt>
      <trkpt lat="46.41178909689188" lon="11.762003023177385">
        <ele>2224.1500000000001</ele>
        <time>2019-03-08T12:00:26Z</time>
      </trkpt>
      <trkpt lat="46.411830671131611" lon="11.762099415063858">
        <ele>2220.7800000000002</ele>
        <time>2019-03-08T12:00:32Z</time>
      </trkpt>
      <trkpt lat="46.411868054419756" lon="11.762189604341984">
        <ele>2217.4200000000001</ele>
        <time>2019-03-08T12:00:37Z</time>
      </trkpt>
      <trkpt lat="46.411900324746966" lon="11.762265712022781">
        <ele>2213.5700000000002</ele>
        <time>2019-03-08T12:00:42Z</time>
      </trkpt>
      <trkpt lat="46.411926057189703" lon="11.76232966594398">
        <ele>2210.21</ele>
        <time>2019-03-08T12:00:47Z</time>
      </trkpt>
      <trkpt lat="46.411949526518583" lon="11.762416502460837">
        <ele>2207.3200000000002</ele>
        <time>2019-03-08T12:00:53Z</time>
      </trkpt>
      <trkpt lat="46.411982635036111" lon="11.762499399483204">
        <ele>2203.96</ele>
        <time>2019-03-08T12:00:59Z</time>
      </trkpt>
      <trkpt lat="46.4119987282902" lon="11.76254072226584">
        <ele>2203</ele>
        <time>2019-03-08T12:01:02Z</time>
      </trkpt>
      <trkpt lat="46.412052037194371" lon="11.762656727805734">
        <ele>2199.1500000000001</ele>
        <time>2019-03-08T12:01:11Z</time>
      </trkpt>
      <trkpt lat="46.412064442411065" lon="11.762732500210404">
        <ele>2201.0799999999999</ele>
        <time>2019-03-08T12:01:58Z</time>
      </trkpt>
      <trkpt lat="46.412095874547958" lon="11.762775247916579">
        <ele>2199.6300000000001</ele>
        <time>2019-03-08T12:02:02Z</time>
      </trkpt>
      <trkpt lat="46.412116661667824" lon="11.762790754437447">
        <ele>2198.6700000000001</ele>
        <time>2019-03-08T12:02:04Z</time>
      </trkpt>
      <trkpt lat="46.412132671102881" lon="11.762809446081519">
        <ele>2197.71</ele>
        <time>2019-03-08T12:02:06Z</time>
      </trkpt>
      <trkpt lat="46.412173323333263" lon="11.762859234586358">
        <ele>2194.8299999999999</ele>
        <time>2019-03-08T12:02:11Z</time>
      </trkpt>
      <trkpt lat="46.412221686914563" lon="11.762936851009727">
        <ele>2191.46</ele>
        <time>2019-03-08T12:02:18Z</time>
      </trkpt>
      <trkpt lat="46.41224155202508" lon="11.762978173792362">
        <ele>2189.54</ele>
        <time>2019-03-08T12:02:21Z</time>
      </trkpt>
      <trkpt lat="46.412256471812725" lon="11.763003906235099">
        <ele>2188.0999999999999</ele>
        <time>2019-03-08T12:02:23Z</time>
      </trkpt>
      <trkpt lat="46.412286395207047" lon="11.763046234846115">
        <ele>2184.73</ele>
        <time>2019-03-08T12:02:27Z</time>
      </trkpt>
      <trkpt lat="46.412325538694859" lon="11.763141537085176">
        <ele>2180.8899999999999</ele>
        <time>2019-03-08T12:02:34Z</time>
      </trkpt>
      <trkpt lat="46.41236275434494" lon="11.763218315318227">
        <ele>2178</ele>
        <time>2019-03-08T12:02:40Z</time>
      </trkpt>
      <trkpt lat="46.412393264472485" lon="11.763270115479827">
        <ele>2176.5599999999999</ele>
        <time>2019-03-08T12:02:44Z</time>
      </trkpt>
      <trkpt lat="46.412468450143933" lon="11.76336214877665">
        <ele>2173.6799999999998</ele>
        <time>2019-03-08T12:02:54Z</time>
      </trkpt>
      <trkpt lat="46.412566937506199" lon="11.763429623097181">
        <ele>2170.79</ele>
        <time>2019-03-08T12:03:04Z</time>
      </trkpt>
      <trkpt lat="46.412678752094507" lon="11.763508748263121">
        <ele>2167.9099999999999</ele>
        <time>2019-03-08T12:03:15Z</time>
      </trkpt>
      <trkpt lat="46.412748405709863" lon="11.763572031632066">
        <ele>2165.0300000000002</ele>
        <time>2019-03-08T12:03:23Z</time>
      </trkpt>
      <trkpt lat="46.412753518670797" lon="11.763579910621047">
        <ele>2164.5500000000002</ele>
        <time>2019-03-08T12:03:24Z</time>
      </trkpt>
      <trkpt lat="46.412802888080478" lon="11.763672111555934">
        <ele>2160.6999999999998</ele>
        <time>2019-03-08T12:03:33Z</time>
      </trkpt>
      <trkpt lat="46.412854604423046" lon="11.763736819848418">
        <ele>2157.3400000000001</ele>
        <time>2019-03-08T12:03:41Z</time>
      </trkpt>
      <trkpt lat="46.412893244996667" lon="11.763790044933558">
        <ele>2154.9299999999998</ele>
        <time>2019-03-08T12:03:50Z</time>
      </trkpt>
      <trkpt lat="46.412917720153928" lon="11.763824829831719">
        <ele>2153.0100000000002</ele>
        <time>2019-03-08T12:03:53Z</time>
      </trkpt>
      <trkpt lat="46.412936076521873" lon="11.763876378536224">
        <ele>2150.6100000000001</ele>
        <time>2019-03-08T12:03:57Z</time>
      </trkpt>
      <trkpt lat="46.412987373769283" lon="11.763977045193315">
        <ele>2146.2800000000002</ele>
        <time>2019-03-08T12:04:05Z</time>
      </trkpt>
      <trkpt lat="46.413011513650417" lon="11.764070838689804">
        <ele>2144.3600000000001</ele>
        <time>2019-03-08T12:04:12Z</time>
      </trkpt>
      <trkpt lat="46.413031714037061" lon="11.764122890308499">
        <ele>2142.4400000000001</ele>
        <time>2019-03-08T12:04:16Z</time>
      </trkpt>
      <trkpt lat="46.413068007677794" lon="11.764203188940883">
        <ele>2140.9899999999998</ele>
        <time>2019-03-08T12:04:25Z</time>
      </trkpt>
      <trkpt lat="46.413102624937892" lon="11.764256581664085">
        <ele>2139.5500000000002</ele>
        <time>2019-03-08T12:04:30Z</time>
      </trkpt>
      <trkpt lat="46.413150988519192" lon="11.764306537806988">
        <ele>2136.6700000000001</ele>
        <time>2019-03-08T12:04:36Z</time>
      </trkpt>
      <trkpt lat="46.413188790902495" lon="11.764346687123179">
        <ele>2133.7800000000002</ele>
        <time>2019-03-08T12:04:41Z</time>
      </trkpt>
      <trkpt lat="46.413205219432712" lon="11.764367641881108">
        <ele>2132.3400000000001</ele>
        <time>2019-03-08T12:04:43Z</time>
      </trkpt>
      <trkpt lat="46.413251655176282" lon="11.764436205849051">
        <ele>2129.46</ele>
        <time>2019-03-08T12:04:50Z</time>
      </trkpt>
      <trkpt lat="46.413281410932541" lon="11.764488341286778">
        <ele>2126.0900000000001</ele>
        <time>2019-03-08T12:04:55Z</time>
      </trkpt>
      <trkpt lat="46.413323068991303" lon="11.764583140611649">
        <ele>2123.21</ele>
        <time>2019-03-08T12:05:03Z</time>
      </trkpt>
      <trkpt lat="46.413360703736544" lon="11.76466578617692">
        <ele>2119.8400000000001</ele>
        <time>2019-03-08T12:05:14Z</time>
      </trkpt>
      <trkpt lat="46.413412252441049" lon="11.764706773683429">
        <ele>2117.4400000000001</ele>
        <time>2019-03-08T12:05:22Z</time>
      </trkpt>
      <trkpt lat="46.413451144471765" lon="11.764779193326831">
        <ele>2114.0799999999999</ele>
        <time>2019-03-08T12:05:30Z</time>
      </trkpt>
      <trkpt lat="46.413477128371596" lon="11.764828646555543">
        <ele>2110.71</ele>
        <time>2019-03-08T12:05:37Z</time>
      </trkpt>
      <trkpt lat="46.413492718711495" lon="11.764925708994269">
        <ele>2107.3499999999999</ele>
        <time>2019-03-08T12:05:46Z</time>
      </trkpt>
      <trkpt lat="46.413514344021678" lon="11.765040792524815">
        <ele>2105.4200000000001</ele>
        <time>2019-03-08T12:05:56Z</time>
      </trkpt>
      <trkpt lat="46.413517110049725" lon="11.765098376199603">
        <ele>2103.98</ele>
        <time>2019-03-08T12:06:01Z</time>
      </trkpt>
      <trkpt lat="46.413518451154232" lon="11.76517934538424">
        <ele>2100.6199999999999</ele>
        <time>2019-03-08T12:06:08Z</time>
      </trkpt>
      <trkpt lat="46.413537310436368" lon="11.765246735885739">
        <ele>2097.25</ele>
        <time>2019-03-08T12:06:15Z</time>
      </trkpt>
      <trkpt lat="46.41355549916625" lon="11.765306666493416">
        <ele>2094.3699999999999</ele>
        <time>2019-03-08T12:06:22Z</time>
      </trkpt>
      <trkpt lat="46.413584584370255" lon="11.765396101400256">
        <ele>2090.52</ele>
        <time>2019-03-08T12:06:31Z</time>
      </trkpt>
      <trkpt lat="46.413587434217334" lon="11.765412362292409">
        <ele>2090.04</ele>
        <time>2019-03-08T12:06:33Z</time>
      </trkpt>
      <trkpt lat="46.413605790585279" lon="11.765493331477046">
        <ele>2087.6399999999999</ele>
        <time>2019-03-08T12:06:42Z</time>
      </trkpt>
      <trkpt lat="46.413607802242041" lon="11.765574300661683">
        <ele>2084.7600000000002</ele>
        <time>2019-03-08T12:06:50Z</time>
      </trkpt>
      <trkpt lat="46.413606125861406" lon="11.765641523525119">
        <ele>2082.3499999999999</ele>
        <time>2019-03-08T12:06:59Z</time>
      </trkpt>
      <trkpt lat="46.413622889667749" lon="11.765755014494061">
        <ele>2080.4299999999998</ele>
        <time>2019-03-08T12:07:08Z</time>
      </trkpt>
      <trkpt lat="46.413625907152891" lon="11.765768928453326">
        <ele>2079.9499999999998</ele>
        <time>2019-03-08T12:07:09Z</time>
      </trkpt>
      <trkpt lat="46.413631439208984" lon="11.765799019485712">
        <ele>2079.4699999999998</ele>
        <time>2019-03-08T12:07:11Z</time>
      </trkpt>
      <trkpt lat="46.413653567433357" lon="11.765937237069011">
        <ele>2076.0999999999999</ele>
        <time>2019-03-08T12:07:21Z</time>
      </trkpt>
      <trkpt lat="46.413669157773256" lon="11.766027677804232">
        <ele>2073.2199999999998</ele>
        <time>2019-03-08T12:07:28Z</time>
      </trkpt>
      <trkpt lat="46.413679383695126" lon="11.766126668080688">
        <ele>2070.8200000000002</ele>
        <time>2019-03-08T12:07:36Z</time>
      </trkpt>
      <trkpt lat="46.413624566048384" lon="11.766255749389529">
        <ele>2079.9499999999998</ele>
        <time>2019-03-08T12:26:48Z</time>
      </trkpt>
      <trkpt lat="46.413583662360907" lon="11.766258850693703">
        <ele>2080.4299999999998</ele>
        <time>2019-03-08T12:26:58Z</time>
      </trkpt>
      <trkpt lat="46.41358433291316" lon="11.76634619012475">
        <ele>2081.3899999999999</ele>
        <time>2019-03-08T12:27:06Z</time>
      </trkpt>
      <trkpt lat="46.413577040657401" lon="11.766439229249954">
        <ele>2079.9499999999998</ele>
        <time>2019-03-08T12:27:17Z</time>
      </trkpt>
      <trkpt lat="46.413574442267418" lon="11.766460938379169">
        <ele>2078.0300000000002</ele>
        <time>2019-03-08T12:27:28Z</time>
      </trkpt>
      <trkpt lat="46.413542423397303" lon="11.766537465155125">
        <ele>2076.5900000000001</ele>
        <time>2019-03-08T12:27:38Z</time>
      </trkpt>
      <trkpt lat="46.413524318486452" lon="11.766582224518061">
        <ele>2074.6599999999999</ele>
        <time>2019-03-08T12:27:42Z</time>
      </trkpt>
      <trkpt lat="46.413494981825352" lon="11.76665497943759">
        <ele>2071.3000000000002</ele>
        <time>2019-03-08T12:27:52Z</time>
      </trkpt>
      <trkpt lat="46.413496490567923" lon="11.766654811799526">
        <ele>2071.3000000000002</ele>
        <time>2019-03-08T12:27:53Z</time>
      </trkpt>
      <trkpt lat="46.413504788652062" lon="11.766672413796186">
        <ele>2069.8600000000001</ele>
        <time>2019-03-08T12:27:57Z</time>
      </trkpt>
      <trkpt lat="46.413468327373266" lon="11.766762770712376">
        <ele>2064.0900000000001</ele>
        <time>2019-03-08T12:28:13Z</time>
      </trkpt>
      <trkpt lat="46.413438571617007" lon="11.766776768490672">
        <ele>2061.1999999999998</ele>
        <time>2019-03-08T12:28:18Z</time>
      </trkpt>
      <trkpt lat="46.413422646000981" lon="11.76682747900486">
        <ele>2060.7199999999998</ele>
        <time>2019-03-08T12:28:28Z</time>
      </trkpt>
      <trkpt lat="46.413458939641714" lon="11.766904089599848">
        <ele>2057.3600000000001</ele>
        <time>2019-03-08T12:28:39Z</time>
      </trkpt>
      <trkpt lat="46.41346019692719" lon="11.766912722960114">
        <ele>2057.3600000000001</ele>
        <time>2019-03-08T12:28:40Z</time>
      </trkpt>
      <trkpt lat="46.413493389263749" lon="11.766956057399511">
        <ele>2055.9200000000001</ele>
        <time>2019-03-08T12:28:48Z</time>
      </trkpt>
      <trkpt lat="46.413519792258739" lon="11.767009198665619">
        <ele>2055.4400000000001</ele>
        <time>2019-03-08T12:28:57Z</time>
      </trkpt>
      <trkpt lat="46.413524318486452" lon="11.76703467965126">
        <ele>2053.9899999999998</ele>
        <time>2019-03-08T12:29:05Z</time>
      </trkpt>
      <trkpt lat="46.413530437275767" lon="11.767149595543742">
        <ele>2050.6300000000001</ele>
        <time>2019-03-08T12:29:13Z</time>
      </trkpt>
      <trkpt lat="46.413537478074431" lon="11.767248418182135">
        <ele>2046.78</ele>
        <time>2019-03-08T12:29:21Z</time>
      </trkpt>
      <trkpt lat="46.413529934361577" lon="11.767349168658257">
        <ele>2043.9000000000001</ele>
        <time>2019-03-08T12:29:30Z</time>
      </trkpt>
      <trkpt lat="46.413521971553564" lon="11.767353946343064">
        <ele>2041.98</ele>
        <time>2019-03-08T12:29:41Z</time>
      </trkpt>
      <trkpt lat="46.413524318486452" lon="11.767389234155416">
        <ele>2042.9400000000001</ele>
        <time>2019-03-08T12:29:57Z</time>
      </trkpt>
      <trkpt lat="46.413537142798305" lon="11.767447153106332">
        <ele>2041.98</ele>
        <time>2019-03-08T12:30:02Z</time>
      </trkpt>
      <trkpt lat="46.413613669574261" lon="11.767524853348732">
        <ele>2039.0899999999999</ele>
        <time>2019-03-08T12:30:13Z</time>
      </trkpt>
      <trkpt lat="46.41367762349546" lon="11.767638260498643">
        <ele>2036.21</ele>
        <time>2019-03-08T12:30:25Z</time>
      </trkpt>
      <trkpt lat="46.413732273504138" lon="11.767706489190459">
        <ele>2033.3299999999999</ele>
        <time>2019-03-08T12:30:34Z</time>
      </trkpt>
      <trkpt lat="46.413759933784604" lon="11.767734568566084">
        <ele>2031.8800000000001</ele>
        <time>2019-03-08T12:30:38Z</time>
      </trkpt>
      <trkpt lat="46.413833443075418" lon="11.767765413969755">
        <ele>2028.52</ele>
        <time>2019-03-08T12:30:47Z</time>
      </trkpt>
      <trkpt lat="46.413885913789272" lon="11.767802964895964">
        <ele>2027.5599999999999</ele>
        <time>2019-03-08T12:30:53Z</time>
      </trkpt>
      <trkpt lat="46.413978869095445" lon="11.767832133919001">
        <ele>2025.1500000000001</ele>
        <time>2019-03-08T12:31:05Z</time>
      </trkpt>
      <trkpt lat="46.414037458598614" lon="11.767831714823842">
        <ele>2022.27</ele>
        <time>2019-03-08T12:31:13Z</time>
      </trkpt>
      <trkpt lat="46.414102334529161" lon="11.767841354012489">
        <ele>2020.8299999999999</ele>
        <time>2019-03-08T12:31:23Z</time>
      </trkpt>
      <trkpt lat="46.414170060306787" lon="11.767878904938698">
        <ele>2018.4300000000001</ele>
        <time>2019-03-08T12:31:30Z</time>
      </trkpt>
      <trkpt lat="46.414189338684082" lon="11.767938416451216">
        <ele>2016.98</ele>
        <time>2019-03-08T12:31:34Z</time>
      </trkpt>
      <trkpt lat="46.414202330633998" lon="11.768034221604466">
        <ele>2013.1400000000001</ele>
        <time>2019-03-08T12:31:41Z</time>
      </trkpt>
      <trkpt lat="46.414207778871059" lon="11.768052075058222">
        <ele>2012.1800000000001</ele>
        <time>2019-03-08T12:31:43Z</time>
      </trkpt>
      <trkpt lat="46.414166120812297" lon="11.768161291256547">
        <ele>2009.77</ele>
        <time>2019-03-08T12:31:53Z</time>
      </trkpt>
      <trkpt lat="46.414164612069726" lon="11.768174534663558">
        <ele>2009.29</ele>
        <time>2019-03-08T12:31:54Z</time>
      </trkpt>
      <trkpt lat="46.414153296500444" lon="11.768222898244858">
        <ele>2008.8099999999999</ele>
        <time>2019-03-08T12:31:57Z</time>
      </trkpt>
      <trkpt lat="46.414116164669394" lon="11.76836178638041">
        <ele>2010.25</ele>
        <time>2019-03-08T12:32:07Z</time>
      </trkpt>
      <trkpt lat="46.414107196033001" lon="11.768526993691921">
        <ele>2009.77</ele>
        <time>2019-03-08T12:32:19Z</time>
      </trkpt>
      <trkpt lat="46.414103507995605" lon="11.768580554053187">
        <ele>2008.3299999999999</ele>
        <time>2019-03-08T12:32:23Z</time>
      </trkpt>
      <trkpt lat="46.414102502167225" lon="11.768630007281899">
        <ele>2006.8900000000001</ele>
        <time>2019-03-08T12:32:27Z</time>
      </trkpt>
      <trkpt lat="46.414112811908126" lon="11.7687145806849">
        <ele>2003.52</ele>
        <time>2019-03-08T12:32:34Z</time>
      </trkpt>
      <trkpt lat="46.414113901555538" lon="11.768735367804766">
        <ele>2000.6400000000001</ele>
        <time>2019-03-08T12:32:39Z</time>
      </trkpt>
      <trkpt lat="46.414104010909796" lon="11.7687663808465">
        <ele>1998.72</ele>
        <time>2019-03-08T12:32:57Z</time>
      </trkpt>
      <trkpt lat="46.41412865370512" lon="11.768895210698247">
        <ele>1999.2</ele>
        <time>2019-03-08T12:33:07Z</time>
      </trkpt>
      <trkpt lat="46.414112811908126" lon="11.769038373604417">
        <ele>1997.76</ele>
        <time>2019-03-08T12:33:18Z</time>
      </trkpt>
      <trkpt lat="46.414095880463719" lon="11.769097549840808">
        <ele>1996.8</ele>
        <time>2019-03-08T12:33:23Z</time>
      </trkpt>
      <trkpt lat="46.41404902562499" lon="11.769220931455493">
        <ele>1995.3499999999999</ele>
        <time>2019-03-08T12:33:32Z</time>
      </trkpt>
      <trkpt lat="46.414060592651367" lon="11.769343307241797">
        <ele>1992.47</ele>
        <time>2019-03-08T12:33:42Z</time>
      </trkpt>
      <trkpt lat="46.414070064201951" lon="11.769369039684534">
        <ele>1992.47</ele>
        <time>2019-03-08T12:33:45Z</time>
      </trkpt>
      <trkpt lat="46.414126390591264" lon="11.769504742696881">
        <ele>1990.0699999999999</ele>
        <time>2019-03-08T12:33:57Z</time>
      </trkpt>
      <trkpt lat="46.414133012294769" lon="11.769532402977347">
        <ele>1989.0999999999999</ele>
        <time>2019-03-08T12:33:59Z</time>
      </trkpt>
      <trkpt lat="46.414137035608292" lon="11.769617144018412">
        <ele>1986.22</ele>
        <time>2019-03-08T12:34:07Z</time>
      </trkpt>
      <trkpt lat="46.414122451096773" lon="11.769683444872499">
        <ele>1982.8599999999999</ele>
        <time>2019-03-08T12:34:13Z</time>
      </trkpt>
      <trkpt lat="46.414095293730497" lon="11.769742537289858">
        <ele>1981.4100000000001</ele>
        <time>2019-03-08T12:34:18Z</time>
      </trkpt>
      <trkpt lat="46.414080122485757" lon="11.769921239465475">
        <ele>1984.78</ele>
        <time>2019-03-08T12:34:29Z</time>
      </trkpt>
      <trkpt lat="46.41411499120295" lon="11.770045794546604">
        <ele>1986.22</ele>
        <time>2019-03-08T12:34:37Z</time>
      </trkpt>
      <trkpt lat="46.414111386984587" lon="11.770161045715213">
        <ele>1985.74</ele>
        <time>2019-03-08T12:34:45Z</time>
      </trkpt>
      <trkpt lat="46.414107866585255" lon="11.770194908604026">
        <ele>1986.22</ele>
        <time>2019-03-08T12:34:47Z</time>
      </trkpt>
      <trkpt lat="46.41406855545938" lon="11.770358104258776">
        <ele>1985.74</ele>
        <time>2019-03-08T12:34:57Z</time>
      </trkpt>
      <trkpt lat="46.414062939584255" lon="11.770478803664446">
        <ele>1984.3</ele>
        <time>2019-03-08T12:35:05Z</time>
      </trkpt>
      <trkpt lat="46.414073500782251" lon="11.770507553592324">
        <ele>1983.3399999999999</ele>
        <time>2019-03-08T12:35:07Z</time>
      </trkpt>
      <trkpt lat="46.41410619020462" lon="11.770597575232387">
        <ele>1979.49</ele>
        <time>2019-03-08T12:35:16Z</time>
      </trkpt>
      <trkpt lat="46.414127312600613" lon="11.770645184442401">
        <ele>1977.0899999999999</ele>
        <time>2019-03-08T12:35:20Z</time>
      </trkpt>
      <trkpt lat="46.414149105548859" lon="11.770767057314515">
        <ele>1974.2</ele>
        <time>2019-03-08T12:35:29Z</time>
      </trkpt>
      <trkpt lat="46.414161175489426" lon="11.770828412845731">
        <ele>1971.8</ele>
        <time>2019-03-08T12:35:33Z</time>
      </trkpt>
      <trkpt lat="46.414185483008623" lon="11.770902592688799">
        <ele>1968.9200000000001</ele>
        <time>2019-03-08T12:35:40Z</time>
      </trkpt>
      <trkpt lat="46.414233343675733" lon="11.770968642085791">
        <ele>1966.03</ele>
        <time>2019-03-08T12:35:47Z</time>
      </trkpt>
      <trkpt lat="46.414303332567215" lon="11.771037457510829">
        <ele>1962.6700000000001</ele>
        <time>2019-03-08T12:35:56Z</time>
      </trkpt>
      <trkpt lat="46.414333172142506" lon="11.771053969860077">
        <ele>1962.1900000000001</ele>
        <time>2019-03-08T12:35:59Z</time>
      </trkpt>
      <trkpt lat="46.414433503523469" lon="11.771130915731192">
        <ele>1959.78</ele>
        <time>2019-03-08T12:36:11Z</time>
      </trkpt>
      <trkpt lat="46.414478849619627" lon="11.771135609596968">
        <ele>1957.8599999999999</ele>
        <time>2019-03-08T12:36:16Z</time>
      </trkpt>
      <trkpt lat="46.414574068039656" lon="11.771149355918169">
        <ele>1954.98</ele>
        <time>2019-03-08T12:36:27Z</time>
      </trkpt>
      <trkpt lat="46.41460650600493" lon="11.771160503849387">
        <ele>1953.54</ele>
        <time>2019-03-08T12:36:30Z</time>
      </trkpt>
      <trkpt lat="46.414706669747829" lon="11.771210040897131">
        <ele>1950.6500000000001</ele>
        <time>2019-03-08T12:36:40Z</time>
      </trkpt>
      <trkpt lat="46.414797445759177" lon="11.771291680634022">
        <ele>1946.8099999999999</ele>
        <time>2019-03-08T12:36:50Z</time>
      </trkpt>
      <trkpt lat="46.414854358881712" lon="11.771371141076088">
        <ele>1943.4400000000001</ele>
        <time>2019-03-08T12:36:57Z</time>
      </trkpt>
      <trkpt lat="46.414893753826618" lon="11.771428724750876">
        <ele>1941.04</ele>
        <time>2019-03-08T12:37:03Z</time>
      </trkpt>
      <trkpt lat="46.414929209277034" lon="11.771491086110473">
        <ele>1938.6400000000001</ele>
        <time>2019-03-08T12:37:08Z</time>
      </trkpt>
      <trkpt lat="46.41493683680892" lon="11.771526373922825">
        <ele>1937.6700000000001</ele>
        <time>2019-03-08T12:37:11Z</time>
      </trkpt>
      <trkpt lat="46.414998108521104" lon="11.771630393341184">
        <ele>1934.3099999999999</ele>
        <time>2019-03-08T12:37:20Z</time>
      </trkpt>
      <trkpt lat="46.41503507271409" lon="11.771758133545518">
        <ele>1932.8699999999999</ele>
        <time>2019-03-08T12:37:30Z</time>
      </trkpt>
      <trkpt lat="46.415079915896058" lon="11.77189358510077">
        <ele>1931.9100000000001</ele>
        <time>2019-03-08T12:37:40Z</time>
      </trkpt>
      <trkpt lat="46.41510833054781" lon="11.771960891783237">
        <ele>1931.4300000000001</ele>
        <time>2019-03-08T12:37:49Z</time>
      </trkpt>
      <trkpt lat="46.415102798491716" lon="11.772000202909112">
        <ele>1930.95</ele>
        <time>2019-03-08T12:37:53Z</time>
      </trkpt>
      <trkpt lat="46.415114030241966" lon="11.772010177373886">
        <ele>1930.95</ele>
        <time>2019-03-08T12:37:55Z</time>
      </trkpt>
      <trkpt lat="46.415132386609912" lon="11.772064324468374">
        <ele>1930.46</ele>
        <time>2019-03-08T12:37:59Z</time>
      </trkpt>
      <trkpt lat="46.415152084082365" lon="11.772170104086399">
        <ele>1929.5</ele>
        <time>2019-03-08T12:38:07Z</time>
      </trkpt>
      <trkpt lat="46.415148731321096" lon="11.772247469052672">
        <ele>1928.0599999999999</ele>
        <time>2019-03-08T12:38:12Z</time>
      </trkpt>
      <trkpt lat="46.415123753249645" lon="11.772345034405589">
        <ele>1927.0999999999999</ele>
        <time>2019-03-08T12:38:18Z</time>
      </trkpt>
      <trkpt lat="46.415128698572516" lon="11.772442767396569">
        <ele>1925.1800000000001</ele>
        <time>2019-03-08T12:38:24Z</time>
      </trkpt>
      <trkpt lat="46.415151413530111" lon="11.772528262808919">
        <ele>1925.1800000000001</ele>
        <time>2019-03-08T12:38:30Z</time>
      </trkpt>
      <trkpt lat="46.415203884243965" lon="11.772668994963169">
        <ele>1924.22</ele>
        <time>2019-03-08T12:38:40Z</time>
      </trkpt>
      <trkpt lat="46.415212182328105" lon="11.772679556161165">
        <ele>1924.22</ele>
        <time>2019-03-08T12:38:41Z</time>
      </trkpt>
      <trkpt lat="46.415257947519422" lon="11.772714676335454">
        <ele>1922.29</ele>
        <time>2019-03-08T12:38:47Z</time>
      </trkpt>
      <trkpt lat="46.415351573377848" lon="11.772718112915754">
        <ele>1917.97</ele>
        <time>2019-03-08T12:38:57Z</time>
      </trkpt>
      <trkpt lat="46.415373533964157" lon="11.772720292210579">
        <ele>1917.49</ele>
        <time>2019-03-08T12:38:59Z</time>
      </trkpt>
      <trkpt lat="46.415450731292367" lon="11.772716771811247">
        <ele>1914.1199999999999</ele>
        <time>2019-03-08T12:39:07Z</time>
      </trkpt>
      <trkpt lat="46.41553639434278" lon="11.772687435150146">
        <ele>1912.2</ele>
        <time>2019-03-08T12:39:16Z</time>
      </trkpt>
      <trkpt lat="46.415624739602208" lon="11.772611076012254">
        <ele>1911.72</ele>
        <time>2019-03-08T12:39:26Z</time>
      </trkpt>
      <trkpt lat="46.415728004649282" lon="11.77249800413847">
        <ele>1909.3199999999999</ele>
        <time>2019-03-08T12:39:39Z</time>
      </trkpt>
      <trkpt lat="46.415752815082669" lon="11.772484006360173">
        <ele>1908.8299999999999</ele>
        <time>2019-03-08T12:39:41Z</time>
      </trkpt>
      <trkpt lat="46.41579489223659" lon="11.772441929206252">
        <ele>1907.8699999999999</ele>
        <time>2019-03-08T12:39:46Z</time>
      </trkpt>
      <trkpt lat="46.415814338251948" lon="11.77240613847971">
        <ele>1908.3499999999999</ele>
        <time>2019-03-08T12:39:49Z</time>
      </trkpt>
      <trkpt lat="46.415939144790173" lon="11.772283343598247">
        <ele>1906.4300000000001</ele>
        <time>2019-03-08T12:40:02Z</time>
      </trkpt>
      <trkpt lat="46.415980970486999" lon="11.772246127948165">
        <ele>1905.47</ele>
        <time>2019-03-08T12:40:07Z</time>
      </trkpt>
      <trkpt lat="46.416033692657948" lon="11.772171277552843">
        <ele>1905.47</ele>
        <time>2019-03-08T12:40:13Z</time>
      </trkpt>
      <trkpt lat="46.416066382080317" lon="11.772119645029306">
        <ele>1904.03</ele>
        <time>2019-03-08T12:40:17Z</time>
      </trkpt>
      <trkpt lat="46.416127989068627" lon="11.772052254527807">
        <ele>1902.1099999999999</ele>
        <time>2019-03-08T12:40:27Z</time>
      </trkpt>
      <trkpt lat="46.416134694591165" lon="11.772065833210945">
        <ele>1901.1400000000001</ele>
        <time>2019-03-08T12:40:38Z</time>
      </trkpt>
      <trkpt lat="46.416169563308358" lon="11.772027611732483">
        <ele>1901.6300000000001</ele>
        <time>2019-03-08T12:40:46Z</time>
      </trkpt>
      <trkpt lat="46.416377266868949" lon="11.77180121652782">
        <ele>1901.6300000000001</ele>
        <time>2019-03-08T12:47:09Z</time>
      </trkpt>
      <trkpt lat="46.416377853602171" lon="11.771768778562546">
        <ele>1900.6600000000001</ele>
        <time>2019-03-08T12:47:11Z</time>
      </trkpt>
      <trkpt lat="46.416440717875957" lon="11.771663753315806">
        <ele>1897.78</ele>
        <time>2019-03-08T12:47:22Z</time>
      </trkpt>
      <trkpt lat="46.416472652927041" lon="11.77155445329845">
        <ele>1898.26</ele>
        <time>2019-03-08T12:47:32Z</time>
      </trkpt>
      <trkpt lat="46.416470808908343" lon="11.771420678123832">
        <ele>1897.78</ele>
        <time>2019-03-08T12:47:41Z</time>
      </trkpt>
      <trkpt lat="46.416461504995823" lon="11.771284136921167">
        <ele>1900.6600000000001</ele>
        <time>2019-03-08T12:47:53Z</time>
      </trkpt>
      <trkpt lat="46.416544653475285" lon="11.771218338981271">
        <ele>1901.6300000000001</ele>
        <time>2019-03-08T12:48:04Z</time>
      </trkpt>
      <trkpt lat="46.416570888832211" lon="11.771198809146881">
        <ele>1900.6600000000001</ele>
        <time>2019-03-08T12:48:06Z</time>
      </trkpt>
      <trkpt lat="46.416675662621856" lon="11.771109793335199">
        <ele>1898.74</ele>
        <time>2019-03-08T12:48:17Z</time>
      </trkpt>
      <trkpt lat="46.416720505803823" lon="11.771046342328191">
        <ele>1898.26</ele>
        <time>2019-03-08T12:48:23Z</time>
      </trkpt>
      <trkpt lat="46.416752021759748" lon="11.770985322073102">
        <ele>1896.8199999999999</ele>
        <time>2019-03-08T12:48:28Z</time>
      </trkpt>
      <trkpt lat="46.416841456666589" lon="11.770862778648734">
        <ele>1895.3800000000001</ele>
        <time>2019-03-08T12:48:40Z</time>
      </trkpt>
      <trkpt lat="46.416905578225851" lon="11.77073453553021">
        <ele>1894.9000000000001</ele>
        <time>2019-03-08T12:48:50Z</time>
      </trkpt>
      <trkpt lat="46.416986379772425" lon="11.770604280754924">
        <ele>1895.3800000000001</ele>
        <time>2019-03-08T12:49:01Z</time>
      </trkpt>
      <trkpt lat="46.417024852707982" lon="11.770539153367281">
        <ele>1897.3</ele>
        <time>2019-03-08T12:49:07Z</time>
      </trkpt>
      <trkpt lat="46.417057625949383" lon="11.77050000987947">
        <ele>1896.8199999999999</ele>
        <time>2019-03-08T12:49:12Z</time>
      </trkpt>
      <trkpt lat="46.417108001187444" lon="11.770409736782312">
        <ele>1897.3</ele>
        <time>2019-03-08T12:49:21Z</time>
      </trkpt>
      <trkpt lat="46.417155358940363" lon="11.770334299653769">
        <ele>1895.8599999999999</ele>
        <time>2019-03-08T12:49:26Z</time>
      </trkpt>
      <trkpt lat="46.417173715308309" lon="11.770312087610364">
        <ele>1895.8599999999999</ele>
        <time>2019-03-08T12:49:28Z</time>
      </trkpt>
      <trkpt lat="46.417190730571747" lon="11.770275877788663">
        <ele>1895.3800000000001</ele>
        <time>2019-03-08T12:49:31Z</time>
      </trkpt>
      <trkpt lat="46.41720749437809" lon="11.770254755392671">
        <ele>1895.8599999999999</ele>
        <time>2019-03-08T12:49:33Z</time>
      </trkpt>
      <trkpt lat="46.417263401672244" lon="11.770171103999019">
        <ele>1895.8599999999999</ele>
        <time>2019-03-08T12:49:40Z</time>
      </trkpt>
      <trkpt lat="46.417363146319985" lon="11.770089631900191">
        <ele>1894.9000000000001</ele>
        <time>2019-03-08T12:49:51Z</time>
      </trkpt>
      <trkpt lat="46.417441768571734" lon="11.770001957193017">
        <ele>1895.8599999999999</ele>
        <time>2019-03-08T12:50:02Z</time>
      </trkpt>
      <trkpt lat="46.417460376396775" lon="11.76998058333993">
        <ele>1895.3800000000001</ele>
        <time>2019-03-08T12:50:04Z</time>
      </trkpt>
      <trkpt lat="46.417559450492263" lon="11.769902296364307">
        <ele>1895.3800000000001</ele>
        <time>2019-03-08T12:50:15Z</time>
      </trkpt>
      <trkpt lat="46.41759985126555" lon="11.769852843135595">
        <ele>1893.9300000000001</ele>
        <time>2019-03-08T12:50:19Z</time>
      </trkpt>
      <trkpt lat="46.417694902047515" lon="11.769749410450459">
        <ele>1890.5699999999999</ele>
        <time>2019-03-08T12:50:28Z</time>
      </trkpt>
      <trkpt lat="46.417782241478562" lon="11.769647737964988">
        <ele>1889.1300000000001</ele>
        <time>2019-03-08T12:50:38Z</time>
      </trkpt>
      <trkpt lat="46.417789869010448" lon="11.769636925309896">
        <ele>1888.6500000000001</ele>
        <time>2019-03-08T12:50:39Z</time>
      </trkpt>
      <trkpt lat="46.417856086045504" lon="11.76956282928586">
        <ele>1888.1700000000001</ele>
        <time>2019-03-08T12:50:47Z</time>
      </trkpt>
      <trkpt lat="46.417870922014117" lon="11.769525529816747">
        <ele>1887.21</ele>
        <time>2019-03-08T12:50:50Z</time>
      </trkpt>
      <trkpt lat="46.417927332222462" lon="11.769452858716249">
        <ele>1887.21</ele>
        <time>2019-03-08T12:50:57Z</time>
      </trkpt>
      <trkpt lat="46.417988771572709" lon="11.769355544820428">
        <ele>1884.8</ele>
        <time>2019-03-08T12:51:06Z</time>
      </trkpt>
      <trkpt lat="46.418012576177716" lon="11.769303828477859">
        <ele>1883.8399999999999</ele>
        <time>2019-03-08T12:51:10Z</time>
      </trkpt>
      <trkpt lat="46.418059514835477" lon="11.7691445723176">
        <ele>1881.9200000000001</ele>
        <time>2019-03-08T12:51:21Z</time>
      </trkpt>
      <trkpt lat="46.41805968247354" lon="11.76893837749958">
        <ele>1880.96</ele>
        <time>2019-03-08T12:51:36Z</time>
      </trkpt>
      <trkpt lat="46.418096227571368" lon="11.768750874325633">
        <ele>1877.5899999999999</ele>
        <time>2019-03-08T12:51:47Z</time>
      </trkpt>
      <trkpt lat="46.418130677193403" lon="11.768575441092253">
        <ele>1875.1900000000001</ele>
        <time>2019-03-08T12:51:58Z</time>
      </trkpt>
      <trkpt lat="46.418182142078876" lon="11.768365977331996">
        <ele>1875.1900000000001</ele>
        <time>2019-03-08T12:52:11Z</time>
      </trkpt>
      <trkpt lat="46.418241737410426" lon="11.768209738656878">
        <ele>1874.71</ele>
        <time>2019-03-08T12:52:23Z</time>
      </trkpt>
      <trkpt lat="46.418292364105582" lon="11.768061714246869">
        <ele>1873.75</ele>
        <time>2019-03-08T12:52:33Z</time>
      </trkpt>
      <trkpt lat="46.418347852304578" lon="11.767923580482602">
        <ele>1872.79</ele>
        <time>2019-03-08T12:52:43Z</time>
      </trkpt>
      <trkpt lat="46.418369645252824" lon="11.767828362062573">
        <ele>1873.27</ele>
        <time>2019-03-08T12:52:49Z</time>
      </trkpt>
      <trkpt lat="46.418405771255493" lon="11.767751919105649">
        <ele>1873.27</ele>
        <time>2019-03-08T12:52:55Z</time>
      </trkpt>
      <trkpt lat="46.418472239747643" lon="11.767623843625188">
        <ele>1872.3</ele>
        <time>2019-03-08T12:53:06Z</time>
      </trkpt>
      <trkpt lat="46.418532254174352" lon="11.767511190846562">
        <ele>1871.8199999999999</ele>
        <time>2019-03-08T12:53:15Z</time>
      </trkpt>
      <trkpt lat="46.418601991608739" lon="11.767415888607502">
        <ele>1871.3399999999999</ele>
        <time>2019-03-08T12:53:27Z</time>
      </trkpt>
      <trkpt lat="46.418625628575683" lon="11.767411110922694">
        <ele>1870.8599999999999</ele>
        <time>2019-03-08T12:53:36Z</time>
      </trkpt>
      <trkpt lat="46.418652702122927" lon="11.767492750659585">
        <ele>1870.8599999999999</ele>
        <time>2019-03-08T12:53:43Z</time>
      </trkpt>
      <trkpt lat="46.418677177280188" lon="11.767509263008833">
        <ele>1871.3399999999999</ele>
        <time>2019-03-08T12:53:47Z</time>
      </trkpt>
      <trkpt lat="46.41873886808753" lon="11.767554692924023">
        <ele>1872.3</ele>
        <time>2019-03-08T12:53:58Z</time>
      </trkpt>
      <trkpt lat="46.418795697391033" lon="11.767630968242884">
        <ele>1872.79</ele>
        <time>2019-03-08T12:54:09Z</time>
      </trkpt>
      <trkpt lat="46.41888739541173" lon="11.767685702070594">
        <ele>1871.8199999999999</ele>
        <time>2019-03-08T12:54:21Z</time>
      </trkpt>
      <trkpt lat="46.418898543342948" lon="11.767680337652564">
        <ele>1872.79</ele>
        <time>2019-03-08T12:54:26Z</time>
      </trkpt>
      <trkpt lat="46.418993510305882" lon="11.767606660723686">
        <ele>1872.3</ele>
        <time>2019-03-08T12:54:38Z</time>
      </trkpt>
      <trkpt lat="46.419002395123243" lon="11.767598195001483">
        <ele>1872.3</ele>
        <time>2019-03-08T12:54:39Z</time>
      </trkpt>
      <trkpt lat="46.419021002948284" lon="11.767585286870599">
        <ele>1872.3</ele>
        <time>2019-03-08T12:54:41Z</time>
      </trkpt>
      <trkpt lat="46.419104067608714" lon="11.7674988694489">
        <ele>1870.3800000000001</ele>
        <time>2019-03-08T12:54:52Z</time>
      </trkpt>
      <trkpt lat="46.419130386784673" lon="11.767486799508333">
        <ele>1870.3800000000001</ele>
        <time>2019-03-08T12:54:55Z</time>
      </trkpt>
      <trkpt lat="46.419218732044101" lon="11.767394682392478">
        <ele>1870.8599999999999</ele>
        <time>2019-03-08T12:55:06Z</time>
      </trkpt>
      <trkpt lat="46.419284781441092" lon="11.767310695722699">
        <ele>1870.3800000000001</ele>
        <time>2019-03-08T12:55:16Z</time>
      </trkpt>
      <trkpt lat="46.419381676241755" lon="11.76721153780818">
        <ele>1868.46</ele>
        <time>2019-03-08T12:55:27Z</time>
      </trkpt>
      <trkpt lat="46.419508159160614" lon="11.76721204072237">
        <ele>1867.5</ele>
        <time>2019-03-08T12:55:38Z</time>
      </trkpt>
      <trkpt lat="46.419542273506522" lon="11.767219919711351">
        <ele>1867.98</ele>
        <time>2019-03-08T12:55:41Z</time>
      </trkpt>
      <trkpt lat="46.419674539938569" lon="11.767239281907678">
        <ele>1868.46</ele>
        <time>2019-03-08T12:55:53Z</time>
      </trkpt>
      <trkpt lat="46.419771770015359" lon="11.767249088734388">
        <ele>1869.4200000000001</ele>
        <time>2019-03-08T12:56:03Z</time>
      </trkpt>
      <trkpt lat="46.41985047608614" lon="11.767295356839895">
        <ele>1869.4200000000001</ele>
        <time>2019-03-08T12:56:12Z</time>
      </trkpt>
      <trkpt lat="46.419920548796654" lon="11.767344055697322">
        <ele>1869.4200000000001</ele>
        <time>2019-03-08T12:56:19Z</time>
      </trkpt>
      <trkpt lat="46.42000931315124" lon="11.767410691827536">
        <ele>1869.4200000000001</ele>
        <time>2019-03-08T12:56:28Z</time>
      </trkpt>
      <trkpt lat="46.420110398903489" lon="11.767412116751075">
        <ele>1868.9400000000001</ele>
        <time>2019-03-08T12:56:38Z</time>
      </trkpt>
      <trkpt lat="46.420223135501146" lon="11.767373895272613">
        <ele>1868.46</ele>
        <time>2019-03-08T12:56:49Z</time>
      </trkpt>
      <trkpt lat="46.420292789116502" lon="11.767387306317687">
        <ele>1868.9400000000001</ele>
        <time>2019-03-08T12:57:00Z</time>
      </trkpt>
      <trkpt lat="46.420305948704481" lon="11.767383366823196">
        <ele>1869.9000000000001</ele>
        <time>2019-03-08T12:57:33Z</time>
      </trkpt>
      <trkpt lat="46.420307122170925" lon="11.767344558611512">
        <ele>1867.98</ele>
        <time>2019-03-08T12:57:46Z</time>
      </trkpt>
      <trkpt lat="46.420331681147218" lon="11.767290411517024">
        <ele>1867.5</ele>
        <time>2019-03-08T13:04:37Z</time>
      </trkpt>
      <trkpt lat="46.420328160747886" lon="11.767228469252586">
        <ele>1868.46</ele>
        <time>2019-03-08T13:04:56Z</time>
      </trkpt>
      <trkpt lat="46.420332686975598" lon="11.767116989940405">
        <ele>1865.5799999999999</ele>
        <time>2019-03-08T13:05:06Z</time>
      </trkpt>
      <trkpt lat="46.420358419418335" lon="11.766934935003519">
        <ele>1862.21</ele>
        <time>2019-03-08T13:05:19Z</time>
      </trkpt>
      <trkpt lat="46.420395886525512" lon="11.766750449314713">
        <ele>1859.8099999999999</ele>
        <time>2019-03-08T13:05:30Z</time>
      </trkpt>
      <trkpt lat="46.420447183772922" lon="11.76653235219419">
        <ele>1858.3699999999999</ele>
        <time>2019-03-08T13:05:43Z</time>
      </trkpt>
      <trkpt lat="46.420455314218998" lon="11.766510140150785">
        <ele>1857.4000000000001</ele>
        <time>2019-03-08T13:05:45Z</time>
      </trkpt>
      <trkpt lat="46.420503258705139" lon="11.766338227316737">
        <ele>1855.48</ele>
        <time>2019-03-08T13:05:56Z</time>
      </trkpt>
      <trkpt lat="46.420518849045038" lon="11.766312075778842">
        <ele>1855.48</ele>
        <time>2019-03-08T13:05:58Z</time>
      </trkpt>
      <trkpt lat="46.42055556178093" lon="11.766162877902389">
        <ele>1853.0799999999999</ele>
        <time>2019-03-08T13:06:09Z</time>
      </trkpt>
      <trkpt lat="46.420623455196619" lon="11.765970261767507">
        <ele>1851.6400000000001</ele>
        <time>2019-03-08T13:06:23Z</time>
      </trkpt>
      <trkpt lat="46.420647259801626" lon="11.765928016975522">
        <ele>1850.6800000000001</ele>
        <time>2019-03-08T13:06:31Z</time>
      </trkpt>
      <trkpt lat="46.420651283115149" lon="11.765903793275356">
        <ele>1850.6800000000001</ele>
        <time>2019-03-08T13:06:33Z</time>
      </trkpt>
      <trkpt lat="46.420659497380257" lon="11.765864817425609">
        <ele>1849.71</ele>
        <time>2019-03-08T13:06:36Z</time>
      </trkpt>
      <trkpt lat="46.420706016942859" lon="11.765700532123446">
        <ele>1848.27</ele>
        <time>2019-03-08T13:06:47Z</time>
      </trkpt>
      <trkpt lat="46.420735102146864" lon="11.765530379489064">
        <ele>1846.8299999999999</ele>
        <time>2019-03-08T13:06:58Z</time>
      </trkpt>
      <trkpt lat="46.420744406059384" lon="11.765436166897416">
        <ele>1846.3499999999999</ele>
        <time>2019-03-08T13:07:04Z</time>
      </trkpt>
      <trkpt lat="46.420761086046696" lon="11.765301721170545">
        <ele>1844.4300000000001</ele>
        <time>2019-03-08T13:07:15Z</time>
      </trkpt>
      <trkpt lat="46.420756727457047" lon="11.765249418094754">
        <ele>1843.95</ele>
        <time>2019-03-08T13:07:18Z</time>
      </trkpt>
      <trkpt lat="46.420759074389935" lon="11.765214717015624">
        <ele>1843.47</ele>
        <time>2019-03-08T13:07:20Z</time>
      </trkpt>
      <trkpt lat="46.420766534283757" lon="11.765151098370552">
        <ele>1842.98</ele>
        <time>2019-03-08T13:07:24Z</time>
      </trkpt>
      <trkpt lat="46.420764522626996" lon="11.76505277864635">
        <ele>1842.98</ele>
        <time>2019-03-08T13:07:32Z</time>
      </trkpt>
      <trkpt lat="46.420771731063724" lon="11.764941215515137">
        <ele>1842.5</ele>
        <time>2019-03-08T13:07:39Z</time>
      </trkpt>
      <trkpt lat="46.420775922015309" lon="11.764863599091768">
        <ele>1841.0599999999999</ele>
        <time>2019-03-08T13:07:44Z</time>
      </trkpt>
      <trkpt lat="46.420777598395944" lon="11.76470291800797">
        <ele>1839.6199999999999</ele>
        <time>2019-03-08T13:07:55Z</time>
      </trkpt>
      <trkpt lat="46.420787237584591" lon="11.764497729018331">
        <ele>1837.7</ele>
        <time>2019-03-08T13:08:07Z</time>
      </trkpt>
      <trkpt lat="46.420806432142854" lon="11.764300502836704">
        <ele>1834.8099999999999</ele>
        <time>2019-03-08T13:08:19Z</time>
      </trkpt>
      <trkpt lat="46.420819843187928" lon="11.764125572517514">
        <ele>1834.3299999999999</ele>
        <time>2019-03-08T13:08:29Z</time>
      </trkpt>
      <trkpt lat="46.420827554538846" lon="11.763941422104836">
        <ele>1832.8900000000001</ele>
        <time>2019-03-08T13:08:40Z</time>
      </trkpt>
      <trkpt lat="46.420827386900783" lon="11.763923233374953">
        <ele>1832.8900000000001</ele>
        <time>2019-03-08T13:08:41Z</time>
      </trkpt>
      <trkpt lat="46.42084532417357" lon="11.763743776828051">
        <ele>1831.9300000000001</ele>
        <time>2019-03-08T13:08:52Z</time>
      </trkpt>
      <trkpt lat="46.420874074101448" lon="11.76358200609684">
        <ele>1830.49</ele>
        <time>2019-03-08T13:09:02Z</time>
      </trkpt>
      <trkpt lat="46.420925790444016" lon="11.763382097706199">
        <ele>1827.5999999999999</ele>
        <time>2019-03-08T13:09:14Z</time>
      </trkpt>
      <trkpt lat="46.420946661382914" lon="11.763297189027071">
        <ele>1827.5999999999999</ele>
        <time>2019-03-08T13:09:19Z</time>
      </trkpt>
      <trkpt lat="46.420961078256369" lon="11.763271875679493">
        <ele>1826.6400000000001</ele>
        <time>2019-03-08T13:09:21Z</time>
      </trkpt>
      <trkpt lat="46.421001730486751" lon="11.763076577335596">
        <ele>1825.2</ele>
        <time>2019-03-08T13:09:33Z</time>
      </trkpt>
      <trkpt lat="46.421039532870054" lon="11.762895947322249">
        <ele>1823.28</ele>
        <time>2019-03-08T13:09:44Z</time>
      </trkpt>
      <trkpt lat="46.421075072139502" lon="11.762722274288535">
        <ele>1822.3199999999999</ele>
        <time>2019-03-08T13:09:54Z</time>
      </trkpt>
      <trkpt lat="46.421115137636662" lon="11.762536112219095">
        <ele>1820.3900000000001</ele>
        <time>2019-03-08T13:10:06Z</time>
      </trkpt>
      <trkpt lat="46.421149084344506" lon="11.762340813875198">
        <ele>1818.47</ele>
        <time>2019-03-08T13:10:18Z</time>
      </trkpt>
      <trkpt lat="46.421195939183235" lon="11.762134367600083">
        <ele>1816.0699999999999</ele>
        <time>2019-03-08T13:10:30Z</time>
      </trkpt>
      <trkpt lat="46.421202812343836" lon="11.762081226333976">
        <ele>1815.5899999999999</ele>
        <time>2019-03-08T13:10:33Z</time>
      </trkpt>
      <trkpt lat="46.421263413503766" lon="11.761923311278224">
        <ele>1814.1500000000001</ele>
        <time>2019-03-08T13:10:43Z</time>
      </trkpt>
      <trkpt lat="46.421286799013615" lon="11.761890705674887">
        <ele>1814.1500000000001</ele>
        <time>2019-03-08T13:10:46Z</time>
      </trkpt>
      <trkpt lat="46.421411270275712" lon="11.761658443138003">
        <ele>1814.6300000000001</ele>
        <time>2019-03-08T13:53:54Z</time>
      </trkpt>
      <trkpt lat="46.421430800110102" lon="11.761587867513299">
        <ele>1814.1500000000001</ele>
        <time>2019-03-08T13:54:04Z</time>
      </trkpt>
      <trkpt lat="46.421454269438982" lon="11.761528691276908">
        <ele>1813.6600000000001</ele>
        <time>2019-03-08T13:54:15Z</time>
      </trkpt>
      <trkpt lat="46.421464160084724" lon="11.761490385979414">
        <ele>1812.7</ele>
        <time>2019-03-08T13:54:24Z</time>
      </trkpt>
      <trkpt lat="46.42149668186903" lon="11.761407237499952">
        <ele>1812.7</ele>
        <time>2019-03-08T13:54:36Z</time>
      </trkpt>
      <trkpt lat="46.421504812315106" lon="11.761391144245863">
        <ele>1813.6600000000001</ele>
        <time>2019-03-08T13:54:47Z</time>
      </trkpt>
      <trkpt lat="46.421511769294739" lon="11.761383851990104">
        <ele>1813.6600000000001</ele>
        <time>2019-03-08T13:54:48Z</time>
      </trkpt>
      <trkpt lat="46.421602461487055" lon="11.761221494525671">
        <ele>1811.74</ele>
        <time>2019-03-08T13:55:01Z</time>
      </trkpt>
      <trkpt lat="46.42168334685266" lon="11.761071290820837">
        <ele>1810.3</ele>
        <time>2019-03-08T13:55:13Z</time>
      </trkpt>
      <trkpt lat="46.421799100935459" lon="11.760878171771765">
        <ele>1809.8199999999999</ele>
        <time>2019-03-08T13:55:26Z</time>
      </trkpt>
      <trkpt lat="46.421917704865336" lon="11.760701648890972">
        <ele>1809.8199999999999</ele>
        <time>2019-03-08T13:55:40Z</time>
      </trkpt>
      <trkpt lat="46.422023987397552" lon="11.760514816269279">
        <ele>1807.9000000000001</ele>
        <time>2019-03-08T13:55:54Z</time>
      </trkpt>
      <trkpt lat="46.422144435346127" lon="11.760327145457268">
        <ele>1805.97</ele>
        <time>2019-03-08T13:56:08Z</time>
      </trkpt>
      <trkpt lat="46.422263626009226" lon="11.760149700567126">
        <ele>1804.05</ele>
        <time>2019-03-08T13:56:21Z</time>
      </trkpt>
      <trkpt lat="46.422371082007885" lon="11.759984493255615">
        <ele>1802.6099999999999</ele>
        <time>2019-03-08T13:56:34Z</time>
      </trkpt>
      <trkpt lat="46.422472251579165" lon="11.759817358106375">
        <ele>1801.1700000000001</ele>
        <time>2019-03-08T13:56:47Z</time>
      </trkpt>
      <trkpt lat="46.422567805275321" lon="11.75966028124094">
        <ele>1801.1700000000001</ele>
        <time>2019-03-08T13:56:59Z</time>
      </trkpt>
      <trkpt lat="46.422629998996854" lon="11.75949364900589">
        <ele>1798.76</ele>
        <time>2019-03-08T13:57:10Z</time>
      </trkpt>
      <trkpt lat="46.422676267102361" lon="11.75930748693645">
        <ele>1797.3199999999999</ele>
        <time>2019-03-08T13:57:22Z</time>
      </trkpt>
      <trkpt lat="46.422704011201859" lon="11.759109674021602">
        <ele>1797.3199999999999</ele>
        <time>2019-03-08T13:57:34Z</time>
      </trkpt>
      <trkpt lat="46.422756901010871" lon="11.758895935490727">
        <ele>1796.8399999999999</ele>
        <time>2019-03-08T13:57:47Z</time>
      </trkpt>
      <trkpt lat="46.422825045883656" lon="11.758716478943825">
        <ele>1795.4000000000001</ele>
        <time>2019-03-08T13:57:59Z</time>
      </trkpt>
      <trkpt lat="46.422874666750431" lon="11.758518498390913">
        <ele>1794.4400000000001</ele>
        <time>2019-03-08T13:58:12Z</time>
      </trkpt>
      <trkpt lat="46.422930993139744" lon="11.758341137319803">
        <ele>1794.9200000000001</ele>
        <time>2019-03-08T13:58:24Z</time>
      </trkpt>
      <trkpt lat="46.422957731410861" lon="11.758146593347192">
        <ele>1793.96</ele>
        <time>2019-03-08T13:58:35Z</time>
      </trkpt>
      <trkpt lat="46.422991091385484" lon="11.757932770997286">
        <ele>1792.52</ele>
        <time>2019-03-08T13:58:48Z</time>
      </trkpt>
      <trkpt lat="46.423032078891993" lon="11.75773998722434">
        <ele>1791.55</ele>
        <time>2019-03-08T13:59:00Z</time>
      </trkpt>
      <trkpt lat="46.423081532120705" lon="11.757555333897471">
        <ele>1790.1099999999999</ele>
        <time>2019-03-08T13:59:11Z</time>
      </trkpt>
      <trkpt lat="46.42309695482254" lon="11.757519207894802">
        <ele>1790.1099999999999</ele>
        <time>2019-03-08T13:59:14Z</time>
      </trkpt>
      <trkpt lat="46.423174403607845" lon="11.757293315604329">
        <ele>1788.6700000000001</ele>
        <time>2019-03-08T13:59:28Z</time>
      </trkpt>
      <trkpt lat="46.423264089971781" lon="11.757066417485476">
        <ele>1786.27</ele>
        <time>2019-03-08T13:59:41Z</time>
      </trkpt>
      <trkpt lat="46.423339527100325" lon="11.756813870742917">
        <ele>1784.8199999999999</ele>
        <time>2019-03-08T13:59:55Z</time>
      </trkpt>
      <trkpt lat="46.423432566225529" lon="11.756548834964633">
        <ele>1782.9000000000001</ele>
        <time>2019-03-08T14:00:10Z</time>
      </trkpt>
      <trkpt lat="46.423493586480618" lon="11.756327049806714">
        <ele>1780.5</ele>
        <time>2019-03-08T14:00:23Z</time>
      </trkpt>
      <trkpt lat="46.423549996688962" lon="11.756175421178341">
        <ele>1777.1300000000001</ele>
        <time>2019-03-08T14:00:33Z</time>
      </trkpt>
      <trkpt lat="46.423574388027191" lon="11.756136696785688">
        <ele>1776.6500000000001</ele>
        <time>2019-03-08T14:00:36Z</time>
      </trkpt>
      <trkpt lat="46.423618393018842" lon="11.755997976288199">
        <ele>1773.77</ele>
        <time>2019-03-08T14:00:44Z</time>
      </trkpt>
      <trkpt lat="46.423693327233195" lon="11.755780130624771">
        <ele>1772.3299999999999</ele>
        <time>2019-03-08T14:00:57Z</time>
      </trkpt>
      <trkpt lat="46.423783600330353" lon="11.755517777055502">
        <ele>1771.3699999999999</ele>
        <time>2019-03-08T14:01:13Z</time>
      </trkpt>
      <trkpt lat="46.423802627250552" lon="11.755435885861516">
        <ele>1770.8900000000001</ele>
        <time>2019-03-08T14:01:18Z</time>
      </trkpt>
      <trkpt lat="46.423809919506311" lon="11.755388360470533">
        <ele>1771.3699999999999</ele>
        <time>2019-03-08T14:01:22Z</time>
      </trkpt>
      <trkpt lat="46.423855097964406" lon="11.755150817334652">
        <ele>1770.8900000000001</ele>
        <time>2019-03-08T14:01:36Z</time>
      </trkpt>
      <trkpt lat="46.423917040228844" lon="11.754888044670224">
        <ele>1767.52</ele>
        <time>2019-03-08T14:01:51Z</time>
      </trkpt>
      <trkpt lat="46.423966493457556" lon="11.754628540948033">
        <ele>1765.1199999999999</ele>
        <time>2019-03-08T14:02:05Z</time>
      </trkpt>
      <trkpt lat="46.423972863703966" lon="11.75436107441783">
        <ele>1764.1600000000001</ele>
        <time>2019-03-08T14:02:19Z</time>
      </trkpt>
      <trkpt lat="46.423943610861897" lon="11.754060918465257">
        <ele>1761.27</ele>
        <time>2019-03-08T14:02:35Z</time>
      </trkpt>
      <trkpt lat="46.423955848440528" lon="11.753795463591814">
        <ele>1758.8699999999999</ele>
        <time>2019-03-08T14:02:49Z</time>
      </trkpt>
      <trkpt lat="46.424003373831511" lon="11.753533026203513">
        <ele>1757.4300000000001</ele>
        <time>2019-03-08T14:03:03Z</time>
      </trkpt>
      <trkpt lat="46.424049893394113" lon="11.753318952396512">
        <ele>1755.99</ele>
        <time>2019-03-08T14:03:15Z</time>
      </trkpt>
      <trkpt lat="46.424110159277916" lon="11.753032794222236">
        <ele>1754.0599999999999</ele>
        <time>2019-03-08T14:03:30Z</time>
      </trkpt>
      <trkpt lat="46.424153577536345" lon="11.75274814479053">
        <ele>1752.1400000000001</ele>
        <time>2019-03-08T14:03:45Z</time>
      </trkpt>
      <trkpt lat="46.424161037430167" lon="11.752524180337787">
        <ele>1751.6600000000001</ele>
        <time>2019-03-08T14:03:57Z</time>
      </trkpt>
      <trkpt lat="46.424153745174408" lon="11.752275070175529">
        <ele>1750.7</ele>
        <time>2019-03-08T14:04:11Z</time>
      </trkpt>
      <trkpt lat="46.424135975539684" lon="11.751999305561185">
        <ele>1750.7</ele>
        <time>2019-03-08T14:04:26Z</time>
      </trkpt>
      <trkpt lat="46.424126755446196" lon="11.75175279378891">
        <ele>1750.22</ele>
        <time>2019-03-08T14:04:40Z</time>
      </trkpt>
      <trkpt lat="46.424119798466563" lon="11.751524973660707">
        <ele>1750.7</ele>
        <time>2019-03-08T14:04:53Z</time>
      </trkpt>
      <trkpt lat="46.424123821780086" lon="11.751283155754209">
        <ele>1749.74</ele>
        <time>2019-03-08T14:05:07Z</time>
      </trkpt>
      <trkpt lat="46.424157349392772" lon="11.751059526577592">
        <ele>1749.26</ele>
        <time>2019-03-08T14:05:20Z</time>
      </trkpt>
      <trkpt lat="46.424168245866895" lon="11.750812260434031">
        <ele>1748.29</ele>
        <time>2019-03-08T14:05:34Z</time>
      </trkpt>
      <trkpt lat="46.424170173704624" lon="11.75062844529748">
        <ele>1747.3299999999999</ele>
        <time>2019-03-08T14:05:45Z</time>
      </trkpt>
      <trkpt lat="46.424167072400451" lon="11.750535489991307">
        <ele>1747.8099999999999</ele>
        <time>2019-03-08T14:05:50Z</time>
      </trkpt>
      <trkpt lat="46.424188781529665" lon="11.750273639336228">
        <ele>1747.3299999999999</ele>
        <time>2019-03-08T14:06:05Z</time>
      </trkpt>
      <trkpt lat="46.424216777086258" lon="11.750066438689828">
        <ele>1747.3299999999999</ele>
        <time>2019-03-08T14:06:17Z</time>
      </trkpt>
      <trkpt lat="46.424245107918978" lon="11.749879019334912">
        <ele>1745.8900000000001</ele>
        <time>2019-03-08T14:06:28Z</time>
      </trkpt>
      <trkpt lat="46.424267990514636" lon="11.749680787324905">
        <ele>1743.97</ele>
        <time>2019-03-08T14:06:40Z</time>
      </trkpt>
      <trkpt lat="46.424309480935335" lon="11.749434778466821">
        <ele>1743.01</ele>
        <time>2019-03-08T14:06:54Z</time>
      </trkpt>
      <trkpt lat="46.424371423199773" lon="11.749172592535615">
        <ele>1742.05</ele>
        <time>2019-03-08T14:07:09Z</time>
      </trkpt>
      <trkpt lat="46.424426659941673" lon="11.748972684144974">
        <ele>1739.6400000000001</ele>
        <time>2019-03-08T14:07:21Z</time>
      </trkpt>
      <trkpt lat="46.424452224746346" lon="11.748841088265181">
        <ele>1739.1600000000001</ele>
        <time>2019-03-08T14:07:31Z</time>
      </trkpt>
      <trkpt lat="46.424506790935993" lon="11.748613603413105">
        <ele>1738.6800000000001</ele>
        <time>2019-03-08T14:07:44Z</time>
      </trkpt>
      <trkpt lat="46.424553645774722" lon="11.748423585668206">
        <ele>1735.8</ele>
        <time>2019-03-08T14:07:56Z</time>
      </trkpt>
      <trkpt lat="46.424605445936322" lon="11.748232897371054">
        <ele>1733.8800000000001</ele>
        <time>2019-03-08T14:08:08Z</time>
      </trkpt>
      <trkpt lat="46.424669902771711" lon="11.748013962060213">
        <ele>1732.9100000000001</ele>
        <time>2019-03-08T14:08:22Z</time>
      </trkpt>
      <trkpt lat="46.424689767882228" lon="11.747984709218144">
        <ele>1730.51</ele>
        <time>2019-03-08T14:08:36Z</time>
      </trkpt>
      <trkpt lat="46.424723463132977" lon="11.747822854667902">
        <ele>1730.51</ele>
        <time>2019-03-08T14:08:47Z</time>
      </trkpt>
      <trkpt lat="46.424775682389736" lon="11.747633926570415">
        <ele>1730.03</ele>
        <time>2019-03-08T14:08:59Z</time>
      </trkpt>
      <trkpt lat="46.42481398768723" lon="11.747417002916336">
        <ele>1730.03</ele>
        <time>2019-03-08T14:09:12Z</time>
      </trkpt>
      <trkpt lat="46.424828907474875" lon="11.747231176123023">
        <ele>1729.0699999999999</ele>
        <time>2019-03-08T14:09:25Z</time>
      </trkpt>
      <trkpt lat="46.424833685159683" lon="11.747179543599486">
        <ele>1729.55</ele>
        <time>2019-03-08T14:09:39Z</time>
      </trkpt>
      <trkpt lat="46.42483938485384" lon="11.746991453692317">
        <ele>1729.0699999999999</ele>
        <time>2019-03-08T14:09:50Z</time>
      </trkpt>
      <trkpt lat="46.424828069284558" lon="11.746764052659273">
        <ele>1728.5899999999999</ele>
        <time>2019-03-08T14:10:04Z</time>
      </trkpt>
      <trkpt lat="46.424832092598081" lon="11.746582584455609">
        <ele>1729.0699999999999</ele>
        <time>2019-03-08T14:10:16Z</time>
      </trkpt>
      <trkpt lat="46.424816334620118" lon="11.746379071846604">
        <ele>1728.5899999999999</ele>
        <time>2019-03-08T14:10:29Z</time>
      </trkpt>
      <trkpt lat="46.424806695431471" lon="11.746174469590187">
        <ele>1727.6300000000001</ele>
        <time>2019-03-08T14:10:42Z</time>
      </trkpt>
      <trkpt lat="46.424804599955678" lon="11.746076317504048">
        <ele>1727.6300000000001</ele>
        <time>2019-03-08T14:10:53Z</time>
      </trkpt>
      <trkpt lat="46.424776269122958" lon="11.746005658060312">
        <ele>1727.6300000000001</ele>
        <time>2019-03-08T14:11:04Z</time>
      </trkpt>
      <trkpt lat="46.424754727631807" lon="11.745930556207895">
        <ele>1727.1500000000001</ele>
        <time>2019-03-08T14:11:14Z</time>
      </trkpt>
      <trkpt lat="46.424702759832144" lon="11.745765181258321">
        <ele>1726.6700000000001</ele>
        <time>2019-03-08T14:11:26Z</time>
      </trkpt>
      <trkpt lat="46.424649870023131" lon="11.745604332536459">
        <ele>1726.1800000000001</ele>
        <time>2019-03-08T14:11:37Z</time>
      </trkpt>
      <trkpt lat="46.424613408744335" lon="11.745416829362512">
        <ele>1725.7</ele>
        <time>2019-03-08T14:11:48Z</time>
      </trkpt>
      <trkpt lat="46.424574600532651" lon="11.74525405280292">
        <ele>1725.22</ele>
        <time>2019-03-08T14:11:58Z</time>
      </trkpt>
      <trkpt lat="46.424587005749345" lon="11.745226392522454">
        <ele>1724.74</ele>
        <time>2019-03-08T14:12:10Z</time>
      </trkpt>
      <trkpt lat="46.424577869474888" lon="11.745116170495749">
        <ele>1725.22</ele>
        <time>2019-03-08T14:12:19Z</time>
      </trkpt>
      <trkpt lat="46.424560686573386" lon="11.744925482198596">
        <ele>1724.26</ele>
        <time>2019-03-08T14:12:31Z</time>
      </trkpt>
      <trkpt lat="46.424569906666875" lon="11.744689783081412">
        <ele>1723.3</ele>
        <time>2019-03-08T14:12:45Z</time>
      </trkpt>
      <trkpt lat="46.424571583047509" lon="11.744499430060387">
        <ele>1723.3</ele>
        <time>2019-03-08T14:12:56Z</time>
      </trkpt>
      <trkpt lat="46.424572924152017" lon="11.744322404265404">
        <ele>1721.8599999999999</ele>
        <time>2019-03-08T14:13:07Z</time>
      </trkpt>
      <trkpt lat="46.424563033506274" lon="11.744099278002977">
        <ele>1721.3800000000001</ele>
        <time>2019-03-08T14:13:20Z</time>
      </trkpt>
      <trkpt lat="46.424557166174054" lon="11.743891825899482">
        <ele>1719.46</ele>
        <time>2019-03-08T14:13:32Z</time>
      </trkpt>
      <trkpt lat="46.424528416246176" lon="11.743638105690479">
        <ele>1718.01</ele>
        <time>2019-03-08T14:13:46Z</time>
      </trkpt>
      <trkpt lat="46.424517687410116" lon="11.743385307490826">
        <ele>1717.53</ele>
        <time>2019-03-08T14:14:00Z</time>
      </trkpt>
      <trkpt lat="46.424537971615791" lon="11.743162013590336">
        <ele>1716.5699999999999</ele>
        <time>2019-03-08T14:14:12Z</time>
      </trkpt>
      <trkpt lat="46.424560602754354" lon="11.742971576750278">
        <ele>1715.1300000000001</ele>
        <time>2019-03-08T14:14:23Z</time>
      </trkpt>
      <trkpt lat="46.424573259428144" lon="11.742751803249121">
        <ele>1716.0899999999999</ele>
        <time>2019-03-08T14:14:36Z</time>
      </trkpt>
      <trkpt lat="46.424577618017793" lon="11.742538819089532">
        <ele>1715.6099999999999</ele>
        <time>2019-03-08T14:14:48Z</time>
      </trkpt>
      <trkpt lat="46.424558591097593" lon="11.742334719747305">
        <ele>1715.1300000000001</ele>
        <time>2019-03-08T14:15:00Z</time>
      </trkpt>
      <trkpt lat="46.424528583884239" lon="11.742191724479198">
        <ele>1715.6099999999999</ele>
        <time>2019-03-08T14:15:09Z</time>
      </trkpt>
      <trkpt lat="46.424530176445842" lon="11.742122657597065">
        <ele>1716.5699999999999</ele>
        <time>2019-03-08T14:15:13Z</time>
      </trkpt>
      <trkpt lat="46.424485165625811" lon="11.74199097789824">
        <ele>1714.1700000000001</ele>
        <time>2019-03-08T14:15:22Z</time>
      </trkpt>
      <trkpt lat="46.424401933327317" lon="11.741765337064862">
        <ele>1714.6500000000001</ele>
        <time>2019-03-08T14:15:36Z</time>
      </trkpt>
      <trkpt lat="46.424355413764715" lon="11.741559226065874">
        <ele>1716.0899999999999</ele>
        <time>2019-03-08T14:15:49Z</time>
      </trkpt>
      <trkpt lat="46.424302607774734" lon="11.741366190835834">
        <ele>1716.0899999999999</ele>
        <time>2019-03-08T14:16:01Z</time>
      </trkpt>
      <trkpt lat="46.424237480387092" lon="11.741161085665226">
        <ele>1714.6500000000001</ele>
        <time>2019-03-08T14:16:14Z</time>
      </trkpt>
      <trkpt lat="46.424168832600117" lon="11.740979449823499">
        <ele>1714.6500000000001</ele>
        <time>2019-03-08T14:16:26Z</time>
      </trkpt>
      <trkpt lat="46.424117367714643" lon="11.740758083760738">
        <ele>1712.25</ele>
        <time>2019-03-08T14:16:39Z</time>
      </trkpt>
      <trkpt lat="46.424074955284595" lon="11.740598324686289">
        <ele>1709.8399999999999</ele>
        <time>2019-03-08T14:16:49Z</time>
      </trkpt>
      <trkpt lat="46.424026926979423" lon="11.740461699664593">
        <ele>1708.8800000000001</ele>
        <time>2019-03-08T14:16:58Z</time>
      </trkpt>
      <trkpt lat="46.423978479579091" lon="11.740257851779461">
        <ele>1707.4400000000001</ele>
        <time>2019-03-08T14:17:10Z</time>
      </trkpt>
      <trkpt lat="46.423942856490612" lon="11.740061966702342">
        <ele>1705.52</ele>
        <time>2019-03-08T14:17:21Z</time>
      </trkpt>
      <trkpt lat="46.423933804035187" lon="11.740026343613863">
        <ele>1705.04</ele>
        <time>2019-03-08T14:17:23Z</time>
      </trkpt>
      <trkpt lat="46.423941012471914" lon="11.739951241761446">
        <ele>1705.04</ele>
        <time>2019-03-08T14:17:27Z</time>
      </trkpt>
      <trkpt lat="46.423940258100629" lon="11.739916456863284">
        <ele>1704.55</ele>
        <time>2019-03-08T14:17:29Z</time>
      </trkpt>
      <trkpt lat="46.423951154574752" lon="11.739732641726732">
        <ele>1701.6700000000001</ele>
        <time>2019-03-08T14:17:39Z</time>
      </trkpt>
      <trkpt lat="46.42395299859345" lon="11.739612445235252">
        <ele>1701.1900000000001</ele>
        <time>2019-03-08T14:17:45Z</time>
      </trkpt>
      <trkpt lat="46.423937324434519" lon="11.739440700039268">
        <ele>1701.6700000000001</ele>
        <time>2019-03-08T14:17:54Z</time>
      </trkpt>
      <trkpt lat="46.423942940309644" lon="11.739360401406884">
        <ele>1702.6300000000001</ele>
        <time>2019-03-08T14:17:58Z</time>
      </trkpt>
      <trkpt lat="46.423909077420831" lon="11.73920139670372">
        <ele>1703.5899999999999</ele>
        <time>2019-03-08T14:18:07Z</time>
      </trkpt>
      <trkpt lat="46.423931289464235" lon="11.738947005942464">
        <ele>1704.0699999999999</ele>
        <time>2019-03-08T14:18:20Z</time>
      </trkpt>
      <trkpt lat="46.423957524821162" lon="11.738834185525775">
        <ele>1703.1099999999999</ele>
        <time>2019-03-08T14:18:27Z</time>
      </trkpt>
      <trkpt lat="46.42395936883986" lon="11.738644167780876">
        <ele>1700.23</ele>
        <time>2019-03-08T14:18:39Z</time>
      </trkpt>
      <trkpt lat="46.423947215080261" lon="11.738451719284058">
        <ele>1696.3800000000001</ele>
        <time>2019-03-08T14:18:50Z</time>
      </trkpt>
      <trkpt lat="46.423942605033517" lon="11.738275783136487">
        <ele>1693.02</ele>
        <time>2019-03-08T14:19:00Z</time>
      </trkpt>
      <trkpt lat="46.423942102119327" lon="11.738220294937491">
        <ele>1691.5799999999999</ele>
        <time>2019-03-08T14:19:03Z</time>
      </trkpt>
      <trkpt lat="46.42395643517375" lon="11.73810102045536">
        <ele>1688.21</ele>
        <time>2019-03-08T14:19:10Z</time>
      </trkpt>
      <trkpt lat="46.423960877582431" lon="11.738034468144178">
        <ele>1684.8499999999999</ele>
        <time>2019-03-08T14:19:14Z</time>
      </trkpt>
      <trkpt lat="46.423962218686938" lon="11.737944530323148">
        <ele>1681.48</ele>
        <time>2019-03-08T14:19:19Z</time>
      </trkpt>
      <trkpt lat="46.423951238393784" lon="11.737873535603285">
        <ele>1678.5999999999999</ele>
        <time>2019-03-08T14:19:24Z</time>
      </trkpt>
      <trkpt lat="46.42393103800714" lon="11.737825172021985">
        <ele>1677.1600000000001</ele>
        <time>2019-03-08T14:19:27Z</time>
      </trkpt>
      <trkpt lat="46.423853253945708" lon="11.737599615007639">
        <ele>1676.6800000000001</ele>
        <time>2019-03-08T14:19:40Z</time>
      </trkpt>
      <trkpt lat="46.423846380785108" lon="11.737427366897464">
        <ele>1675.23</ele>
        <time>2019-03-08T14:19:49Z</time>
      </trkpt>
      <trkpt lat="46.423832215368748" lon="11.737254029139876">
        <ele>1675.23</ele>
        <time>2019-03-08T14:20:01Z</time>
      </trkpt>
      <trkpt lat="46.423820815980434" lon="11.737037608399987">
        <ele>1673.3099999999999</ele>
        <time>2019-03-08T14:20:14Z</time>
      </trkpt>
      <trkpt lat="46.423799693584442" lon="11.736794533208013">
        <ele>1673.3099999999999</ele>
        <time>2019-03-08T14:20:26Z</time>
      </trkpt>
      <trkpt lat="46.423775972798467" lon="11.736554726958275">
        <ele>1671.8699999999999</ele>
        <time>2019-03-08T14:20:38Z</time>
      </trkpt>
      <trkpt lat="46.4237639028579" lon="11.736435117200017">
        <ele>1668.51</ele>
        <time>2019-03-08T14:20:45Z</time>
      </trkpt>
      <trkpt lat="46.423753090202808" lon="11.736315842717886">
        <ele>1665.1400000000001</ele>
        <time>2019-03-08T14:20:52Z</time>
      </trkpt>
      <trkpt lat="46.423750491812825" lon="11.73629748634994">
        <ele>1664.6600000000001</ele>
        <time>2019-03-08T14:20:53Z</time>
      </trkpt>
      <trkpt lat="46.423742696642876" lon="11.736240824684501">
        <ele>1664.1800000000001</ele>
        <time>2019-03-08T14:20:56Z</time>
      </trkpt>
      <trkpt lat="46.423695674166083" lon="11.736071426421404">
        <ele>1662.74</ele>
        <time>2019-03-08T14:21:06Z</time>
      </trkpt>
      <trkpt lat="46.423687040805817" lon="11.736014680936933">
        <ele>1662.26</ele>
        <time>2019-03-08T14:21:09Z</time>
      </trkpt>
      <trkpt lat="46.423657955601811" lon="11.735910912975669">
        <ele>1660.8099999999999</ele>
        <time>2019-03-08T14:21:14Z</time>
      </trkpt>
      <trkpt lat="46.423649741336703" lon="11.735873948782682">
        <ele>1660.3299999999999</ele>
        <time>2019-03-08T14:21:16Z</time>
      </trkpt>
      <trkpt lat="46.423598444089293" lon="11.735633555799723">
        <ele>1657.45</ele>
        <time>2019-03-08T14:21:29Z</time>
      </trkpt>
      <trkpt lat="46.423582518473268" lon="11.735536325722933">
        <ele>1656.01</ele>
        <time>2019-03-08T14:21:35Z</time>
      </trkpt>
      <trkpt lat="46.423542620614171" lon="11.735421745106578">
        <ele>1656.01</ele>
        <time>2019-03-08T14:21:41Z</time>
      </trkpt>
      <trkpt lat="46.423517810180783" lon="11.735332813113928">
        <ele>1656.01</ele>
        <time>2019-03-08T14:21:46Z</time>
      </trkpt>
      <trkpt lat="46.423482103273273" lon="11.735183531418443">
        <ele>1656.97</ele>
        <time>2019-03-08T14:21:56Z</time>
      </trkpt>
      <trkpt lat="46.423420663923025" lon="11.734986640512943">
        <ele>1657.9300000000001</ele>
        <time>2019-03-08T14:22:06Z</time>
      </trkpt>
      <trkpt lat="46.423352183774114" lon="11.734810117632151">
        <ele>1659.3699999999999</ele>
        <time>2019-03-08T14:22:16Z</time>
      </trkpt>
      <trkpt lat="46.423321254551411" lon="11.734667457640171">
        <ele>1656.97</ele>
        <time>2019-03-08T14:22:26Z</time>
      </trkpt>
      <trkpt lat="46.423302059993148" lon="11.734493784606457">
        <ele>1654.5699999999999</ele>
        <time>2019-03-08T14:22:37Z</time>
      </trkpt>
      <trkpt lat="46.42330314964056" lon="11.734429495409131">
        <ele>1654.0899999999999</ele>
        <time>2019-03-08T14:22:41Z</time>
      </trkpt>
      <trkpt lat="46.423289403319359" lon="11.734353890642524">
        <ele>1652.6400000000001</ele>
        <time>2019-03-08T14:22:46Z</time>
      </trkpt>
      <trkpt lat="46.423274148255587" lon="11.734149036929011">
        <ele>1650.24</ele>
        <time>2019-03-08T14:22:59Z</time>
      </trkpt>
      <trkpt lat="46.423274567350745" lon="11.734134620055556">
        <ele>1649.76</ele>
        <time>2019-03-08T14:23:00Z</time>
      </trkpt>
      <trkpt lat="46.423248248174787" lon="11.734004616737366">
        <ele>1647.3599999999999</ele>
        <time>2019-03-08T14:23:09Z</time>
      </trkpt>
      <trkpt lat="46.423245733603835" lon="11.733994223177433">
        <ele>1647.3599999999999</ele>
        <time>2019-03-08T14:23:10Z</time>
      </trkpt>
      <trkpt lat="46.423158310353756" lon="11.733798086643219">
        <ele>1647.3599999999999</ele>
        <time>2019-03-08T14:23:21Z</time>
      </trkpt>
      <trkpt lat="46.423134673386812" lon="11.73375022597611">
        <ele>1647.3599999999999</ele>
        <time>2019-03-08T14:23:24Z</time>
      </trkpt>
      <trkpt lat="46.423075664788485" lon="11.733588706701994">
        <ele>1647.8399999999999</ele>
        <time>2019-03-08T14:23:34Z</time>
      </trkpt>
      <trkpt lat="46.423023026436567" lon="11.733447555452585">
        <ele>1647.8399999999999</ele>
        <time>2019-03-08T14:23:43Z</time>
      </trkpt>
      <trkpt lat="46.422982793301344" lon="11.73333004117012">
        <ele>1646.4000000000001</ele>
        <time>2019-03-08T14:23:51Z</time>
      </trkpt>
      <trkpt lat="46.42293912358582" lon="11.733234319835901">
        <ele>1646.8800000000001</ele>
        <time>2019-03-08T14:23:57Z</time>
      </trkpt>
      <trkpt lat="46.422875672578812" lon="11.73307397402823">
        <ele>1647.3599999999999</ele>
        <time>2019-03-08T14:24:07Z</time>
      </trkpt>
      <trkpt lat="46.422868212684989" lon="11.733053438365459">
        <ele>1645.9100000000001</ele>
        <time>2019-03-08T14:24:17Z</time>
      </trkpt>
      <trkpt lat="46.422763774171472" lon="11.732968781143427">
        <ele>1644.95</ele>
        <time>2019-03-08T14:24:29Z</time>
      </trkpt>
      <trkpt lat="46.422703424468637" lon="11.732909772545099">
        <ele>1641.5899999999999</ele>
        <time>2019-03-08T14:24:36Z</time>
      </trkpt>
      <trkpt lat="46.422645840793848" lon="11.732875993475318">
        <ele>1638.22</ele>
        <time>2019-03-08T14:24:41Z</time>
      </trkpt>
      <trkpt lat="46.422628490254283" lon="11.732860906049609">
        <ele>1637.74</ele>
        <time>2019-03-08T14:24:43Z</time>
      </trkpt>
      <trkpt lat="46.422490691766143" lon="11.732779266312718">
        <ele>1635.8199999999999</ele>
        <time>2019-03-08T14:24:56Z</time>
      </trkpt>
      <trkpt lat="46.422401592135429" lon="11.732711037620902">
        <ele>1637.74</ele>
        <time>2019-03-08T14:25:04Z</time>
      </trkpt>
      <trkpt lat="46.422323053702712" lon="11.732607185840607">
        <ele>1641.1099999999999</ele>
        <time>2019-03-08T14:25:12Z</time>
      </trkpt>
      <trkpt lat="46.422232696786523" lon="11.732511548325419">
        <ele>1643.51</ele>
        <time>2019-03-08T14:25:22Z</time>
      </trkpt>
      <trkpt lat="46.422101939097047" lon="11.732366709038615">
        <ele>1644.47</ele>
        <time>2019-03-08T14:25:34Z</time>
      </trkpt>
      <trkpt lat="46.422004960477352" lon="11.732172919437289">
        <ele>1643.51</ele>
        <time>2019-03-08T14:25:46Z</time>
      </trkpt>
      <trkpt lat="46.421990375965834" lon="11.732145678251982">
        <ele>1640.6300000000001</ele>
        <time>2019-03-08T14:25:50Z</time>
      </trkpt>
      <trkpt lat="46.42196724191308" lon="11.73208549618721">
        <ele>1637.26</ele>
        <time>2019-03-08T14:25:55Z</time>
      </trkpt>
      <trkpt lat="46.421958776190877" lon="11.732032774016261">
        <ele>1635.8199999999999</ele>
        <time>2019-03-08T14:25:58Z</time>
      </trkpt>
      <trkpt lat="46.421942515298724" lon="11.731972005218267">
        <ele>1633.9000000000001</ele>
        <time>2019-03-08T14:26:02Z</time>
      </trkpt>
      <trkpt lat="46.421924997121096" lon="11.731933113187551">
        <ele>1632.46</ele>
        <time>2019-03-08T14:26:05Z</time>
      </trkpt>
      <trkpt lat="46.421888200566173" lon="11.731833871454">
        <ele>1629.5699999999999</ele>
        <time>2019-03-08T14:26:13Z</time>
      </trkpt>
      <trkpt lat="46.421852577477694" lon="11.731810653582215">
        <ele>1626.6900000000001</ele>
        <time>2019-03-08T14:26:17Z</time>
      </trkpt>
      <trkpt lat="46.421824330464005" lon="11.731791459023952">
        <ele>1625.73</ele>
        <time>2019-03-08T14:26:19Z</time>
      </trkpt>
      <trkpt lat="46.421806896105409" lon="11.731731947511435">
        <ele>1624.28</ele>
        <time>2019-03-08T14:26:22Z</time>
      </trkpt>
      <trkpt lat="46.421768758445978" lon="11.731657851487398">
        <ele>1622.8399999999999</ele>
        <time>2019-03-08T14:26:26Z</time>
      </trkpt>
      <trkpt lat="46.421742020174861" lon="11.731596831232309">
        <ele>1621.8800000000001</ele>
        <time>2019-03-08T14:26:30Z</time>
      </trkpt>
      <trkpt lat="46.421690303832293" lon="11.731504211202264">
        <ele>1618.04</ele>
        <time>2019-03-08T14:26:37Z</time>
      </trkpt>
      <trkpt lat="46.421664068475366" lon="11.731444532051682">
        <ele>1615.6300000000001</ele>
        <time>2019-03-08T14:26:41Z</time>
      </trkpt>
      <trkpt lat="46.421657195314765" lon="11.731428690254688">
        <ele>1615.1500000000001</ele>
        <time>2019-03-08T14:26:42Z</time>
      </trkpt>
      <trkpt lat="46.421643532812595" lon="11.731353253126144">
        <ele>1613.23</ele>
        <time>2019-03-08T14:26:46Z</time>
      </trkpt>
      <trkpt lat="46.421601204201579" lon="11.731129707768559">
        <ele>1610.8299999999999</ele>
        <time>2019-03-08T14:26:57Z</time>
      </trkpt>
      <trkpt lat="46.42157387919724" lon="11.730895265936852">
        <ele>1609.3800000000001</ele>
        <time>2019-03-08T14:27:08Z</time>
      </trkpt>
      <trkpt lat="46.421565916389227" lon="11.730684293434024">
        <ele>1607.9400000000001</ele>
        <time>2019-03-08T14:27:18Z</time>
      </trkpt>
      <trkpt lat="46.421555690467358" lon="11.730627883225679">
        <ele>1607.46</ele>
        <time>2019-03-08T14:27:21Z</time>
      </trkpt>
      <trkpt lat="46.421509422361851" lon="11.730438452214003">
        <ele>1607.46</ele>
        <time>2019-03-08T14:27:32Z</time>
      </trkpt>
      <trkpt lat="46.421437337994576" lon="11.730283219367266">
        <ele>1608.9000000000001</ele>
        <time>2019-03-08T14:27:43Z</time>
      </trkpt>
      <trkpt lat="46.421354776248336" lon="11.730083059519529">
        <ele>1609.3800000000001</ele>
        <time>2019-03-08T14:27:56Z</time>
      </trkpt>
      <trkpt lat="46.421346813440323" lon="11.730073671787977">
        <ele>1608.9000000000001</ele>
        <time>2019-03-08T14:27:57Z</time>
      </trkpt>
      <trkpt lat="46.42132711596787" lon="11.730036456137896">
        <ele>1608.9000000000001</ele>
        <time>2019-03-08T14:28:00Z</time>
      </trkpt>
      <trkpt lat="46.421272549778223" lon="11.729977866634727">
        <ele>1608.9000000000001</ele>
        <time>2019-03-08T14:28:05Z</time>
      </trkpt>
      <trkpt lat="46.421133829280734" lon="11.729792458936572">
        <ele>1608.4200000000001</ele>
        <time>2019-03-08T14:28:19Z</time>
      </trkpt>
      <trkpt lat="46.421030312776566" lon="11.729666227474809">
        <ele>1608.9000000000001</ele>
        <time>2019-03-08T14:28:29Z</time>
      </trkpt>
      <trkpt lat="46.420928388834" lon="11.729500433430076">
        <ele>1608.4200000000001</ele>
        <time>2019-03-08T14:28:40Z</time>
      </trkpt>
      <trkpt lat="46.420809533447027" lon="11.729334387928247">
        <ele>1608.9000000000001</ele>
        <time>2019-03-08T14:28:53Z</time>
      </trkpt>
      <trkpt lat="46.420648936182261" lon="11.729146298021078">
        <ele>1609.3800000000001</ele>
        <time>2019-03-08T14:29:09Z</time>
      </trkpt>
      <trkpt lat="46.420511556789279" lon="11.728978827595711">
        <ele>1609.3800000000001</ele>
        <time>2019-03-08T14:29:22Z</time>
      </trkpt>
      <trkpt lat="46.42037870362401" lon="11.728775566443801">
        <ele>1607.46</ele>
        <time>2019-03-08T14:29:36Z</time>
      </trkpt>
      <trkpt lat="46.420294549316168" lon="11.728607676923275">
        <ele>1606.5</ele>
        <time>2019-03-08T14:29:48Z</time>
      </trkpt>
      <trkpt lat="46.420162366703153" lon="11.728400308638811">
        <ele>1605.54</ele>
        <time>2019-03-08T14:30:02Z</time>
      </trkpt>
      <trkpt lat="46.420001182705164" lon="11.728221103549004">
        <ele>1602.6600000000001</ele>
        <time>2019-03-08T14:30:16Z</time>
      </trkpt>
      <trkpt lat="46.419844022020698" lon="11.728068552911282">
        <ele>1600.25</ele>
        <time>2019-03-08T14:30:29Z</time>
      </trkpt>
      <trkpt lat="46.419759448617697" lon="11.728006275370717">
        <ele>1598.8099999999999</ele>
        <time>2019-03-08T14:30:35Z</time>
      </trkpt>
      <trkpt lat="46.419686023145914" lon="11.727939723059535">
        <ele>1597.3699999999999</ele>
        <time>2019-03-08T14:30:42Z</time>
      </trkpt>
      <trkpt lat="46.419549733400345" lon="11.727865543216467">
        <ele>1596.8900000000001</ele>
        <time>2019-03-08T14:30:53Z</time>
      </trkpt>
      <trkpt lat="46.419402295723557" lon="11.727799074724317">
        <ele>1597.8499999999999</ele>
        <time>2019-03-08T14:31:04Z</time>
      </trkpt>
      <trkpt lat="46.41934915445745" lon="11.727765128016472">
        <ele>1598.3299999999999</ele>
        <time>2019-03-08T14:31:08Z</time>
      </trkpt>
      <trkpt lat="46.419162657111883" lon="11.727706622332335">
        <ele>1599.29</ele>
        <time>2019-03-08T14:31:21Z</time>
      </trkpt>
      <trkpt lat="46.419012453407049" lon="11.72761551104486">
        <ele>1600.25</ele>
        <time>2019-03-08T14:31:32Z</time>
      </trkpt>
      <trkpt lat="46.418879684060812" lon="11.727501433342695">
        <ele>1600.73</ele>
        <time>2019-03-08T14:31:42Z</time>
      </trkpt>
      <trkpt lat="46.418775580823421" lon="11.727351313456893">
        <ele>1602.6600000000001</ele>
        <time>2019-03-08T14:31:53Z</time>
      </trkpt>
      <trkpt lat="46.418701149523258" lon="11.727232206612825">
        <ele>1602.6600000000001</ele>
        <time>2019-03-08T14:32:02Z</time>
      </trkpt>
      <trkpt lat="46.418568631634116" lon="11.727026849985123">
        <ele>1604.0999999999999</ele>
        <time>2019-03-08T14:32:14Z</time>
      </trkpt>
      <trkpt lat="46.418440639972687" lon="11.726907659322023">
        <ele>1605.0599999999999</ele>
        <time>2019-03-08T14:32:24Z</time>
      </trkpt>
      <trkpt lat="46.418319270014763" lon="11.726788887754083">
        <ele>1605.54</ele>
        <time>2019-03-08T14:32:34Z</time>
      </trkpt>
      <trkpt lat="46.418200079351664" lon="11.726662153378129">
        <ele>1605.0599999999999</ele>
        <time>2019-03-08T14:32:44Z</time>
      </trkpt>
      <trkpt lat="46.418106369674206" lon="11.726522007957101">
        <ele>1605.0599999999999</ele>
        <time>2019-03-08T14:32:52Z</time>
      </trkpt>
      <trkpt lat="46.418025316670537" lon="11.72629133798182">
        <ele>1606.5</ele>
        <time>2019-03-08T14:33:03Z</time>
      </trkpt>
      <trkpt lat="46.417995309457183" lon="11.726237609982491">
        <ele>1606.5</ele>
        <time>2019-03-08T14:33:06Z</time>
      </trkpt>
      <trkpt lat="46.418000925332308" lon="11.726215565577149">
        <ele>1605.54</ele>
        <time>2019-03-08T14:33:07Z</time>
      </trkpt>
      <trkpt lat="46.418022466823459" lon="11.726194946095347">
        <ele>1602.6600000000001</ele>
        <time>2019-03-08T14:33:08Z</time>
      </trkpt>
      <trkpt lat="46.418014755472541" lon="11.726173488423228">
        <ele>1602.6600000000001</ele>
        <time>2019-03-08T14:33:09Z</time>
      </trkpt>
      <trkpt lat="46.418009223416448" lon="11.726156054064631">
        <ele>1602.6600000000001</ele>
        <time>2019-03-08T14:33:10Z</time>
      </trkpt>
      <trkpt lat="46.418004026636481" lon="11.726138116791844">
        <ele>1603.1400000000001</ele>
        <time>2019-03-08T14:33:11Z</time>
      </trkpt>
      <trkpt lat="46.418000087141991" lon="11.726122023537755">
        <ele>1603.1400000000001</ele>
        <time>2019-03-08T14:33:12Z</time>
      </trkpt>
      <trkpt lat="46.418037051334977" lon="11.726081371307373">
        <ele>1596.8900000000001</ele>
        <time>2019-03-08T14:33:14Z</time>
      </trkpt>
      <trkpt lat="46.418070243671536" lon="11.726046334952116">
        <ele>1592.0799999999999</ele>
        <time>2019-03-08T14:33:16Z</time>
      </trkpt>
      <trkpt lat="46.41806747764349" lon="11.725988332182169">
        <ele>1588.24</ele>
        <time>2019-03-08T14:33:19Z</time>
      </trkpt>
      <trkpt lat="46.418064376339316" lon="11.725916247814894">
        <ele>1583.9100000000001</ele>
        <time>2019-03-08T14:33:23Z</time>
      </trkpt>
      <trkpt lat="46.418068818747997" lon="11.72584131360054">
        <ele>1580.54</ele>
        <time>2019-03-08T14:33:27Z</time>
      </trkpt>
      <trkpt lat="46.418061694130301" lon="11.725793788209558">
        <ele>1577.6600000000001</ele>
        <time>2019-03-08T14:33:30Z</time>
      </trkpt>
      <trkpt lat="46.41805968247354" lon="11.725775767117739">
        <ele>1577.1800000000001</ele>
        <time>2019-03-08T14:33:31Z</time>
      </trkpt>
      <trkpt lat="46.418055910617113" lon="11.72576017677784">
        <ele>1576.7</ele>
        <time>2019-03-08T14:33:32Z</time>
      </trkpt>
      <trkpt lat="46.418045768514276" lon="11.725705862045288">
        <ele>1574.78</ele>
        <time>2019-03-08T14:33:35Z</time>
      </trkpt>
      <trkpt lat="46.418045936152339" lon="11.725688511505723">
        <ele>1573.8199999999999</ele>
        <time>2019-03-08T14:33:36Z</time>
      </trkpt>
      <trkpt lat="46.418043673038483" lon="11.725669568404555">
        <ele>1573.3299999999999</ele>
        <time>2019-03-08T14:33:37Z</time>
      </trkpt>
      <trkpt lat="46.418041912838817" lon="11.72565121203661">
        <ele>1573.3299999999999</ele>
        <time>2019-03-08T14:33:38Z</time>
      </trkpt>
      <trkpt lat="46.418039062991738" lon="11.72553688287735">
        <ele>1569.49</ele>
        <time>2019-03-08T14:33:45Z</time>
      </trkpt>
      <trkpt lat="46.418043002486229" lon="11.725482484325767">
        <ele>1568.05</ele>
        <time>2019-03-08T14:33:48Z</time>
      </trkpt>
      <trkpt lat="46.418044427409768" lon="11.725423475727439">
        <ele>1567.0899999999999</ele>
        <time>2019-03-08T14:33:51Z</time>
      </trkpt>
      <trkpt lat="46.418044930323958" lon="11.725407131016254">
        <ele>1566.6099999999999</ele>
        <time>2019-03-08T14:33:52Z</time>
      </trkpt>
      <trkpt lat="46.418032860383391" lon="11.725213173776865">
        <ele>1562.76</ele>
        <time>2019-03-08T14:34:02Z</time>
      </trkpt>
      <trkpt lat="46.418015258386731" lon="11.724981749430299">
        <ele>1560.3599999999999</ele>
        <time>2019-03-08T14:34:13Z</time>
      </trkpt>
      <trkpt lat="46.417999416589737" lon="11.724777147173882">
        <ele>1557.47</ele>
        <time>2019-03-08T14:34:24Z</time>
      </trkpt>
      <trkpt lat="46.417973767966032" lon="11.724526947364211">
        <ele>1555.0699999999999</ele>
        <time>2019-03-08T14:34:37Z</time>
      </trkpt>
      <trkpt lat="46.417944934219122" lon="11.72428940422833">
        <ele>1554.1099999999999</ele>
        <time>2019-03-08T14:34:50Z</time>
      </trkpt>
      <trkpt lat="46.417935714125633" lon="11.724200304597616">
        <ele>1554.1099999999999</ele>
        <time>2019-03-08T14:34:55Z</time>
      </trkpt>
      <trkpt lat="46.417932445183396" lon="11.724186139181256">
        <ele>1554.1099999999999</ele>
        <time>2019-03-08T14:34:56Z</time>
      </trkpt>
      <trkpt lat="46.417892128229141" lon="11.72402311116457">
        <ele>1554.1099999999999</ele>
        <time>2019-03-08T14:35:06Z</time>
      </trkpt>
      <trkpt lat="46.41786421649158" lon="11.723922612145543">
        <ele>1552.6700000000001</ele>
        <time>2019-03-08T14:35:12Z</time>
      </trkpt>
      <trkpt lat="46.417859438806772" lon="11.723907189443707">
        <ele>1552.6700000000001</ele>
        <time>2019-03-08T14:35:13Z</time>
      </trkpt>
      <trkpt lat="46.417852565646172" lon="11.723890006542206">
        <ele>1552.6700000000001</ele>
        <time>2019-03-08T14:35:14Z</time>
      </trkpt>
      <trkpt lat="46.417781068012118" lon="11.723747430369258">
        <ele>1551.22</ele>
        <time>2019-03-08T14:35:25Z</time>
      </trkpt>
      <trkpt lat="46.417681155726314" lon="11.723563699051738">
        <ele>1555.0699999999999</ele>
        <time>2019-03-08T14:36:36Z</time>
      </trkpt>
      <trkpt lat="46.417671432718635" lon="11.723546432331204">
        <ele>1555.0699999999999</ele>
        <time>2019-03-08T14:36:37Z</time>
      </trkpt>
      <trkpt lat="46.417665313929319" lon="11.723528243601322">
        <ele>1554.5899999999999</ele>
        <time>2019-03-08T14:36:38Z</time>
      </trkpt>
      <trkpt lat="46.417656932026148" lon="11.723510893061757">
        <ele>1554.5899999999999</ele>
        <time>2019-03-08T14:36:39Z</time>
      </trkpt>
      <trkpt lat="46.417647711932659" lon="11.72349538654089">
        <ele>1554.5899999999999</ele>
        <time>2019-03-08T14:36:40Z</time>
      </trkpt>
      <trkpt lat="46.417640838772058" lon="11.723483735695481">
        <ele>1554.1099999999999</ele>
        <time>2019-03-08T14:36:41Z</time>
      </trkpt>
      <trkpt lat="46.417573699727654" lon="11.723324814811349">
        <ele>1552.1900000000001</ele>
        <time>2019-03-08T14:36:53Z</time>
      </trkpt>
      <trkpt lat="46.417471272870898" lon="11.723122643306851">
        <ele>1550.26</ele>
        <time>2019-03-08T14:37:07Z</time>
      </trkpt>
      <trkpt lat="46.417406816035509" lon="11.723003033548594">
        <ele>1547.8599999999999</ele>
        <time>2019-03-08T14:37:27Z</time>
      </trkpt>
      <trkpt lat="46.417379658669233" lon="11.72289096750319">
        <ele>1551.22</ele>
        <time>2019-03-08T14:46:23Z</time>
      </trkpt>
      <trkpt lat="46.417309753596783" lon="11.722701033577323">
        <ele>1549.78</ele>
        <time>2019-03-08T14:46:36Z</time>
      </trkpt>
      <trkpt lat="46.41727052628994" lon="11.722567426040769">
        <ele>1547.3800000000001</ele>
        <time>2019-03-08T14:46:45Z</time>
      </trkpt>
      <trkpt lat="46.417232137173414" lon="11.722330302000046">
        <ele>1545.9400000000001</ele>
        <time>2019-03-08T14:46:59Z</time>
      </trkpt>
      <trkpt lat="46.417233813554049" lon="11.722102900967002">
        <ele>1543.53</ele>
        <time>2019-03-08T14:47:12Z</time>
      </trkpt>
      <trkpt lat="46.417240099981427" lon="11.721878601238132">
        <ele>1542.5699999999999</ele>
        <time>2019-03-08T14:47:24Z</time>
      </trkpt>
      <trkpt lat="46.417246386408806" lon="11.721649607643485">
        <ele>1540.1700000000001</ele>
        <time>2019-03-08T14:47:37Z</time>
      </trkpt>
      <trkpt lat="46.417248230427504" lon="11.72138063237071">
        <ele>1539.21</ele>
        <time>2019-03-08T14:47:52Z</time>
      </trkpt>
      <trkpt lat="46.417213110253215" lon="11.721163038164377">
        <ele>1538.73</ele>
        <time>2019-03-08T14:48:05Z</time>
      </trkpt>
      <trkpt lat="46.417127279564738" lon="11.720950724557042">
        <ele>1537.77</ele>
        <time>2019-03-08T14:48:19Z</time>
      </trkpt>
      <trkpt lat="46.417039269581437" lon="11.72075710259378">
        <ele>1536.8</ele>
        <time>2019-03-08T14:48:32Z</time>
      </trkpt>
      <trkpt lat="46.416948828846216" lon="11.720594242215157">
        <ele>1536.3199999999999</ele>
        <time>2019-03-08T14:48:44Z</time>
      </trkpt>
      <trkpt lat="46.416870206594467" lon="11.720375306904316">
        <ele>1535.8399999999999</ele>
        <time>2019-03-08T14:48:57Z</time>
      </trkpt>
      <trkpt lat="46.416838355362415" lon="11.720156455412507">
        <ele>1533.4400000000001</ele>
        <time>2019-03-08T14:49:09Z</time>
      </trkpt>
      <trkpt lat="46.416835421696305" lon="11.719963336363435">
        <ele>1530.5599999999999</ele>
        <time>2019-03-08T14:49:20Z</time>
      </trkpt>
      <trkpt lat="46.416820837184787" lon="11.719716154038906">
        <ele>1529.1099999999999</ele>
        <time>2019-03-08T14:49:34Z</time>
      </trkpt>
      <trkpt lat="46.416785130277276" lon="11.71952873468399">
        <ele>1528.1500000000001</ele>
        <time>2019-03-08T14:49:45Z</time>
      </trkpt>
      <trkpt lat="46.416734419763088" lon="11.71930150128901">
        <ele>1527.6700000000001</ele>
        <time>2019-03-08T14:49:58Z</time>
      </trkpt>
      <trkpt lat="46.416709525510669" lon="11.719016600400209">
        <ele>1525.27</ele>
        <time>2019-03-08T14:50:13Z</time>
      </trkpt>
      <trkpt lat="46.416691923514009" lon="11.718735722824931">
        <ele>1522.8699999999999</ele>
        <time>2019-03-08T14:50:28Z</time>
      </trkpt>
      <trkpt lat="46.416699718683958" lon="11.718393238261342">
        <ele>1520.46</ele>
        <time>2019-03-08T14:50:46Z</time>
      </trkpt>
      <trkpt lat="46.416702903807163" lon="11.718114456161857">
        <ele>1519.02</ele>
        <time>2019-03-08T14:51:01Z</time>
      </trkpt>
      <trkpt lat="46.416704915463924" lon="11.717880852520466">
        <ele>1516.6199999999999</ele>
        <time>2019-03-08T14:51:13Z</time>
      </trkpt>
      <trkpt lat="46.416707597672939" lon="11.717632999643683">
        <ele>1514.21</ele>
        <time>2019-03-08T14:51:26Z</time>
      </trkpt>
      <trkpt lat="46.416667532175779" lon="11.717319348827004">
        <ele>1513.25</ele>
        <time>2019-03-08T14:51:42Z</time>
      </trkpt>
      <trkpt lat="46.416650181636214" lon="11.717097815126181">
        <ele>1512.29</ele>
        <time>2019-03-08T14:51:54Z</time>
      </trkpt>
      <trkpt lat="46.416651103645563" lon="11.716847363859415">
        <ele>1509.8900000000001</ele>
        <time>2019-03-08T14:52:08Z</time>
      </trkpt>
      <trkpt lat="46.4166543725878" lon="11.716718282550573">
        <ele>1508.9300000000001</ele>
        <time>2019-03-08T14:52:15Z</time>
      </trkpt>
      <trkpt lat="46.416685972362757" lon="11.716463891789317">
        <ele>1506.52</ele>
        <time>2019-03-08T14:52:29Z</time>
      </trkpt>
      <trkpt lat="46.416705837473273" lon="11.716233640909195">
        <ele>1504.5999999999999</ele>
        <time>2019-03-08T14:52:41Z</time>
      </trkpt>
      <trkpt lat="46.41668857075274" lon="11.716029290109873">
        <ele>1502.6800000000001</ele>
        <time>2019-03-08T14:52:55Z</time>
      </trkpt>
      <trkpt lat="46.416608355939388" lon="11.71592409722507">
        <ele>1503.1600000000001</ele>
        <time>2019-03-08T14:53:05Z</time>
      </trkpt>
      <trkpt lat="46.416528979316354" lon="11.715816557407379">
        <ele>1505.0799999999999</ele>
        <time>2019-03-08T14:53:15Z</time>
      </trkpt>
      <trkpt lat="46.416432252153754" lon="11.715767523273826">
        <ele>1506.52</ele>
        <time>2019-03-08T14:53:26Z</time>
      </trkpt>
      <trkpt lat="46.416352372616529" lon="11.715755285695195">
        <ele>1507.97</ele>
        <time>2019-03-08T14:53:36Z</time>
      </trkpt>
      <trkpt lat="46.416279366239905" lon="11.715684710070491">
        <ele>1510.8499999999999</ele>
        <time>2019-03-08T14:53:47Z</time>
      </trkpt>
      <trkpt lat="46.416246425360441" lon="11.715581109747291">
        <ele>1511.8099999999999</ele>
        <time>2019-03-08T14:53:57Z</time>
      </trkpt>
      <trkpt lat="46.416237037628889" lon="11.715445071458817">
        <ele>1513.73</ele>
        <time>2019-03-08T14:54:08Z</time>
      </trkpt>
      <trkpt lat="46.416228991001844" lon="11.715314649045467">
        <ele>1515.6600000000001</ele>
        <time>2019-03-08T14:54:20Z</time>
      </trkpt>
      <trkpt lat="46.416236450895667" lon="11.715193027630448">
        <ele>1519.02</ele>
        <time>2019-03-08T14:54:32Z</time>
      </trkpt>
      <trkpt lat="46.416242066770792" lon="11.715087331831455">
        <ele>1521.4200000000001</ele>
        <time>2019-03-08T14:54:42Z</time>
      </trkpt>
      <trkpt lat="46.416238294914365" lon="11.714978870004416">
        <ele>1523.3499999999999</ele>
        <time>2019-03-08T14:54:53Z</time>
      </trkpt>
      <trkpt lat="46.416243156418204" lon="11.714922459796071">
        <ele>1523.3499999999999</ele>
        <time>2019-03-08T14:54:57Z</time>
      </trkpt>
      <trkpt lat="46.416243240237236" lon="11.714849788695574">
        <ele>1522.8699999999999</ele>
        <time>2019-03-08T14:55:01Z</time>
      </trkpt>
      <trkpt lat="46.416245000436902" lon="11.714677708223462">
        <ele>1522.8699999999999</ele>
        <time>2019-03-08T14:55:11Z</time>
      </trkpt>
      <trkpt lat="46.416262686252594" lon="11.71457888558507">
        <ele>1521.9000000000001</ele>
        <time>2019-03-08T14:55:17Z</time>
      </trkpt>
      <trkpt lat="46.416284646838903" lon="11.714391550049186">
        <ele>1523.3499999999999</ele>
        <time>2019-03-08T14:55:30Z</time>
      </trkpt>
      <trkpt lat="46.416281126439571" lon="11.714341677725315">
        <ele>1524.3099999999999</ele>
        <time>2019-03-08T14:55:33Z</time>
      </trkpt>
      <trkpt lat="46.41627810895443" lon="11.714295409619808">
        <ele>1524.79</ele>
        <time>2019-03-08T14:55:36Z</time>
      </trkpt>
      <trkpt lat="46.416322868317366" lon="11.714068846777081">
        <ele>1526.23</ele>
        <time>2019-03-08T14:55:49Z</time>
      </trkpt>
      <trkpt lat="46.416337788105011" lon="11.713806912302971">
        <ele>1522.8699999999999</ele>
        <time>2019-03-08T14:56:00Z</time>
      </trkpt>
      <trkpt lat="46.416374500840902" lon="11.713681099936366">
        <ele>1519.5</ele>
        <time>2019-03-08T14:56:08Z</time>
      </trkpt>
      <trkpt lat="46.416392102837563" lon="11.713640699163079">
        <ele>1518.54</ele>
        <time>2019-03-08T14:56:11Z</time>
      </trkpt>
      <trkpt lat="46.416452955454588" lon="11.713476246222854">
        <ele>1516.1400000000001</ele>
        <time>2019-03-08T14:56:21Z</time>
      </trkpt>
      <trkpt lat="46.416499391198158" lon="11.713345823809505">
        <ele>1516.1400000000001</ele>
        <time>2019-03-08T14:56:29Z</time>
      </trkpt>
      <trkpt lat="46.416600309312344" lon="11.713224118575454">
        <ele>1514.6900000000001</ele>
        <time>2019-03-08T14:56:40Z</time>
      </trkpt>
      <trkpt lat="46.416676668450236" lon="11.71306075528264">
        <ele>1515.1800000000001</ele>
        <time>2019-03-08T14:56:50Z</time>
      </trkpt>
      <trkpt lat="46.41670080833137" lon="11.713025299832225">
        <ele>1515.1800000000001</ele>
        <time>2019-03-08T14:56:53Z</time>
      </trkpt>
      <trkpt lat="46.416766438633204" lon="11.712741320952773">
        <ele>1513.25</ele>
        <time>2019-03-08T14:57:07Z</time>
      </trkpt>
      <trkpt lat="46.416771551594138" lon="11.712665297091007">
        <ele>1512.29</ele>
        <time>2019-03-08T14:57:11Z</time>
      </trkpt>
      <trkpt lat="46.416795020923018" lon="11.712458683177829">
        <ele>1509.4100000000001</ele>
        <time>2019-03-08T14:57:23Z</time>
      </trkpt>
      <trkpt lat="46.416804324835539" lon="11.712371176108718">
        <ele>1509.4100000000001</ele>
        <time>2019-03-08T14:57:27Z</time>
      </trkpt>
      <trkpt lat="46.41679217107594" lon="11.712195491418242">
        <ele>1509.8900000000001</ele>
        <time>2019-03-08T14:57:37Z</time>
      </trkpt>
      <trkpt lat="46.416821507737041" lon="11.712115444242954">
        <ele>1510.3699999999999</ele>
        <time>2019-03-08T14:57:42Z</time>
      </trkpt>
      <trkpt lat="46.416908595710993" lon="11.711976053193212">
        <ele>1510.3699999999999</ele>
        <time>2019-03-08T14:57:52Z</time>
      </trkpt>
      <trkpt lat="46.41703549772501" lon="11.711899107322097">
        <ele>1510.8499999999999</ele>
        <time>2019-03-08T14:58:05Z</time>
      </trkpt>
      <trkpt lat="46.417186120525002" lon="11.711813108995557">
        <ele>1507.97</ele>
        <time>2019-03-08T14:58:18Z</time>
      </trkpt>
      <trkpt lat="46.417254349216819" lon="11.711737085133791">
        <ele>1506.52</ele>
        <time>2019-03-08T14:58:24Z</time>
      </trkpt>
      <trkpt lat="46.417298773303628" lon="11.711703054606915">
        <ele>1505.0799999999999</ele>
        <time>2019-03-08T14:58:28Z</time>
      </trkpt>
      <trkpt lat="46.417419388890266" lon="11.711629964411259">
        <ele>1503.1600000000001</ele>
        <time>2019-03-08T14:58:37Z</time>
      </trkpt>
      <trkpt lat="46.417447049170732" lon="11.71156894415617">
        <ele>1501.24</ele>
        <time>2019-03-08T14:58:41Z</time>
      </trkpt>
      <trkpt lat="46.417477140203118" lon="11.711408514529467">
        <ele>1497.8699999999999</ele>
        <time>2019-03-08T14:58:50Z</time>
      </trkpt>
      <trkpt lat="46.417480744421482" lon="11.711393008008599">
        <ele>1497.3900000000001</ele>
        <time>2019-03-08T14:58:51Z</time>
      </trkpt>
      <trkpt lat="46.417547380551696" lon="11.71120734885335">
        <ele>1494.99</ele>
        <time>2019-03-08T14:59:01Z</time>
      </trkpt>
      <trkpt lat="46.417584093287587" lon="11.711062090471387">
        <ele>1492.0999999999999</ele>
        <time>2019-03-08T14:59:09Z</time>
      </trkpt>
      <trkpt lat="46.417546793818474" lon="11.710849944502115">
        <ele>1490.6600000000001</ele>
        <time>2019-03-08T14:59:23Z</time>
      </trkpt>
      <trkpt lat="46.417488539591432" lon="11.710646180436015">
        <ele>1489.7</ele>
        <time>2019-03-08T14:59:33Z</time>
      </trkpt>
      <trkpt lat="46.417480912059546" lon="11.710501173511147">
        <ele>1486.8199999999999</ele>
        <time>2019-03-08T14:59:40Z</time>
      </trkpt>
      <trkpt lat="46.417459035292268" lon="11.710326494649053">
        <ele>1483.45</ele>
        <time>2019-03-08T14:59:48Z</time>
      </trkpt>
      <trkpt lat="46.41747772693634" lon="11.710183583199978">
        <ele>1481.05</ele>
        <time>2019-03-08T14:59:55Z</time>
      </trkpt>
      <trkpt lat="46.417524665594101" lon="11.710126586258411">
        <ele>1479.6099999999999</ele>
        <time>2019-03-08T14:59:59Z</time>
      </trkpt>
      <trkpt lat="46.417551822960377" lon="11.710120886564255">
        <ele>1479.1300000000001</ele>
        <time>2019-03-08T15:00:01Z</time>
      </trkpt>
      <trkpt lat="46.417634719982743" lon="11.710235299542546">
        <ele>1478.1600000000001</ele>
        <time>2019-03-08T15:00:09Z</time>
      </trkpt>
      <trkpt lat="46.417647963389754" lon="11.71036153100431">
        <ele>1476.72</ele>
        <time>2019-03-08T15:00:15Z</time>
      </trkpt>
      <trkpt lat="46.417694818228483" lon="11.710446272045374">
        <ele>1476.72</ele>
        <time>2019-03-08T15:00:21Z</time>
      </trkpt>
      <trkpt lat="46.417805207893252" lon="11.710597984492779">
        <ele>1475.76</ele>
        <time>2019-03-08T15:00:32Z</time>
      </trkpt>
      <trkpt lat="46.417945269495249" lon="11.710743494331837">
        <ele>1473.8399999999999</ele>
        <time>2019-03-08T15:00:45Z</time>
      </trkpt>
      <trkpt lat="46.417990196496248" lon="11.710744835436344">
        <ele>1471.9200000000001</ele>
        <time>2019-03-08T15:00:50Z</time>
      </trkpt>
      <trkpt lat="46.417995896190405" lon="11.710680210962892">
        <ele>1470.47</ele>
        <time>2019-03-08T15:00:54Z</time>
      </trkpt>
      <trkpt lat="46.417928505688906" lon="11.710514836013317">
        <ele>1469.51</ele>
        <time>2019-03-08T15:01:05Z</time>
      </trkpt>
      <trkpt lat="46.41790771856904" lon="11.71026480384171">
        <ele>1468.55</ele>
        <time>2019-03-08T15:01:17Z</time>
      </trkpt>
      <trkpt lat="46.4179184474051" lon="11.71022716909647">
        <ele>1468.0699999999999</ele>
        <time>2019-03-08T15:01:19Z</time>
      </trkpt>
      <trkpt lat="46.417986257001758" lon="11.710097836330533">
        <ele>1464.23</ele>
        <time>2019-03-08T15:01:27Z</time>
      </trkpt>
      <trkpt lat="46.418050043284893" lon="11.709957774728537">
        <ele>1461.3399999999999</ele>
        <time>2019-03-08T15:01:36Z</time>
      </trkpt>
      <trkpt lat="46.41813880763948" lon="11.709794411435723">
        <ele>1458.9400000000001</ele>
        <time>2019-03-08T15:01:46Z</time>
      </trkpt>
      <trkpt lat="46.418202174827456" lon="11.709688883274794">
        <ele>1457.02</ele>
        <time>2019-03-08T15:01:53Z</time>
      </trkpt>
      <trkpt lat="46.418225727975368" lon="11.709654433652759">
        <ele>1455.5699999999999</ele>
        <time>2019-03-08T15:01:56Z</time>
      </trkpt>
      <trkpt lat="46.418297728523612" lon="11.70954211615026">
        <ele>1455.5699999999999</ele>
        <time>2019-03-08T15:02:04Z</time>
      </trkpt>
      <trkpt lat="46.41836796887219" lon="11.709441617131233">
        <ele>1453.1700000000001</ele>
        <time>2019-03-08T15:02:11Z</time>
      </trkpt>
      <trkpt lat="46.418391605839133" lon="11.709410604089499">
        <ele>1452.6900000000001</ele>
        <time>2019-03-08T15:02:13Z</time>
      </trkpt>
      <trkpt lat="46.418501660227776" lon="11.709208516404033">
        <ele>1449.3199999999999</ele>
        <time>2019-03-08T15:02:25Z</time>
      </trkpt>
      <trkpt lat="46.418531835079193" lon="11.709176581352949">
        <ele>1448.8399999999999</ele>
        <time>2019-03-08T15:02:28Z</time>
      </trkpt>
      <trkpt lat="46.418577013537288" lon="11.70913995243609">
        <ele>1447.8800000000001</ele>
        <time>2019-03-08T15:02:32Z</time>
      </trkpt>
      <trkpt lat="46.41871003434062" lon="11.708973990753293">
        <ele>1446.4400000000001</ele>
        <time>2019-03-08T15:02:45Z</time>
      </trkpt>
      <trkpt lat="46.418800475075841" lon="11.708838455379009">
        <ele>1443.0799999999999</ele>
        <time>2019-03-08T15:02:55Z</time>
      </trkpt>
      <trkpt lat="46.418891754001379" lon="11.70872513204813">
        <ele>1440.6700000000001</ele>
        <time>2019-03-08T15:03:04Z</time>
      </trkpt>
      <trkpt lat="46.41899879090488" lon="11.708575682714581">
        <ele>1439.23</ele>
        <time>2019-03-08T15:03:15Z</time>
      </trkpt>
      <trkpt lat="46.419103480875492" lon="11.70839773491025">
        <ele>1436.3499999999999</ele>
        <time>2019-03-08T15:03:26Z</time>
      </trkpt>
      <trkpt lat="46.41915519721806" lon="11.708299834281206">
        <ele>1432.98</ele>
        <time>2019-03-08T15:03:32Z</time>
      </trkpt>
      <trkpt lat="46.41921378672123" lon="11.70816957950592">
        <ele>1429.6199999999999</ele>
        <time>2019-03-08T15:03:40Z</time>
      </trkpt>
      <trkpt lat="46.419261479750276" lon="11.708021471276879">
        <ele>1426.73</ele>
        <time>2019-03-08T15:03:48Z</time>
      </trkpt>
      <trkpt lat="46.41929249279201" lon="11.707933964207768">
        <ele>1427.21</ele>
        <time>2019-03-08T15:03:55Z</time>
      </trkpt>
      <trkpt lat="46.419322164729238" lon="11.707847379148006">
        <ele>1427.7</ele>
        <time>2019-03-08T15:03:59Z</time>
      </trkpt>
      <trkpt lat="46.41938142478466" lon="11.707643866539001">
        <ele>1424.8099999999999</ele>
        <time>2019-03-08T15:04:10Z</time>
      </trkpt>
      <trkpt lat="46.419380670413375" lon="11.707603465765715">
        <ele>1424.3299999999999</ele>
        <time>2019-03-08T15:04:12Z</time>
      </trkpt>
      <trkpt lat="46.419415455311537" lon="11.707385117188096">
        <ele>1423.3699999999999</ele>
        <time>2019-03-08T15:04:24Z</time>
      </trkpt>
      <trkpt lat="46.41952358186245" lon="11.707200296223164">
        <ele>1421.45</ele>
        <time>2019-03-08T15:04:36Z</time>
      </trkpt>
      <trkpt lat="46.419556858018041" lon="11.707025533542037">
        <ele>1421.45</ele>
        <time>2019-03-08T15:04:44Z</time>
      </trkpt>
      <trkpt lat="46.419613771140575" lon="11.706870049238205">
        <ele>1418.0799999999999</ele>
        <time>2019-03-08T15:04:53Z</time>
      </trkpt>
      <trkpt lat="46.41965551301837" lon="11.706762760877609">
        <ele>1416.1600000000001</ele>
        <time>2019-03-08T15:05:01Z</time>
      </trkpt>
      <trkpt lat="46.419677222147584" lon="11.706715486943722">
        <ele>1415.6800000000001</ele>
        <time>2019-03-08T15:05:04Z</time>
      </trkpt>
      <trkpt lat="46.419812170788646" lon="11.706506693735719">
        <ele>1414.24</ele>
        <time>2019-03-08T15:05:19Z</time>
      </trkpt>
      <trkpt lat="46.419822983443737" lon="11.706499233841896">
        <ele>1414.24</ele>
        <time>2019-03-08T15:05:20Z</time>
      </trkpt>
      <trkpt lat="46.419873274862766" lon="11.706468472257257">
        <ele>1413.76</ele>
        <time>2019-03-08T15:05:25Z</time>
      </trkpt>
      <trkpt lat="46.419928343966603" lon="11.706429244950414">
        <ele>1413.76</ele>
        <time>2019-03-08T15:05:30Z</time>
      </trkpt>
      <trkpt lat="46.419986011460423" lon="11.706391610205173">
        <ele>1412.79</ele>
        <time>2019-03-08T15:05:35Z</time>
      </trkpt>
      <trkpt lat="46.42009723931551" lon="11.706246770918369">
        <ele>1411.3499999999999</ele>
        <time>2019-03-08T15:05:46Z</time>
      </trkpt>
      <trkpt lat="46.420145770534873" lon="11.706079384312034">
        <ele>1412.3099999999999</ele>
        <time>2019-03-08T15:05:56Z</time>
      </trkpt>
      <trkpt lat="46.420181477442384" lon="11.705954829230905">
        <ele>1411.8299999999999</ele>
        <time>2019-03-08T15:06:03Z</time>
      </trkpt>
      <trkpt lat="46.420242497697473" lon="11.705768331885338">
        <ele>1410.3900000000001</ele>
        <time>2019-03-08T15:06:14Z</time>
      </trkpt>
      <trkpt lat="46.420291867107153" lon="11.705634221434593">
        <ele>1410.3900000000001</ele>
        <time>2019-03-08T15:06:23Z</time>
      </trkpt>
      <trkpt lat="46.420345762744546" lon="11.705531291663647">
        <ele>1410.3900000000001</ele>
        <time>2019-03-08T15:06:31Z</time>
      </trkpt>
      <trkpt lat="46.42037283629179" lon="11.705515617504716">
        <ele>1409.9100000000001</ele>
        <time>2019-03-08T15:06:43Z</time>
      </trkpt>
      <trkpt lat="46.42042363062501" lon="11.70522702857852">
        <ele>1410.3900000000001</ele>
        <time>2019-03-08T15:11:44Z</time>
      </trkpt>
      <trkpt lat="46.42043000087142" lon="11.705152094364166">
        <ele>1409.4300000000001</ele>
        <time>2019-03-08T15:11:48Z</time>
      </trkpt>
      <trkpt lat="46.420451207086444" lon="11.704947743564844">
        <ele>1407.99</ele>
        <time>2019-03-08T15:12:00Z</time>
      </trkpt>
      <trkpt lat="46.42045296728611" lon="11.704912120476365">
        <ele>1407.51</ele>
        <time>2019-03-08T15:12:02Z</time>
      </trkpt>
      <trkpt lat="46.420467887073755" lon="11.704797120764852">
        <ele>1407.03</ele>
        <time>2019-03-08T15:12:09Z</time>
      </trkpt>
      <trkpt lat="46.420520776882768" lon="11.704568713903427">
        <ele>1406.55</ele>
        <time>2019-03-08T15:12:23Z</time>
      </trkpt>
      <trkpt lat="46.420562937855721" lon="11.704375930130482">
        <ele>1406.0699999999999</ele>
        <time>2019-03-08T15:12:35Z</time>
      </trkpt>
      <trkpt lat="46.42063376493752" lon="11.704172920435667">
        <ele>1405.5799999999999</ele>
        <time>2019-03-08T15:12:48Z</time>
      </trkpt>
      <trkpt lat="46.420693444088101" lon="11.70399371534586">
        <ele>1405.0999999999999</ele>
        <time>2019-03-08T15:12:59Z</time>
      </trkpt>
      <trkpt lat="46.420723870396614" lon="11.70389648526907">
        <ele>1404.1400000000001</ele>
        <time>2019-03-08T15:13:08Z</time>
      </trkpt>
      <trkpt lat="46.420799223706126" lon="11.703705796971917">
        <ele>1403.1800000000001</ele>
        <time>2019-03-08T15:13:21Z</time>
      </trkpt>
      <trkpt lat="46.420921934768558" lon="11.703558191657066">
        <ele>1402.22</ele>
        <time>2019-03-08T15:13:33Z</time>
      </trkpt>
      <trkpt lat="46.421070545911789" lon="11.703409915789962">
        <ele>1401.26</ele>
        <time>2019-03-08T15:13:47Z</time>
      </trkpt>
      <trkpt lat="46.421194178983569" lon="11.70328963547945">
        <ele>1400.3</ele>
        <time>2019-03-08T15:13:59Z</time>
      </trkpt>
      <trkpt lat="46.421311106532812" lon="11.703160218894482">
        <ele>1399.3399999999999</ele>
        <time>2019-03-08T15:14:11Z</time>
      </trkpt>
      <trkpt lat="46.421432392671704" lon="11.702964501455426">
        <ele>1398.8599999999999</ele>
        <time>2019-03-08T15:14:25Z</time>
      </trkpt>
      <trkpt lat="46.421461226418614" lon="11.70289920642972">
        <ele>1398.8599999999999</ele>
        <time>2019-03-08T15:14:29Z</time>
      </trkpt>
      <trkpt lat="46.421489389613271" lon="11.702857213094831">
        <ele>1398.3699999999999</ele>
        <time>2019-03-08T15:14:32Z</time>
      </trkpt>
      <trkpt lat="46.421538591384888" lon="11.702787894755602">
        <ele>1398.3699999999999</ele>
        <time>2019-03-08T15:14:37Z</time>
      </trkpt>
      <trkpt lat="46.421656105667353" lon="11.702587399631739">
        <ele>1397.4100000000001</ele>
        <time>2019-03-08T15:14:51Z</time>
      </trkpt>
      <trkpt lat="46.421791892498732" lon="11.702350107952952">
        <ele>1395.49</ele>
        <time>2019-03-08T15:15:07Z</time>
      </trkpt>
      <trkpt lat="46.421925583854318" lon="11.702103679999709">
        <ele>1392.6099999999999</ele>
        <time>2019-03-08T15:15:23Z</time>
      </trkpt>
      <trkpt lat="46.422045612707734" lon="11.701886504888535">
        <ele>1390.2</ele>
        <time>2019-03-08T15:15:38Z</time>
      </trkpt>
      <trkpt lat="46.422147369012237" lon="11.701706880703568">
        <ele>1387.3199999999999</ele>
        <time>2019-03-08T15:15:50Z</time>
      </trkpt>
      <trkpt lat="46.422257088124752" lon="11.701459530740976">
        <ele>1386.3599999999999</ele>
        <time>2019-03-08T15:16:05Z</time>
      </trkpt>
      <trkpt lat="46.422354569658637" lon="11.701257191598415">
        <ele>1384.9200000000001</ele>
        <time>2019-03-08T15:16:18Z</time>
      </trkpt>
      <trkpt lat="46.422464624047279" lon="11.701037250459194">
        <ele>1383.47</ele>
        <time>2019-03-08T15:16:32Z</time>
      </trkpt>
      <trkpt lat="46.42259756103158" lon="11.700877407565713">
        <ele>1381.55</ele>
        <time>2019-03-08T15:16:46Z</time>
      </trkpt>
      <trkpt lat="46.422751117497683" lon="11.700741453096271">
        <ele>1379.6300000000001</ele>
        <time>2019-03-08T15:17:00Z</time>
      </trkpt>
      <trkpt lat="46.422903500497341" lon="11.700614131987095">
        <ele>1380.1099999999999</ele>
        <time>2019-03-08T15:17:14Z</time>
      </trkpt>
      <trkpt lat="46.423045909032226" lon="11.700496785342693">
        <ele>1380.1099999999999</ele>
        <time>2019-03-08T15:17:27Z</time>
      </trkpt>
      <trkpt lat="46.423193262889981" lon="11.700361417606473">
        <ele>1380.5899999999999</ele>
        <time>2019-03-08T15:17:40Z</time>
      </trkpt>
      <trkpt lat="46.423333073034883" lon="11.700239796191454">
        <ele>1382.51</ele>
        <time>2019-03-08T15:17:53Z</time>
      </trkpt>
      <trkpt lat="46.42346290871501" lon="11.700153965502977">
        <ele>1384.9200000000001</ele>
        <time>2019-03-08T15:18:05Z</time>
      </trkpt>
      <trkpt lat="46.423586625605822" lon="11.700075091794133">
        <ele>1383.96</ele>
        <time>2019-03-08T15:18:16Z</time>
      </trkpt>
      <trkpt lat="46.423744037747383" lon="11.699987081810832">
        <ele>1382.51</ele>
        <time>2019-03-08T15:18:29Z</time>
      </trkpt>
      <trkpt lat="46.423865407705307" lon="11.699923546984792">
        <ele>1379.6300000000001</ele>
        <time>2019-03-08T15:18:40Z</time>
      </trkpt>
      <trkpt lat="46.424032710492611" lon="11.699797231703997">
        <ele>1378.1900000000001</ele>
        <time>2019-03-08T15:18:55Z</time>
      </trkpt>
      <trkpt lat="46.424188446253538" lon="11.699713161215186">
        <ele>1374.3399999999999</ele>
        <time>2019-03-08T15:19:06Z</time>
      </trkpt>
      <trkpt lat="46.424332531169057" lon="11.699621295556426">
        <ele>1370.98</ele>
        <time>2019-03-08T15:19:17Z</time>
      </trkpt>
      <trkpt lat="46.42448466271162" lon="11.699533369392157">
        <ele>1369.05</ele>
        <time>2019-03-08T15:19:29Z</time>
      </trkpt>
      <trkpt lat="46.42460678704083" lon="11.699451226741076">
        <ele>1369.05</ele>
        <time>2019-03-08T15:19:39Z</time>
      </trkpt>
      <trkpt lat="46.424827566370368" lon="11.699303956702352">
        <ele>1368.0899999999999</ele>
        <time>2019-03-08T15:19:57Z</time>
      </trkpt>
      <trkpt lat="46.424984224140644" lon="11.699180910363793">
        <ele>1368.0899999999999</ele>
        <time>2019-03-08T15:20:10Z</time>
      </trkpt>
      <trkpt lat="46.425165189430118" lon="11.699080998077989">
        <ele>1367.6099999999999</ele>
        <time>2019-03-08T15:20:25Z</time>
      </trkpt>
      <trkpt lat="46.425375742837787" lon="11.699005477130413">
        <ele>1366.1700000000001</ele>
        <time>2019-03-08T15:20:41Z</time>
      </trkpt>
      <trkpt lat="46.425519827753305" lon="11.698975721374154">
        <ele>1362.8099999999999</ele>
        <time>2019-03-08T15:20:51Z</time>
      </trkpt>
      <trkpt lat="46.425707750022411" lon="11.698916712775826">
        <ele>1361.8399999999999</ele>
        <time>2019-03-08T15:21:05Z</time>
      </trkpt>
      <trkpt lat="46.425908077508211" lon="11.698851166293025">
        <ele>1360.8800000000001</ele>
        <time>2019-03-08T15:21:20Z</time>
      </trkpt>
      <trkpt lat="46.426104130223393" lon="11.698824428021908">
        <ele>1361.3599999999999</ele>
        <time>2019-03-08T15:21:34Z</time>
      </trkpt>
    </trkseg>
  </trk>

</gpx>